[[{"header":{"parameterUnit":"m.s-1","parameterCategory":1,"la1":30.6,"la2":28.766,"lo1":-90.7593,"lo2":-88.6598,"dy":0.0162,"dx":0.0183,"nx":116,"ny":114,"refTime":"2024-06-24T00:00:00:Z","depth":0,"parameterNumber":2,"parameterNumberName":"U-component_of_WINDS"},"data":[0.0,0.0,0.0,0.0,0.0,0.0,0.0,0.0,0.0,0.0,0.0,0.0,0.0,0.0,0.0,0.0,0.0,0.0,0.0,0.0,0.0,0.0,0.0,0.0,0.0,0.0,0.0,0.0,0.0,0.0,0.0,0.0,0.0,0.0,0.0,0.0,0.0,0.0,0.0,0.0,0.0,0.0,0.0,0.0,0.0,0.0,0.0,0.0,0.0,0.0,0.0,0.0,0.0,0.0,0.0,0.0,0.0,0.0,0.0,0.0,0.0,0.0,0.0,0.0,0.0,0.0,0.0,0.0,0.0,0.0,0.0,0.0,0.0,0.0,0.0,0.0,0.0,0.0,0.0,0.0,0.0,0.0,0.0,0.0,0.0,0.0,0.0,0.0,0.0,0.0,0.0,0.0,0.0,0.0,0.0,0.0,0.0,0.0,0.0,0.0,0.0,0.0,0.0,0.0,0.0,0.0,0.0,0.0,0.0,0.0,0.0,0.0,0.0,0.0,0.0,0.0,0.0,0.0,0.0,0.0,0.0,0.0,0.0,0.0,0.0,0.0,0.0,0.0,0.0,0.0,0.0,0.0,0.0,0.0,0.0,0.0,0.0,0.0,0.0,0.0,0.0,0.0,0.0,0.0,0.0,0.0,0.0,0.0,0.0,0.0,0.0,0.0,0.0,0.0,0.0,0.0,0.0,0.0,0.0,0.0,0.0,0.0,0.0,0.0,0.0,0.0,0.0,0.0,0.0,0.0,0.0,0.0,0.0,0.0,0.0,0.0,0.0,0.0,0.0,0.0,0.0,0.0,0.0,0.0,0.0,0.0,0.0,0.0,0.0,0.0,0.0,0.0,0.0,0.0,0.0,0.0,0.0,0.0,0.0,0.0,0.0,0.0,0.0,0.0,0.0,0.0,0.0,0.0,0.0,0.0,0.0,0.0,0.0,0.0,0.0,0.0,0.0,0.0,0.0,0.0,0.0,0.0,0.0,0.0,0.0,0.0,0.0,0.0,0.0,0.0,0.0,0.0,0.0,0.0,0.0,0.0,0.0,0.0,0.0,0.0,0.0,0.0,0.0,0.0,0.0,0.0,0.0,0.0,0.0,0.0,0.0,0.0,0.0,0.0,0.0,0.0,0.0,0.0,0.0,0.0,0.0,0.0,0.0,0.0,0.0,0.0,0.0,0.0,0.0,0.0,0.0,0.0,0.0,0.0,0.0,0.0,0.0,0.0,0.0,0.0,0.0,0.0,0.0,0.0,0.0,0.0,0.0,0.0,0.0,0.0,0.0,0.0,0.0,0.0,0.0,0.0,0.0,0.0,0.0,0.0,0.0,0.0,0.0,0.0,0.0,0.0,0.0,0.0,0.0,0.0,0.0,0.0,0.0,0.0,0.0,0.0,0.0,0.0,0.0,0.0,0.0,0.0,0.0,0.0,0.0,0.0,0.0,0.0,0.0,0.0,0.0,0.0,0.0,0.0,0.0,0.0,0.0,0.0,0.0,0.0,0.0,0.0,0.0,0.0,0.0,0.0,0.0,0.0,0.0,0.0,0.0,0.0,0.0,0.0,0.0,0.0,0.0,0.0,0.0,0.0,0.0,0.0,0.0,0.0,0.0,0.0,0.0,0.0,0.0,0.0,0.0,0.0,0.0,0.0,0.0,0.0,0.0,0.0,0.0,0.0,0.0,0.0,0.0,0.0,0.0,0.0,0.0,0.0,0.0,0.0,0.0,0.0,0.0,0.0,0.0,0.0,0.0,0.0,0.0,0.0,0.0,0.0,0.0,0.0,0.0,0.0,0.0,0.0,0.0,0.0,0.0,0.0,0.0,0.0,0.0,0.0,0.0,0.0,0.0,0.0,0.0,0.0,0.0,0.0,0.0,0.0,0.0,0.0,0.0,0.0,0.0,0.0,0.0,0.0,0.0,0.0,0.0,0.0,0.0,0.0,0.0,0.0,0.0,0.0,0.0,0.0,0.0,0.0,0.0,0.0,0.0,0.0,0.0,0.0,0.0,0.0,0.0,0.0,0.0,0.0,0.0,0.0,0.0,0.0,0.0,0.0,0.0,0.0,0.0,0.0,0.0,0.0,0.0,0.0,0.0,0.0,0.0,0.0,0.0,0.0,0.0,0.0,0.0,0.0,0.0,0.0,0.0,0.0,0.0,0.0,0.0,0.0,0.0,0.0,0.0,0.0,0.0,0.0,0.0,0.0,0.0,0.0,0.0,0.0,0.0,0.0,0.0,0.0,0.0,0.0,0.0,0.0,0.0,0.0,0.0,0.0,0.0,0.0,0.0,0.0,0.0,0.0,0.0,0.0,0.0,0.0,0.0,0.0,0.0,0.0,0.0,0.0,0.0,0.0,0.0,0.0,0.0,0.0,0.0,0.0,0.0,0.0,0.0,0.0,0.0,0.0,0.0,0.0,0.0,0.0,0.0,0.0,0.0,0.0,0.0,0.0,0.0,0.0,0.0,0.0,0.0,0.0,0.0,0.0,0.0,0.0,0.0,0.0,0.0,0.0,0.0,0.0,0.0,0.0,0.0,0.0,0.0,0.0,0.0,0.0,0.0,0.0,0.0,0.0,0.0,0.0,0.0,0.0,0.0,0.0,0.0,0.0,0.0,0.0,0.0,0.0,0.0,0.0,0.0,0.0,0.0,0.0,0.0,0.0,0.0,0.0,0.0,0.0,0.0,0.0,0.0,0.0,0.0,0.0,0.0,0.0,0.0,0.0,0.0,0.0,0.0,0.0,0.0,0.0,0.0,0.0,0.0,0.0,0.0,0.0,0.0,0.0,0.0,0.0,0.0,0.0,0.0,0.0,0.0,0.0,0.0,0.0,0.0,0.0,0.0,0.0,0.0,0.0,0.0,0.0,0.0,0.0,0.0,0.0,0.0,0.0,0.0,0.0,0.0,0.0,0.0,0.0,0.0,0.0,0.0,0.0,0.0,0.0,0.0,0.0,0.0,0.0,0.0,0.0,0.0,0.0,0.0,0.0,0.0,0.0,0.0,0.0,0.0,0.0,0.0,0.0,0.0,0.0,0.0,0.0,0.0,0.0,0.0,0.0,0.0,0.0,0.0,0.0,0.0,0.0,0.0,0.0,0.0,0.0,0.0,0.0,0.0,0.0,0.0,0.0,0.0,0.0,0.0,0.0,0.0,0.0,0.0,0.0,0.0,0.0,0.0,0.0,0.0,0.0,0.0,0.0,0.0,0.0,0.0,0.0,0.0,0.0,0.0,0.0,0.0,0.0,0.0,0.0,0.0,0.0,0.0,0.0,0.0,0.0,0.0,0.0,0.0,0.0,0.0,0.0,0.0,0.0,0.0,0.0,0.0,0.0,0.0,0.0,0.0,0.0,0.0,0.0,0.0,0.0,0.0,0.0,0.0,0.0,0.0,0.0,0.0,0.0,0.0,0.0,0.0,0.0,0.0,0.0,0.0,0.0,0.0,0.0,0.0,0.0,0.0,0.0,0.0,0.0,0.0,0.0,0.0,0.0,0.0,0.0,0.0,0.0,0.0,0.0,0.0,0.0,0.0,0.0,0.0,0.0,0.0,0.0,0.0,0.0,0.0,0.0,0.0,0.0,0.0,0.0,0.0,0.0,0.0,0.0,0.0,0.0,0.0,0.0,0.0,0.0,0.0,0.0,0.0,0.0,0.0,0.0,0.0,0.0,0.0,0.0,0.0,0.0,0.0,0.0,0.0,0.0,0.0,0.0,0.0,0.0,0.0,0.0,0.0,0.0,0.0,0.0,0.0,0.0,0.0,0.0,0.0,0.0,0.0,0.0,0.0,0.0,0.0,0.0,0.0,0.0,0.0,0.0,0.0,0.0,0.0,0.0,0.0,0.0,0.0,0.0,0.0,0.0,0.0,0.0,0.0,0.0,0.0,0.0,0.0,0.0,0.0,0.0,0.0,0.0,0.0,0.0,0.0,0.0,0.0,0.0,0.0,0.0,0.0,0.0,0.0,0.0,0.0,0.0,0.0,0.0,0.0,0.0,0.0,0.0,0.0,0.0,0.0,0.0,0.0,0.0,0.0,0.0,0.0,0.0,0.0,0.0,0.0,0.0,0.0,0.0,0.0,0.0,0.0,0.0,0.0,0.0,0.0,0.0,0.0,0.0,0.0,0.0,0.0,0.0,0.0,0.0,0.0,0.0,0.0,0.0,0.0,0.0,0.0,0.0,0.0,0.0,0.0,0.0,0.0,0.0,0.0,0.0,0.0,0.0,0.0,0.0,0.0,0.0,0.0,0.0,0.0,0.0,0.0,0.0,0.0,0.0,0.0,0.0,0.0,0.0,0.0,0.0,0.0,0.0,0.0,0.0,0.0,0.0,0.0,0.0,0.0,0.0,0.0,0.0,0.0,0.0,0.0,0.0,0.0,0.0,0.0,0.0,0.0,0.0,0.0,0.0,0.0,0.0,0.0,0.0,0.0,0.0,0.0,0.0,0.0,0.0,0.0,0.0,0.0,0.0,0.0,0.0,0.0,0.0,0.0,0.0,0.0,0.0,0.0,0.0,0.0,0.0,0.0,0.0,0.0,0.0,0.0,0.0,0.0,0.0,0.0,0.0,0.0,0.0,0.0,0.0,0.0,0.0,0.0,0.0,0.0,0.0,0.0,0.0,0.0,0.0,0.0,0.0,0.0,0.0,0.0,0.0,0.0,0.0,0.0,0.0,0.0,0.0,0.0,0.0,0.0,0.0,0.0,0.0,0.0,0.0,0.0,0.0,0.0,0.0,0.0,0.0,0.0,0.0,0.0,0.0,0.0,0.0,0.0,0.0,0.0,0.0,0.0,0.0,0.0,0.0,0.0,0.0,0.0,0.0,0.0,0.0,0.0,0.0,0.0,0.0,0.0,0.0,0.0,0.0,0.0,0.0,0.0,0.0,0.0,0.0,0.0,0.0,0.0,0.0,0.0,0.0,0.0,0.0,0.0,0.0,0.0,0.0,0.0,0.0,0.0,0.0,0.0,0.0,0.0,0.0,0.0,0.0,0.0,0.0,0.0,0.0,0.0,0.0,0.0,0.0,0.0,0.0,0.0,0.0,0.0,0.0,0.0,0.0,0.0,0.0,0.0,0.0,0.0,0.0,0.0,0.0,0.0,0.0,0.0,0.0,0.0,0.0,0.0,0.0,0.0,0.0,0.0,0.0,0.0,0.0,0.0,0.0,0.0,0.0,0.0,0.0,0.0,0.0,0.0,0.0,0.0,0.0,0.0,0.0,0.0,0.0,0.0,0.0,0.0,0.0,0.0,0.0,0.0,0.0,0.0,0.0,0.0,0.0,0.0,0.0,0.0,0.0,0.0,0.0,0.0,0.0,0.0,0.0,0.0,0.0,0.0,0.0,0.0,0.0,0.0,0.0,0.0,0.0,0.0,0.0,0.0,0.0,0.0,0.0,0.0,0.0,0.0,0.0,0.0,0.0,0.0,0.0,0.0,0.0,0.0,0.0,0.0,0.0,0.0,0.0,0.0,0.0,0.0,0.0,0.0,0.0,0.0,0.0,0.0,0.0,0.0,0.0,0.0,0.0,0.0,0.0,0.0,0.0,0.0,0.0,0.0,0.0,0.0,0.0,0.0,0.0,0.0,0.0,0.0,0.0,0.0,0.0,0.0,0.0,0.0,0.0,0.0,0.0,0.0,0.0,0.0,0.0,0.0,0.0,0.0,0.0,0.0,0.0,0.0,0.0,0.0,0.0,0.0,0.0,0.0,0.0,0.0,0.0,0.0,0.0,0.0,0.0,0.0,0.0,0.0,0.0,0.0,0.0,0.0,0.0,0.0,0.0,0.0,0.0,0.0,0.0,0.0,0.0,0.0,0.0,0.0,0.0,0.0,0.0,0.0,0.0,0.0,0.0,0.0,0.0,0.0,0.0,0.0,0.0,0.0,0.0,0.0,0.0,0.0,0.0,0.0,0.0,0.0,0.0,0.0,0.0,0.0,0.0,0.0,0.0,0.0,0.0,0.0,0.0,0.0,0.0,0.0,0.0,0.0,0.0,0.0,0.0,0.0,0.0,0.0,0.0,0.0,0.0,0.0,0.0,0.0,0.0,0.0,0.0,0.0,0.0,0.0,0.0,0.0,0.0,-2.8517,0.0,0.0,0.0,0.0,0.0,0.0,0.0,0.0,0.0,0.0,0.0,0.0,0.0,0.0,0.0,0.0,0.0,0.0,0.0,0.0,0.0,0.0,0.0,0.0,-1.5454,-1.5857,-1.6236,-1.6652,-1.7055,-1.744,-1.7541,-1.7587,-1.7587,-1.7658,-1.7504,-1.712,-1.7492,-1.8023,-1.8719,-1.9575,-2.0533,-2.161,-2.118,-2.0144,-1.8632,0.0,0.0,0.0,0.0,0.0,0.0,0.0,0.0,0.0,0.0,0.0,0.0,0.0,0.0,0.0,0.0,0.0,0.0,0.0,0.0,0.0,0.0,0.0,0.0,0.0,0.0,0.0,0.0,0.0,0.0,0.0,0.0,0.0,0.0,0.0,0.0,0.0,0.0,0.0,0.0,0.0,0.0,0.0,0.0,0.0,0.0,0.0,0.0,0.0,0.0,0.0,0.0,0.0,0.0,0.0,0.0,0.0,0.0,0.0,0.0,0.0,0.0,0.0,0.0,0.0,0.0,0.0,0.0,0.0,0.0,0.0,-2.9956,0.0,0.0,0.0,0.0,0.0,0.0,0.0,0.0,0.0,0.0,0.0,0.0,0.0,0.0,0.0,0.0,0.0,0.0,0.0,0.0,0.0,-1.3028,-1.5447,-1.5955,-1.6445,-1.7238,-1.7587,-1.7979,-1.8474,-1.8511,-1.8456,-1.8317,-1.8317,-1.8052,-1.7532,-1.8181,-1.9318,-2.0951,-2.2079,-2.3795,-2.6035,-2.6035,-2.4575,-2.196,-2.1538,0.0,0.0,0.0,0.0,0.0,0.0,0.0,0.0,0.0,0.0,0.0,0.0,0.0,0.0,0.0,0.0,0.0,0.0,0.0,0.0,0.0,0.0,0.0,0.0,0.0,0.0,0.0,0.0,0.0,0.0,0.0,0.0,0.0,0.0,0.0,0.0,0.0,0.0,0.0,0.0,0.0,0.0,0.0,0.0,0.0,0.0,0.0,0.0,0.0,0.0,0.0,0.0,0.0,0.0,0.0,0.0,0.0,0.0,0.0,0.0,0.0,0.0,0.0,0.0,0.0,-3.7777,-3.8396,-3.8684,-3.8497,-3.5391,-3.4015,-3.3778,0.0,0.0,0.0,0.0,0.0,0.0,0.0,0.0,0.0,0.0,0.0,0.0,0.0,0.0,0.0,0.0,0.0,0.0,0.0,0.0,-1.364,-1.5502,-1.6958,-1.8115,-1.8911,-2.0307,-2.0886,-2.0236,-2.0181,-1.9869,-1.9168,-1.915,-1.9418,-2.0008,-2.0126,-2.1006,-2.2676,-2.4877,-2.684,-2.8528,-2.8528,-2.829,-2.7794,-2.5695,-2.5071,-2.5456,0.0,0.0,0.0,0.0,0.0,0.0,0.0,0.0,0.0,0.0,0.0,0.0,0.0,0.0,0.0,0.0,0.0,0.0,0.0,0.0,0.0,0.0,0.0,0.0,0.0,0.0,0.0,0.0,0.0,0.0,0.0,0.0,0.0,0.0,0.0,0.0,0.0,0.0,0.0,0.0,0.0,-2.5988,-2.6898,0.0,0.0,0.0,0.0,0.0,0.0,0.0,0.0,0.0,0.0,0.0,0.0,0.0,0.0,-3.5079,-3.7797,-3.9214,-3.9385,-4.0747,-4.1457,-4.1576,-4.1677,-4.1711,-4.1677,-4.1187,0.0,-3.6186,-3.3795,0.0,0.0,0.0,0.0,0.0,0.0,0.0,0.0,0.0,0.0,0.0,0.0,0.0,0.0,0.0,0.0,0.0,0.0,0.0,0.0,0.0,-1.8078,-1.9297,-2.0582,-2.1785,-2.2116,-2.129,-2.1235,-2.0849,-2.0005,-1.9528,-1.9675,-2.0484,-2.1428,-2.3373,-2.6363,-2.8785,-3.0564,-3.1715,-3.2161,-3.2638,-3.3036,-3.1494,-2.9475,-2.7126,-2.4805,0.0,0.0,0.0,0.0,0.0,0.0,0.0,0.0,0.0,0.0,0.0,0.0,0.0,0.0,0.0,0.0,0.0,0.0,0.0,0.0,0.0,0.0,0.0,0.0,0.0,0.0,0.0,0.0,0.0,0.0,0.0,0.0,0.0,0.0,0.0,0.0,0.0,0.0,0.0,-2.5621,-2.8594,-2.8484,-2.9677,-2.9843,0.0,0.0,0.0,0.0,0.0,0.0,0.0,0.0,0.0,-3.7918,-3.8237,-3.9037,-4.0418,-4.1412,-4.2292,-4.3036,-4.3312,-4.3718,-4.4103,-4.3746,-4.3599,-4.3582,-4.3115,-4.1999,-4.0273,-3.7212,-3.5047,-3.3491,0.0,0.0,0.0,0.0,0.0,-3.2814,0.0,0.0,0.0,0.0,0.0,0.0,0.0,0.0,0.0,0.0,0.0,0.0,-1.817,-1.951,-2.0839,-2.229,-2.3144,-2.3272,-2.2473,-2.2033,-2.14,-2.0548,-1.9932,-1.9987,-2.0804,-2.3061,-2.6106,-2.9922,-3.1922,-3.344,-3.4449,-3.5041,-3.5665,-3.6266,-3.561,-3.3206,-2.9531,-2.7706,-2.6007,-2.4308,0.0,0.0,0.0,0.0,0.0,0.0,0.0,0.0,0.0,0.0,0.0,0.0,0.0,0.0,0.0,0.0,0.0,0.0,0.0,0.0,0.0,0.0,0.0,0.0,0.0,0.0,0.0,0.0,0.0,0.0,0.0,0.0,0.0,0.0,0.0,0.0,0.0,-2.8411,-3.0668,-3.0271,-3.2375,-3.2908,0.0,0.0,0.0,0.0,0.0,0.0,-3.801,-3.8434,-3.986,-4.2567,-4.2489,-4.3295,-4.5106,-4.4852,-4.5238,-4.6194,-4.5578,-4.5554,-4.6057,-4.5254,-4.4874,-4.4823,-4.4045,-4.3578,-4.3156,-4.0037,-3.8075,-3.6817,-3.4793,-3.4336,0.0,-3.5233,-3.5487,-3.596,0.0,0.0,0.0,0.0,0.0,0.0,0.0,0.0,0.0,0.0,0.0,-1.741,-1.9058,-2.1382,-2.3153,-2.4006,-2.4805,-2.4934,-2.4135,-2.2657,-2.14,-2.0548,-2.0456,-2.0841,-2.1721,-2.5558,-2.9163,-3.2417,-3.3311,-3.4578,-3.6174,-3.6211,-3.6266,-3.6303,-3.6248,-3.5642,-3.4491,-3.21,-3.0173,-2.8418,-2.5236,0.0,0.0,0.0,0.0,0.0,0.0,0.0,0.0,0.0,0.0,0.0,0.0,0.0,0.0,0.0,0.0,0.0,0.0,0.0,0.0,0.0,0.0,0.0,0.0,0.0,0.0,0.0,0.0,0.0,0.0,0.0,0.0,0.0,0.0,0.0,0.0,0.0,0.0,-3.3476,-3.5748,0.0,0.0,0.0,0.0,-3.707,-3.8649,-4.0579,-4.3019,-4.3413,-4.4303,-4.6003,-4.6177,-4.6678,-4.7601,-4.828,-4.8646,-4.8706,-4.7972,-4.7634,-4.7625,-4.6277,-4.5652,-4.5602,-4.484,-4.4096,-4.3274,-4.1694,-4.1001,-4.0781,-3.9242,-3.8684,-3.8633,-3.7973,-3.8176,-3.8785,0.0,0.0,0.0,-0.9051,-0.9001,-0.9296,-1.0224,-1.1172,-1.2351,-1.4021,-1.6096,-1.8318,-2.0658,-2.2428,-2.4075,-2.5601,-2.6007,-2.5823,-2.5026,-2.3961,-2.3199,-2.2887,-2.2382,-2.3208,-2.5613,-2.8587,-3.1182,-3.3366,-3.5271,-3.6501,-3.7088,-3.7606,-3.7845,-3.7845,-3.7845,-3.7386,-3.6413,-3.344,-3.1549,-3.0265,-2.7034,-2.4905,0.0,0.0,0.0,0.0,0.0,0.0,0.0,0.0,0.0,0.0,0.0,0.0,0.0,0.0,0.0,0.0,0.0,0.0,0.0,0.0,0.0,0.0,0.0,0.0,0.0,0.0,0.0,0.0,0.0,0.0,0.0,0.0,0.0,0.0,0.0,0.0,0.0,-3.6798,-3.9111,0.0,-3.79,-3.8927,-4.0157,-4.1293,-4.2359,-4.4048,-4.6452,-4.6687,-4.7486,-4.9129,-4.8818,-4.8978,-4.9731,-4.9555,-4.9699,-5.0108,-4.9428,-4.8866,-4.8414,-4.7476,-4.6561,-4.5703,-4.5415,-4.4874,-4.413,-4.3589,-4.2794,-4.1863,-4.1322,-4.1119,-4.1085,-4.0832,-4.0595,-4.0426,-0.954,-0.9224,0.0,-0.9068,-0.9057,-0.943,-1.0613,-1.1546,-1.2865,-1.4995,-1.7181,-1.9532,-2.2164,-2.3782,-2.5306,-2.6866,-2.6759,-2.6374,-2.5852,-2.4538,-2.3804,-2.3804,-2.3804,-2.5438,-2.8936,-3.0852,-3.2871,-3.5037,-3.6684,-3.7639,-3.7933,-3.845,-3.8707,-3.8707,-3.8707,-3.8395,-3.7749,-3.5293,-3.3623,-3.2375,-2.9702,-2.7989,-2.6733,0.0,0.0,0.0,0.0,0.0,0.0,0.0,0.0,0.0,0.0,0.0,0.0,0.0,0.0,0.0,0.0,0.0,0.0,0.0,0.0,0.0,0.0,0.0,0.0,0.0,0.0,0.0,0.0,0.0,0.0,0.0,0.0,0.0,0.0,0.0,-3.7716,-3.9331,-4.1644,-4.258,-4.124,-4.2561,-4.3956,-4.5039,-4.5608,-4.6874,-4.904,-4.915,-4.9793,-5.1151,-5.0782,-5.0888,-5.161,-5.1161,-5.1161,-5.1589,-5.0911,-5.034,-4.9893,-4.895,-4.7902,-4.6749,-4.6237,-4.562,-4.4942,-4.4716,-4.4005,-4.3047,-4.2777,-4.2675,-4.2642,-4.2388,-4.1982,-4.1542,-0.8897,-0.8897,-0.8941,-0.9068,-0.9199,-0.9811,-1.1358,-1.2335,-1.3986,-1.7011,-1.9049,-2.1095,-2.3461,-2.54,-2.6877,-2.7695,-2.7034,-2.6547,-2.6547,-2.4345,-2.3061,-2.3153,-2.4732,-2.7431,-3.1397,-3.2284,-3.4284,-3.7492,-3.7529,-3.7951,-3.8707,-3.8707,-3.8707,-3.8707,-3.8707,-3.8707,-3.8652,-3.7878,-3.6597,-3.4968,-3.3335,-3.1702,-2.9934,0.0,0.0,0.0,0.0,0.0,0.0,0.0,0.0,0.0,0.0,0.0,0.0,0.0,0.0,0.0,0.0,0.0,0.0,0.0,0.0,0.0,0.0,0.0,0.0,0.0,0.0,0.0,0.0,0.0,0.0,0.0,0.0,0.0,-3.6266,-3.7771,-3.9423,-4.1022,-4.3315,-4.447,-4.3681,-4.5057,-4.6654,-4.8233,-4.8361,-4.9114,-5.0747,-5.0839,-5.1206,-5.1995,-5.2032,-5.2417,-5.3185,-5.3185,-5.3185,-5.3185,-5.2468,-5.2112,-5.2053,-5.0677,-4.9644,-4.8813,-4.7384,-4.6374,-4.5652,-4.4925,-4.4632,-4.453,-4.3741,-4.3426,-4.3341,-4.2642,-4.2354,-4.2219,-0.8897,-0.8897,-0.8941,-0.9068,-0.9124,-0.9662,-1.1143,-1.2323,-1.4126,-1.7148,-1.904,-2.1123,-2.377,-2.4844,-2.5783,-2.683,-2.619,-2.5723,-2.5723,-2.4557,-2.4649,-2.6392,-2.8587,-3.0809,-3.3091,-3.4541,-3.6009,-3.7492,-3.8065,-3.8487,-3.8707,-3.8707,-3.8707,-3.8707,-3.8707,-3.8707,-3.8689,-3.8469,-3.8102,-3.7481,-3.5243,-3.3371,-3.1813,0.0,0.0,0.0,0.0,0.0,0.0,0.0,0.0,0.0,0.0,0.0,0.0,0.0,0.0,0.0,0.0,0.0,0.0,0.0,0.0,0.0,0.0,0.0,0.0,0.0,0.0,0.0,0.0,0.0,0.0,0.0,0.0,-3.7771,-3.801,-3.9937,-4.1919,-4.3517,-4.5333,-4.6342,-4.6122,-4.7609,-4.8784,-4.9225,-4.9774,-5.0563,-5.161,-5.1665,-5.2032,-5.2839,-5.2876,-5.2986,-5.3185,-5.3185,-5.3185,-5.3185,-5.298,-5.2617,-5.2071,-5.1712,-5.0576,-4.8882,-4.8466,-4.7309,-4.5686,-4.5483,-4.5077,-4.4581,-4.435,-4.4265,-4.4231,-4.4056,-4.3589,-4.2929,-0.8897,-0.8897,-0.8963,-0.9144,-0.9464,-1.0061,-1.1201,-1.2816,-1.4856,-1.7542,-1.9402,-2.1496,-2.4202,-2.4866,-2.5509,-2.6499,-2.587,-2.5393,-2.5393,-2.5273,-2.6282,-2.8705,-3.0797,-3.2834,-3.4798,-3.6119,-3.7199,-3.7991,-3.8469,-3.8707,-3.8707,-3.8707,-3.8891,-3.9184,-3.8854,-3.8891,-3.9184,-3.8836,-3.8707,-3.8579,-3.7132,-3.5775,-3.449,-3.2892,-3.1129,-2.936,-2.86,-2.7877,-2.7112,-2.6299,0.0,0.0,0.0,0.0,0.0,0.0,0.0,0.0,0.0,0.0,0.0,0.0,0.0,0.0,0.0,0.0,0.0,0.0,0.0,0.0,0.0,0.0,0.0,0.0,-3.8891,-4.0836,-4.1167,-4.2433,-4.3901,-4.5498,-4.6526,-4.7369,-4.8086,-4.9022,-4.9886,-5.0565,-5.1041,-5.1646,-5.2454,-5.2509,-5.2729,-5.3206,-5.3185,-5.3185,-5.3185,-5.3185,-5.3185,-5.3185,-5.3185,-5.2977,-5.2554,-5.2554,-5.1718,0.0,-4.9618,-4.8296,-4.6515,-4.5948,-4.5263,0.0,0.0,0.0,0.0,0.0,-4.4282,-4.3724,-0.8902,-0.8908,-0.9001,-0.9228,-0.9961,-1.0754,-1.1405,-1.3468,-1.5744,-1.7953,-1.981,-2.1898,-2.4411,-2.503,-2.5558,-2.6282,-2.576,-2.5485,-2.565,-2.6502,-2.8044,-3.0375,-3.2106,-3.41,-3.6376,-3.7217,-3.8028,-3.8836,-3.8836,-3.8891,-3.8982,-3.8982,-3.935,-3.9992,-3.9294,-3.9368,-3.9992,-3.9276,-3.8927,-3.8836,-3.8836,-3.8303,-3.7206,-3.4587,-3.3407,-3.294,-3.1097,-3.0007,-2.9281,-2.8472,0.0,0.0,0.0,0.0,0.0,0.0,0.0,0.0,0.0,0.0,0.0,0.0,0.0,0.0,0.0,0.0,0.0,0.0,0.0,0.0,0.0,0.0,0.0,0.0,-4.1644,-4.3938,-4.4838,-4.4966,-4.5498,-4.6929,-4.7186,-4.7865,-4.9445,-4.9684,-5.0363,-5.1885,-5.2068,-5.2454,-5.317,0.0,0.0,0.0,0.0,-5.3185,-5.3185,-5.3185,-5.3185,-5.3185,-5.3185,-5.3185,-5.3185,-5.3185,-5.2791,-5.2035,-5.078,-4.9352,-4.7819,-4.6481,-4.5399,-4.4615,-4.4615,-4.4615,-4.4615,-4.4615,-4.4615,0.0,-0.8919,-0.899,-0.9068,-0.9124,-0.9993,-1.0865,-1.1494,-1.3293,-1.5402,-1.7617,-1.9465,-2.1297,-2.316,-2.3996,-2.4483,-2.4649,-2.5117,-2.5944,-2.7247,-2.8705,-3.0301,-3.2051,-3.4357,-3.6101,-3.7235,-3.8065,-3.8854,-3.9662,-3.9662,-3.9992,-4.0636,-4.0636,-4.071,-4.0857,-4.071,-4.071,-4.0857,-4.0691,-4.0267,-3.9662,-3.9662,-3.8796,-3.7474,-3.733,-3.6028,-3.4304,-3.4369,-3.3869,-3.3013,-3.2161,-3.1666,-3.1102,-2.9367,-2.7317,0.0,0.0,0.0,0.0,0.0,0.0,0.0,0.0,0.0,0.0,0.0,0.0,0.0,0.0,0.0,0.0,0.0,0.0,0.0,-4.1222,-4.3222,-4.4966,-4.6434,-4.6636,-4.6746,-4.7058,-4.7663,-4.8471,-4.95,-5.0178,-5.0967,-5.1922,-5.2601,-5.3041,-5.3185,-5.3185,0.0,-5.3185,-5.3185,-5.3185,-5.3185,-5.3185,-5.3185,-5.3185,0.0,0.0,-5.3185,-5.3185,-5.2791,-5.2071,-5.1814,-5.0526,-4.8541,-4.7715,-4.6295,-4.4615,-4.4615,-4.4615,-4.4615,-4.4615,-4.4615,-4.4496,-0.9033,-0.9006,-0.918,-0.971,-1.0573,-1.1444,-1.2186,-1.3774,-1.5608,-1.7548,-1.8945,-2.0431,-2.2217,-2.2767,-2.3006,-2.3006,-2.4107,-2.565,-2.7669,-2.9677,-3.1696,-3.372,-3.5789,-3.729,-3.8065,-3.8487,-3.9093,-3.99,-3.99,-4.0304,-4.1095,-4.1095,-4.1297,-4.168,-4.1279,-4.1315,-4.168,-4.126,-4.0873,-4.0469,-4.0065,-3.942,-3.867,-3.8403,-3.7272,-3.5866,-3.6044,-3.5276,-3.4129,-3.3705,-3.3191,-3.2529,-3.1162,-2.9508,-2.7684,0.0,0.0,0.0,0.0,0.0,0.0,0.0,0.0,0.0,0.0,0.0,0.0,0.0,0.0,-3.5679,-3.7683,0.0,-4.1295,-4.3718,-4.5112,-4.6177,-4.6984,-4.7443,-4.77,-4.77,-4.8067,-4.8802,-5.0068,-5.0563,-5.1298,-5.2509,-5.2986,-5.3185,-5.3185,-5.3185,-5.3185,-5.3185,-5.3185,-5.3185,-5.3185,-5.3185,-5.3185,-5.3185,-5.3185,-5.3185,-5.3185,-5.3185,-5.2999,-5.264,-5.2271,-5.1263,-4.9746,-4.7971,-4.6391,-4.5025,-4.472,-4.4615,-4.4615,-4.4615,-4.4615,-4.4547,-0.9353,-0.9229,-0.9395,-1.0297,-1.1251,-1.2145,-1.2878,-1.4187,-1.563,-1.7197,-1.8226,-1.9462,-2.1135,-2.1592,-2.1923,-2.2235,-2.3593,-2.5511,-2.811,-3.0534,-3.2871,-3.5151,-3.6853,-3.8043,-3.8689,-3.8707,-3.9166,-4.012,-4.012,-4.0616,-4.1572,-4.1572,-4.1919,-4.2506,-4.1864,-4.1937,-4.2488,-4.1846,-4.1389,-4.104,-4.0396,-3.9955,-3.9556,-3.8589,-3.7773,-3.7063,-3.6742,-3.5479,-3.3949,-3.3896,-3.3307,-3.2461,-3.1647,-3.0757,-2.9585,-2.7252,-2.6263,0.0,0.0,0.0,0.0,0.0,0.0,0.0,0.0,-3.377,-3.4289,-3.605,-3.711,-3.8432,-4.0875,-4.2121,-4.3461,-4.5553,-4.6581,-4.7149,-4.7314,-4.7902,-4.8306,-4.8306,-4.8306,-4.8967,-5.0637,-5.0802,-5.1481,-5.3096,-5.3185,-5.3185,-5.3185,-5.3185,-5.3185,-5.3185,-5.3185,-5.3185,-5.3185,-5.3185,-5.3185,-5.3185,-5.3185,-5.3185,-5.3185,-5.3185,-5.3185,-5.3146,-5.2413,-5.1674,-5.0795,-4.8162,-4.6618,-4.5831,-4.5093,-4.4759,-4.4759,-4.4654,-4.4615,-4.4615,-1.0138,-1.0059,-0.9955,-1.0192,-1.1537,-1.2676,-1.2957,-1.3755,-1.4705,-1.5794,-1.7254,-1.8544,-1.9481,-2.0913,-2.2382,-2.3804,-2.475,-2.6586,-2.9732,-3.2192,-3.4321,-3.6083,-3.7698,-3.8615,-3.8707,-3.8707,-3.9426,-4.0967,-4.0967,-4.1754,-4.3222,-4.3222,-4.3277,-4.3368,-4.3276,-4.3277,-4.3368,-4.3276,-4.2415,-4.1095,-4.1003,-4.012,-3.8771,-3.8167,-3.7597,-3.7041,-3.6594,-3.4975,-3.3026,-3.2835,-3.2203,-3.1462,-3.1352,-3.0627,-2.9618,-2.8555,-2.7532,-2.7028,-2.8239,-2.9702,-3.1421,-3.3757,-3.339,-3.4174,0.0,-3.9992,-3.8689,-4.1001,-4.2121,-4.258,-4.2231,-4.3424,-4.4764,-4.5736,-4.6581,-4.7351,-4.8086,-4.8251,-4.8306,-4.8306,-4.8306,-4.8967,-5.0637,-5.0802,-5.1481,-5.3096,-5.3185,-5.3185,-5.3185,-5.3185,-5.3185,-5.3185,-5.3185,-5.3185,-5.3185,-5.3185,-5.3185,-5.3185,-5.3185,-5.3185,-5.3185,-5.3185,-5.3185,-5.3148,-5.2354,-5.1639,-5.0864,-4.9095,-4.8007,-4.7318,-4.5952,-4.5381,-4.5346,-4.4786,-4.4615,-4.4615,-1.0532,-1.1118,-1.1568,-1.1542,-1.2116,-1.2842,-1.3574,-1.3978,-1.4554,-1.5563,-1.6695,-1.7704,-1.8519,-1.9646,-2.1005,-2.2657,-2.3979,-2.6062,-2.928,-3.1757,-3.4064,-3.6211,-3.7386,-3.8212,-3.8689,-3.8707,-3.9481,-4.1095,-4.1095,-4.1919,-4.3515,-4.3515,-4.3515,-4.3515,-4.3515,-4.3515,-4.3478,-4.3002,-4.2415,-4.1717,-4.0781,-3.9992,-3.9286,-3.8275,-3.7242,-3.6284,-3.5798,-3.4071,0.0,-3.247,-3.2012,-3.136,-3.1705,-3.0796,-2.9522,-2.9281,-2.9026,-2.9492,-3.2582,-3.3944,-3.4905,-3.6713,-3.7701,-3.8927,-4.1515,-4.1423,-4.1203,-4.269,-4.3276,-4.3534,-4.3681,-4.4635,-4.5663,0.0,-4.7259,-4.7921,-4.8251,-4.7901,-4.759,-4.759,-4.759,-4.8434,-5.06,-5.0802,-5.1481,-5.3096,-5.3185,-5.3185,-5.3185,-5.3185,-5.3185,-5.3185,-5.3185,-5.3185,-5.3185,-5.3185,-5.3185,-5.3185,-5.3185,-5.3185,-5.3185,-5.3185,-5.3185,-5.3167,-5.2839,-5.2273,-5.1474,-4.9927,-4.8879,-4.8082,-4.6605,-4.5808,-4.5433,-4.4814,-4.4615,-4.4615,-1.0986,-1.1937,-1.2761,-1.2868,-1.2889,-1.3155,-1.4,-1.4162,-1.4554,-1.5563,-1.6401,-1.7293,-1.8317,-1.8948,-1.9976,-2.1647,-2.307,-2.5236,-2.8455,-3.0931,-3.3275,-3.5514,-3.6831,-3.7768,-3.8358,-3.8597,-3.9386,-4.0781,-4.0781,-4.1479,-4.2837,-4.2837,-4.2837,-4.2837,-4.2837,-4.2837,-4.28,-4.2213,-4.1846,-4.1534,-4.0359,-3.9625,-3.9084,-3.7646,-3.6062,-3.4566,-3.4377,-3.2743,-3.0734,-3.1073,-3.0612,-3.0003,-3.0688,-2.9932,-2.8961,-2.9784,-3.0839,-3.2329,-3.5011,-3.6512,-3.7625,-3.8762,-4.0689,-4.2213,-4.1846,-4.2213,-4.28,-4.3386,-4.3515,-4.368,-4.4268,-4.5039,-4.5828,-4.6636,-4.7424,-4.8048,-4.8269,-4.7608,-4.7186,-4.7388,-4.7241,-4.7993,-5.0251,-5.0472,-5.1132,-5.2747,-5.2876,-5.2968,-5.3185,-5.3185,-5.3185,-5.3185,-5.3185,-5.3185,-5.3185,-5.3185,-5.3185,-5.3185,-5.3185,-5.3185,-5.3185,-5.3185,-5.3185,-5.3185,-5.3185,-5.2747,-5.1901,-5.0605,-4.9597,-4.8735,-4.7236,-4.6288,-4.5673,-4.5062,-4.4748,-4.4615,-1.1625,-1.2311,-1.3024,-1.3722,-1.3864,-1.3864,-1.3896,-1.4065,-1.4554,-1.5563,-1.6401,-1.7502,-1.9095,-1.9297,-1.9976,-2.1647,-2.2556,-2.44,-2.7622,-3.0111,-3.2155,-3.3807,-3.6207,-3.7511,-3.7529,-3.8303,-3.9111,-3.9937,-3.9937,-4.0359,-4.1168,-4.1168,-4.1168,-4.1168,-4.1168,-4.1168,-4.1168,-4.115,-4.0689,-3.9955,-3.9918,-3.898,-3.7382,-3.5716,-3.36,-3.1599,-3.2113,-3.0933,-2.9016,-2.8001,-2.7089,-2.6504,-2.7368,-2.7463,-2.7735,-3.016,-3.3133,-3.5431,-3.4507,-3.6589,-3.9171,-3.9718,-4.1093,-4.2506,-4.324,-4.346,-4.3478,-4.3496,-4.3515,-4.3515,-4.3533,-4.4195,-4.5002,-4.581,-4.6617,-4.7406,-4.8196,-4.7608,-4.7388,-4.8177,-4.7571,-4.7774,0.0,-4.9647,-5.0308,-5.1903,-5.2032,-5.238,-5.317,-5.3185,-5.3185,-5.3185,-5.3185,-5.3185,-5.3185,-5.3185,-5.3185,-5.3185,-5.3185,-5.3185,-5.3185,-5.3185,-5.3185,-5.3185,-5.3185,-5.2747,-5.194,-5.1112,-5.0305,-4.9421,-4.794,-4.6955,-4.6312,-4.5699,-4.5115,-4.4615,-1.2058,-1.2937,-1.3811,-1.4056,-1.411,-1.411,-1.411,-1.4156,-1.4554,-1.5563,-1.6867,0.0,0.0,0.0,0.0,0.0,-2.2538,-2.4143,-2.6833,-2.876,-3.054,-3.2137,-3.4027,-3.5293,-3.5844,-3.7202,-3.8285,-3.9093,-3.9643,-4.0304,-4.1095,-4.1095,-4.1095,-4.1095,-4.1095,-4.1095,-4.1058,-4.0524,-4.0469,-4.0561,-3.8961,-3.83,-3.8077,-3.6088,-3.3893,-3.1763,0.0,-2.9144,-2.7084,-2.7399,-2.691,-2.6332,-2.7078,-2.7169,-2.7662,-3.1039,-3.3724,-3.5956,-3.7549,-3.9308,-4.0826,-4.1374,-4.2286,-4.3167,-4.3441,-4.3515,-4.3515,-4.3515,-4.3075,-4.269,-4.269,-4.3351,-4.4176,-4.4966,-4.6232,-4.7369,-4.8196,-4.8086,-4.7791,-4.7535,-4.7736,0.0,0.0,0.0,0.0,-5.1887,-5.1995,-5.2344,-5.317,-5.3185,-5.3185,-5.3185,-5.3185,-5.3185,-5.3185,-5.3185,-5.3185,-5.3185,-5.3185,-5.3185,-5.3185,-5.3185,-5.3185,-5.3185,-5.3185,-5.2747,-5.194,-5.1132,-5.0325,-4.9499,-4.8404,-4.7614,-4.6977,-4.6336,-4.5707,-4.5142,-1.2632,-1.3481,-1.4301,-1.4301,-1.4301,0.0,0.0,0.0,0.0,0.0,0.0,0.0,0.0,0.0,0.0,0.0,0.0,-2.3602,-2.6007,-2.7409,-2.8741,-3.0056,-3.1659,-3.2761,-3.3261,-3.4614,-3.5697,-3.6523,-3.7331,-3.8138,-3.893,-3.9242,-3.9371,-3.9371,-3.9371,-3.9371,-3.935,-3.8836,-3.8909,-3.9205,-3.7367,-3.6618,-3.6408,-3.4388,-3.2258,0.0,-2.9009,-2.7316,-2.5754,-2.646,-2.6554,-2.6473,-2.7219,-2.8452,-3.0117,-3.2634,-3.4996,-3.7352,-3.995,-4.1074,-4.1728,-4.2657,-4.3212,-4.3531,-4.3646,-4.358,-4.3423,-4.313,-4.2433,-4.1882,-4.1882,-4.2066,-4.2763,-4.4433,-4.5572,-4.6819,-4.8526,-4.8251,-4.7993,-4.8378,-4.8342,-4.8343,0.0,0.0,0.0,-5.1481,-5.183,-5.2344,-5.317,-5.3185,-5.3185,-5.3185,-5.3185,-5.3185,-5.3185,-5.3185,-5.3185,-5.3185,-5.3185,-5.3185,-5.3185,-5.3185,-5.3185,-5.3185,-5.3185,-5.2582,-5.1518,-5.1004,-5.0141,-4.9077,-4.8526,-4.7937,-4.732,-4.6641,-4.6014,-4.5407,-1.3304,-1.3949,-1.4493,0.0,0.0,0.0,0.0,0.0,0.0,0.0,0.0,0.0,0.0,0.0,0.0,0.0,0.0,0.0,-2.5191,-2.608,-2.6888,-2.7651,-2.9219,-3.0081,-3.0081,-3.0919,-3.1715,-3.2472,-3.3275,-3.4082,-3.4839,-3.5661,-3.6046,-3.6046,-3.6083,-3.6101,-3.6101,-3.6101,-3.6119,-3.6083,-3.5133,-3.3976,-3.2622,-3.0844,-2.8949,-2.71,-2.6359,-2.5648,-2.5105,-2.5329,-2.6056,-2.7026,-2.7923,-3.1159,-3.4655,-3.4922,-3.7003,-3.9611,-4.1492,-4.1819,-4.1976,-4.358,-4.3742,-4.358,-4.3924,-4.3684,-4.3164,-4.2391,-4.1509,-4.0868,-4.0832,-4.0299,-4.0868,-4.3974,-4.4635,-4.5883,-4.9078,-4.8251,-4.8158,0.0,0.0,0.0,0.0,0.0,0.0,-5.0857,0.0,-5.2344,-5.317,-5.3185,-5.3185,-5.3185,-5.3185,-5.3185,-5.3185,-5.3185,-5.3185,-5.3185,-5.3185,-5.3185,-5.3185,-5.3185,-5.3185,-5.3185,-5.3185,-5.2307,-5.0802,-5.0802,-4.9811,-4.8306,-4.8306,-4.7937,-4.7363,-4.6687,-4.6088,-4.5511,0.0,0.0,0.0,0.0,0.0,0.0,0.0,0.0,0.0,0.0,0.0,0.0,0.0,0.0,0.0,0.0,0.0,0.0,-2.4438,-2.5264,-2.5797,-2.5999,-2.7559,-2.8411,-2.8411,-2.9787,-3.0613,-3.0815,-3.1623,-3.2131,-3.232,-3.254,-3.2664,-3.2682,-3.3275,-3.3537,-3.3537,-3.3537,-3.3899,-3.4266,-3.2247,-3.1568,-3.163,-3.034,-2.8725,-2.7215,-2.737,-2.6759,-2.6003,-2.6696,-2.8575,-3.0855,-3.2122,-3.4113,-3.621,-3.7377,-3.9084,-4.0833,-4.1936,-4.2608,-4.3098,-4.352,-4.3546,-4.358,-4.3924,-4.2965,-4.1839,-4.1292,-3.9505,-3.7854,-3.72,-3.8265,0.0,-4.1129,-4.3743,0.0,-4.8343,-4.9352,0.0,-5.0729,0.0,-5.0986,-5.082,-5.1334,0.0,0.0,-5.1867,-5.2344,-5.317,-5.3185,-5.3185,-5.3185,-5.3185,-5.3185,-5.3185,-5.3185,-5.3185,-5.3185,-5.3185,-5.3185,-5.3185,-5.3185,-5.3185,-5.3185,-5.3185,-5.2307,-5.0802,-5.0802,-4.9811,-4.8306,-4.8306,-4.821,-4.8015,-4.7367,-4.7062,-4.6751,0.0,0.0,0.0,0.0,0.0,0.0,0.0,0.0,0.0,0.0,0.0,0.0,0.0,0.0,0.0,0.0,0.0,0.0,0.0,-2.4622,-2.4879,-2.4879,-2.5742,-2.6209,-2.6209,-2.7438,-2.8081,-2.8081,-2.9237,-2.9818,-2.9836,-3.0173,-3.0356,-3.0375,-3.0821,-3.1023,-3.1035,-3.1108,-3.1414,0.0,0.0,-2.9529,-2.9566,-2.838,-2.7231,-2.6259,-2.6381,-2.713,-2.8324,-2.9878,-3.159,-3.3395,-3.5169,-3.6846,-3.841,-3.9612,-4.0759,-4.1824,-4.2793,-4.3264,-4.3582,-4.3899,-4.3744,-4.3352,-4.2763,-4.174,-4.0347,-3.8284,-3.6813,-3.5528,-3.4301,-3.5906,-3.7922,0.0,0.0,0.0,-4.7976,-4.9444,-5.0527,0.0,-5.172,0.0,-5.1867,-5.227,-5.2527,0.0,-5.2527,-5.2729,-5.3167,-5.3185,-5.3185,-5.3185,-5.3185,-5.3185,-5.3185,-5.3185,-5.3185,-5.3185,-5.3185,-5.3185,-5.3185,-5.3185,-5.3185,-5.3185,0.0,-5.2307,-5.0802,-5.0802,-4.9811,-4.8306,-4.8306,-4.8306,-4.823,-4.7614,-4.7406,-4.7255,0.0,0.0,0.0,0.0,0.0,0.0,0.0,0.0,0.0,-1.8401,-1.963,-2.0576,-2.0804,-2.151,0.0,0.0,0.0,0.0,0.0,0.0,-2.419,-2.419,-2.419,-2.419,-2.419,-2.4879,-2.5246,-2.5246,-2.6641,-2.731,-2.7339,-2.8033,-2.8363,-2.8363,-2.8507,-2.8555,-2.8577,-2.8788,-2.8871,-2.8806,-2.8137,-2.7582,-2.7001,0.0,-2.5317,-2.4904,-2.4727,-2.6981,-3.0445,-3.3153,-3.4572,-3.5577,-3.7721,-3.9472,-4.0874,-4.1634,-4.2165,-4.2746,-4.3679,-4.3788,-4.3791,-4.4378,-4.3987,-4.3011,-4.1293,-4.0246,-3.8564,-3.4714,-3.3837,-3.3335,-3.1873,-3.3566,-3.5957,-3.8344,0.0,-4.4504,-4.7682,-4.8967,-5.0198,-5.1793,-5.2087,-5.2435,-5.3133,-5.3185,-5.3185,-5.3185,-5.3185,-5.3185,-5.3185,-5.3185,-5.3185,-5.3185,-5.3185,-5.3185,-5.3185,-5.3185,-5.3185,-5.3185,-5.3185,-5.3185,-5.3185,-5.3185,-5.3185,-5.3185,0.0,0.0,-5.0802,-5.0674,-4.9719,-4.8306,-4.8306,-4.8306,-4.8248,-4.7715,-4.753,-4.7409,0.0,0.0,0.0,0.0,0.0,0.0,0.0,-1.806,-1.9326,-1.9997,-2.0327,-2.1025,-2.2419,-2.2694,0.0,0.0,0.0,0.0,0.0,0.0,0.0,-2.419,-2.419,-2.419,-2.419,-2.4337,-2.442,-2.442,-2.4685,-2.4814,-2.4832,-2.4961,-2.5034,-2.5062,-2.5902,-2.6274,-2.6293,-2.6488,-2.6572,-2.6489,-2.5548,-2.5111,-2.5011,-2.4964,0.0,0.0,-2.5276,-2.6367,-2.8179,-3.2422,-3.6141,-3.9264,-4.0988,-4.2167,-4.2975,-4.312,-4.3409,-4.3679,-4.3609,-4.3989,-4.4364,-4.4165,-4.3713,-4.2916,-4.1269,-3.8815,-3.613,-3.3425,-3.134,-2.9954,-2.9666,-3.2018,-3.4734,-3.6989,-4.0444,-4.389,-4.6875,-4.8618,-5.0198,0.0,-5.2582,-5.3059,-5.3206,-5.3185,0.0,0.0,0.0,0.0,-5.3185,-5.3185,-5.3185,-5.3185,-5.3185,-5.3185,-5.3185,-5.3185,-5.3185,-5.3185,-5.3185,-5.3185,-5.3185,-5.3185,-5.3185,-5.317,0.0,0.0,-5.0747,-5.0068,-4.9205,-4.8306,-4.8306,-4.8306,-4.8287,-4.8191,-4.8152,-4.7964,0.0,0.0,0.0,0.0,0.0,0.0,-1.741,-1.8896,-2.0382,-2.1648,-2.2162,-2.2566,-2.2951,-2.3373,-2.3786,0.0,0.0,0.0,0.0,0.0,0.0,-2.419,-2.419,-2.419,-2.419,-2.4622,-2.4622,-2.419,0.0,-2.4622,-2.419,-2.419,-2.419,-2.4218,-2.4699,-2.4986,-2.51,-2.5294,-2.5426,-2.5453,-2.5068,-2.4923,-2.4923,-2.4904,0.0,0.0,-2.5409,-2.6682,-2.8399,-3.1036,-3.4736,-3.8707,-4.1452,-4.2967,-4.3756,-4.3756,-4.3881,-4.4016,-4.4065,-4.418,-4.4332,-4.4516,-4.3788,-4.2357,-3.9773,-3.7173,-3.4283,-3.07,-2.9162,-2.8203,-2.7294,-3.002,-3.2876,-3.4376,-3.7838,-4.1539,-4.4964,-4.7203,-4.9307,-5.1434,-5.2766,-5.3505,0.0,-5.3505,0.0,0.0,0.0,0.0,-5.3185,-5.3185,-5.3185,-5.3185,-5.3185,-5.3185,-5.3185,-5.3185,-5.3185,-5.3185,-5.3185,-5.3185,-5.3185,-5.3185,-5.2968,-5.2546,0.0,0.0,-5.0141,-4.9757,-4.9077,-4.8306,-4.8306,-4.8306,-4.8306,-4.8306,-4.8306,-4.8139,0.0,0.0,0.0,0.0,0.0,0.0,-1.7979,-1.964,-2.1365,-2.2866,-2.3805,-2.4099,-2.3444,-2.4035,-2.4392,0.0,0.0,0.0,0.0,0.0,0.0,0.0,0.0,-2.419,-2.419,0.0,0.0,0.0,-2.4824,0.0,0.0,0.0,0.0,0.0,0.0,-2.4435,-2.462,-2.4821,-2.4975,0.0,0.0,-2.5248,0.0,0.0,0.0,0.0,0.0,-2.6551,-2.8202,-2.9304,-3.2101,-3.5757,-3.9405,-4.1819,-4.3326,-4.3454,-4.3706,-4.4065,-4.4484,-4.4468,-4.4463,-4.4977,-4.3836,-4.1682,-3.8147,-3.5561,-3.2637,-2.8158,-2.7297,-2.6986,-2.5808,-2.8262,-3.0975,-3.2435,-3.5539,-3.9145,-4.3084,-4.5815,-4.8304,0.0,-5.2602,0.0,-5.3664,0.0,0.0,0.0,0.0,0.0,0.0,-5.3185,-5.3185,-5.3185,-5.3185,-5.3185,-5.3185,-5.3185,-5.3185,-5.3185,-5.3185,-5.3115,-5.2949,-5.2949,-5.2509,-5.172,0.0,0.0,0.0,-4.9408,-4.8912,-4.8306,-4.8306,-4.8306,-4.8306,-4.8306,-4.8196,-4.7939,0.0,0.0,0.0,0.0,0.0,0.0,-1.7979,-2.0233,-2.2204,-2.3156,-2.4125,-2.4727,-2.4633,-2.504,-2.5007,0.0,0.0,0.0,0.0,0.0,0.0,0.0,0.0,0.0,0.0,0.0,0.0,0.0,0.0,0.0,0.0,0.0,0.0,0.0,0.0,0.0,0.0,-2.5176,0.0,0.0,0.0,0.0,0.0,0.0,0.0,0.0,0.0,-2.4747,-2.5225,-2.7322,-2.889,-3.0567,-3.3888,-3.7773,-4.1186,-4.1675,-4.2762,-4.3931,-4.4449,-4.5022,-4.541,-4.5169,-4.3484,-4.0961,-3.7328,-3.4159,-3.0906,-2.7172,-2.5945,-2.5731,-2.6365,-2.7412,-2.9385,-3.2991,-3.5153,-3.7902,-4.2203,-4.5263,-4.7723,-4.9564,0.0,0.0,-5.3263,0.0,0.0,0.0,0.0,0.0,0.0,-5.3185,-5.3185,-5.3185,-5.3185,-5.3185,-5.3185,-5.3185,-5.3185,-5.3185,-5.3185,-5.2821,-5.2105,-5.2105,-5.1665,-5.0875,0.0,0.0,0.0,-4.8746,-4.8379,-4.8306,-4.8306,-4.8306,-4.8306,-4.8306,-4.7828,-4.7094,0.0,0.0,0.0,0.0,0.0,0.0,-1.8795,-2.0294,-2.1984,-2.3956,-2.4524,-2.4712,-2.4631,-2.5186,-2.5255,-2.4458,0.0,0.0,0.0,0.0,0.0,0.0,0.0,0.0,0.0,0.0,-2.419,0.0,0.0,0.0,0.0,0.0,0.0,0.0,0.0,0.0,0.0,0.0,0.0,0.0,0.0,0.0,0.0,0.0,0.0,0.0,0.0,0.0,-2.5262,-2.5546,-2.7045,-2.8933,-2.959,-3.2345,-3.6024,-3.9591,-4.1767,-4.3228,-4.4149,-4.4841,-4.5322,-4.5371,-4.332,-4.0434,-3.7305,-3.3772,-3.0274,-2.7133,-2.5838,-2.5404,-2.575,-2.6524,-2.7906,-3.0342,-3.1729,-3.4064,-3.8683,-4.16,-4.4721,-4.8656,-5.1073,0.0,0.0,0.0,0.0,0.0,0.0,0.0,0.0,-5.3185,-5.3185,-5.3185,-5.3185,-5.3185,-5.3185,-5.3185,-5.2968,-5.2472,-5.2472,-5.205,-5.1279,-5.1279,-5.0839,-5.005,0.0,0.0,0.0,-4.8434,-4.8306,-4.8306,-4.8306,-4.8306,-4.8251,-4.7755,-4.7369,-4.6911,0.0,0.0,0.0,0.0,0.0,-1.7515,-1.9033,-2.0445,-2.2096,-2.4236,-2.4712,-2.4843,-2.4749,-2.52,-2.5249,-2.4639,-2.4478,0.0,0.0,0.0,0.0,0.0,0.0,0.0,0.0,0.0,-2.4318,-2.4548,-2.4548,0.0,0.0,0.0,0.0,0.0,0.0,0.0,0.0,0.0,0.0,0.0,0.0,0.0,0.0,0.0,0.0,0.0,0.0,0.0,0.0,0.0,0.0,-2.7325,-2.6875,-2.8505,-3.1636,-3.6981,-3.9786,-4.1513,-4.3139,-4.4192,-4.4862,-4.4858,-4.2795,-3.9938,-3.6692,-3.3215,-2.9828,-2.6831,-2.5731,-2.5308,-2.5308,-2.5808,-2.6779,-2.8515,-2.9694,-3.196,-3.6476,-3.9573,-4.2981,0.0,0.0,0.0,0.0,0.0,0.0,0.0,0.0,0.0,0.0,0.0,-5.3185,-5.3185,-5.3185,-5.3185,-5.3185,-5.2968,-5.2564,-5.1995,-5.1756,-5.1224,-5.0453,-5.0453,-4.9994,0.0,0.0,0.0,0.0,-4.8306,-4.8306,-4.8306,-4.8306,-4.8159,-4.7865,-4.7314,-4.6801,-4.6232,0.0,0.0,0.0,0.0,0.0,-1.7487,-1.8377,-2.0834,-2.2874,-2.3696,-2.4683,-2.5284,-2.5279,-2.5124,-2.4956,-2.4811,-2.4426,0.0,0.0,0.0,0.0,0.0,0.0,0.0,0.0,0.0,-2.4585,-2.5393,-2.5393,-2.5393,-2.5393,0.0,0.0,0.0,0.0,0.0,0.0,0.0,0.0,0.0,0.0,0.0,-2.5308,0.0,0.0,0.0,0.0,0.0,0.0,0.0,0.0,0.0,0.0,-2.7061,-2.8895,-3.3723,-3.6522,-3.8596,-4.1135,-4.3047,-4.4124,-4.3316,-4.1797,-3.9392,-3.5187,-3.2231,-2.9437,-2.6019,-2.5308,-2.5308,-2.5308,-2.5308,-2.6082,-2.8413,-3.0201,-3.2645,-3.6547,-4.0314,-4.3439,0.0,0.0,0.0,0.0,0.0,0.0,0.0,0.0,0.0,0.0,0.0,-5.3185,-5.3185,-5.3185,-5.3185,-5.3185,-5.2417,-5.1995,-5.1977,-5.1187,-5.038,-4.961,-4.961,0.0,0.0,0.0,0.0,0.0,-4.8306,-4.8306,-4.8306,-4.8306,-4.781,-4.7113,-4.7094,-4.6085,-4.4709,0.0,0.0,0.0,0.0,0.0,0.0,-1.8469,-1.9431,-2.0747,-2.2839,-2.2881,-2.2872,-2.3329,-2.3739,-2.3903,-2.3715,-2.4126,0.0,0.0,0.0,0.0,0.0,0.0,0.0,0.0,-2.419,-2.4585,-2.5393,-2.5393,-2.5686,-2.6209,-2.579,-2.561,0.0,0.0,0.0,0.0,0.0,0.0,0.0,0.0,-2.5308,-2.5308,0.0,0.0,0.0,0.0,0.0,0.0,0.0,0.0,0.0,0.0,0.0,0.0,-2.9378,-3.2654,-3.5584,-3.6392,-3.7834,-3.8911,-3.8115,-3.6911,-3.5155,-3.2263,-3.0382,-2.8485,-2.5835,-2.5308,-2.5308,-2.5308,-2.5308,-2.6447,-2.9947,-3.0948,-3.2953,-3.7671,0.0,0.0,0.0,0.0,0.0,0.0,0.0,0.0,0.0,0.0,0.0,0.0,0.0,-5.2068,-5.3167,-5.2674,-5.238,-5.238,-5.1573,-5.0894,-5.0363,-5.0106,-4.9517,-4.871,-4.871,0.0,0.0,0.0,0.0,0.0,-4.8306,-4.8306,-4.8251,-4.7681,-4.7314,-4.6966,-4.5865,-4.5131,-4.4618,0.0,0.0,0.0,0.0,0.0,0.0,-1.7757,-1.8756,-1.9965,-2.163,-2.1927,-2.2147,-2.2579,-2.3133,-2.3448,-2.3314,-2.3969,0.0,0.0,0.0,0.0,0.0,0.0,0.0,-2.419,-2.419,-2.474,-2.5852,-2.5852,-2.6264,-2.7053,-2.6747,-2.6389,-2.5993,-2.564,0.0,0.0,0.0,0.0,0.0,-2.5308,-2.5308,-2.5308,0.0,0.0,0.0,0.0,0.0,0.0,0.0,0.0,0.0,0.0,0.0,0.0,0.0,-2.9006,-3.1602,-3.291,-3.4487,-3.5565,-3.4731,-3.3995,-3.2845,-3.0457,-2.9123,-2.7816,-2.5725,-2.5308,-2.5308,-2.5308,-2.5308,-2.6294,-2.9367,-3.0406,-3.2481,-3.7292,0.0,0.0,0.0,0.0,0.0,0.0,0.0,0.0,0.0,0.0,0.0,0.0,0.0,-5.1323,-5.2443,-5.1877,-5.1555,-5.1555,-5.0747,-5.0086,-4.961,-4.928,-4.882,-4.8306,0.0,0.0,0.0,0.0,0.0,0.0,-4.8306,-4.8122,-4.7791,-4.7296,-4.6727,-4.6067,-4.5058,-4.4525,-4.4176,0.0,0.0,0.0,0.0,0.0,0.0,0.0,-1.8504,-2.0077,-2.0192,-2.1562,-2.2547,-2.2624,-2.3059,-2.3361,-2.3404,-2.3852,0.0,0.0,0.0,0.0,0.0,0.0,0.0,-2.419,-2.419,-2.4997,-2.6602,-2.6667,-2.7126,-2.7982,-2.8206,-2.7538,-2.6181,-2.6337,-2.5991,0.0,0.0,0.0,0.0,-2.5308,-2.5308,0.0,0.0,0.0,0.0,0.0,0.0,0.0,0.0,0.0,0.0,0.0,0.0,0.0,0.0,0.0,0.0,0.0,-3.2429,-3.3455,-3.2583,-3.241,-3.1814,-2.9377,-2.8299,0.0,-2.5654,-2.5308,-2.5365,-2.5538,-2.5481,-2.6011,-2.7847,-2.9465,-3.1977,0.0,-3.9765,0.0,0.0,0.0,0.0,0.0,0.0,0.0,0.0,0.0,0.0,0.0,0.0,0.0,-5.1116,-5.0859,-5.0718,-5.0792,-4.9924,-4.952,-4.954,-4.8692,-4.8306,-4.8306,0.0,0.0,0.0,0.0,0.0,0.0,-4.8251,-4.7755,-4.7094,-4.6966,-4.6012,-4.4691,-4.4654,-4.414,-4.3515,0.0,0.0,0.0,0.0,0.0,0.0,0.0,0.0,0.0,0.0,-1.9646,-2.0142,-2.0812,-2.1401,-2.1952,0.0,0.0,0.0,0.0,0.0,0.0,0.0,0.0,0.0,-2.419,-2.419,-2.4997,-2.6602,-2.7218,-2.8246,-2.9634,-3.0043,-2.9371,-2.7836,-2.7619,-2.6705,0.0,0.0,0.0,0.0,-2.5308,-2.5308,0.0,0.0,0.0,0.0,-2.5308,-2.5269,0.0,0.0,0.0,0.0,0.0,0.0,0.0,0.0,-2.5442,-2.5788,-2.6596,0.0,-2.8179,-2.7308,-2.7596,-2.7755,0.0,-2.6563,-2.6601,-2.5519,-2.5308,-2.5904,-2.7852,-2.7159,-2.8104,-3.3646,-3.4861,-3.6615,0.0,0.0,0.0,0.0,0.0,0.0,0.0,0.0,0.0,0.0,0.0,0.0,0.0,0.0,0.0,-4.9474,-4.969,-5.0102,-5.0724,-4.9325,-4.8753,-4.9058,-4.855,-4.8306,-4.8306,0.0,0.0,0.0,0.0,0.0,0.0,-4.7626,-4.7278,-4.6984,-4.5737,-4.5021,-4.4635,-4.4011,-4.3644,-4.3515,0.0,0.0,0.0,0.0,0.0,0.0,0.0,0.0,0.0,0.0,-1.8742,-1.9334,-2.0192,-2.0833,-2.151,0.0,0.0,0.0,0.0,0.0,0.0,0.0,0.0,-2.419,-2.419,-2.419,-2.4997,-2.6602,-2.7034,-2.8323,-3.038,-3.0348,-2.972,-2.8525,-2.7266,-2.6173,0.0,0.0,0.0,-2.5308,-2.5308,0.0,0.0,0.0,0.0,0.0,-2.5308,-2.5308,0.0,-2.5308,-2.5308,-2.5308,0.0,0.0,0.0,0.0,-2.5308,-2.5308,-2.5308,-2.6231,-2.7082,-2.6621,-2.6851,-2.7063,-2.6601,-2.6231,-2.5865,-2.5404,-2.5308,-2.5846,-2.7621,-2.7832,-2.9217,-3.368,-3.5692,0.0,0.0,0.0,0.0,0.0,0.0,0.0,0.0,0.0,0.0,0.0,0.0,0.0,0.0,0.0,0.0,0.0,-4.9386,-4.9715,-5.0149,-4.9302,-4.8881,-4.8897,-4.8675,-4.8495,-4.8306,0.0,0.0,0.0,0.0,0.0,-4.7681,-4.6893,-4.6324,-4.5902,-4.504,-4.447,-4.4103,-4.3644,-4.3515,-4.3515,0.0,0.0,0.0,0.0,0.0,0.0,0.0,0.0,0.0,0.0,0.0,0.0,0.0,0.0,0.0,0.0,0.0,0.0,0.0,0.0,0.0,0.0,-2.4135,-2.4263,-2.4373,-2.4263,-2.4997,-2.6602,-2.684,-2.8218,-3.0601,-3.0368,-2.9764,-2.8745,-2.6499,-2.5423,-2.5308,0.0,-2.5308,-2.5308,-2.5308,0.0,0.0,0.0,0.0,0.0,0.0,0.0,0.0,-2.5269,-2.5308,-2.5308,-2.5308,0.0,0.0,0.0,0.0,0.0,-2.5615,-2.6967,-2.8179,-2.7794,-2.7895,-2.8049,-2.7934,-2.6755,-2.5692,-2.5692,-2.5692,-2.6077,-2.7332,-2.8717,-3.0377,-3.2506,0.0,0.0,0.0,0.0,0.0,0.0,0.0,0.0,0.0,0.0,0.0,0.0,0.0,0.0,0.0,0.0,0.0,0.0,-4.9664,-4.9692,-4.9692,-4.9561,-4.9356,-4.9075,-4.9011,-4.8813,-4.8495,-4.8292,0.0,0.0,0.0,0.0,-4.6856,-4.6049,-4.5333,-4.469,-4.4562,-4.4103,-4.3515,-4.3515,-4.3515,-4.3515,0.0,0.0,0.0,0.0,0.0,0.0,0.0,0.0,0.0,0.0,0.0,0.0,0.0,0.0,0.0,0.0,0.0,0.0,0.0,0.0,0.0,-2.3162,-2.3841,-2.453,-2.5191,-2.4548,-2.4997,-2.6602,-2.7959,-2.9315,-3.0638,-3.2135,-3.1471,-2.8977,-2.7187,-2.5981,-2.5308,-2.5308,-2.5308,-2.5308,0.0,0.0,0.0,0.0,0.0,0.0,0.0,0.0,0.0,-2.5077,-2.5308,-2.5308,-2.5308,0.0,0.0,0.0,0.0,0.0,-2.7101,-2.8736,-2.95,-2.7332,-2.7871,-2.8742,-2.8068,-2.7678,-2.7505,-2.7505,-2.7505,-2.8409,-3.1391,-3.2141,-3.3583,0.0,0.0,0.0,0.0,0.0,0.0,0.0,0.0,0.0,0.0,0.0,0.0,0.0,0.0,0.0,0.0,0.0,0.0,0.0,0.0,-5.0523,-5.0523,-4.984,-4.9631,-4.9924,-4.9561,-4.9371,-4.9276,-4.8255,-4.7791,0.0,0.0,0.0,-4.603,-4.5223,-4.4801,-4.4635,-4.3956,-4.3608,-4.3515,-4.3515,-4.3515,-4.3515,0.0,0.0,0.0,0.0,0.0,0.0,0.0,0.0,0.0,0.0,0.0,0.0,0.0,0.0,0.0,0.0,0.0,0.0,0.0,0.0,-2.2341,-2.3083,-2.3382,-2.3933,-2.4732,-2.4824,-2.5419,-2.6602,-2.7787,-2.9198,-3.0828,-3.0997,-2.9888,-2.7698,-2.6442,-2.5673,-2.5308,-2.5308,-2.5308,-2.5308,0.0,0.0,0.0,0.0,0.0,0.0,0.0,0.0,0.0,0.0,-2.4255,-2.4639,-2.4639,0.0,0.0,0.0,0.0,0.0,-2.6269,-2.7755,-2.8871,-2.8121,-2.9915,-3.1762,-3.1397,-3.0935,-3.0487,-3.0044,-2.9948,-3.0508,-3.2352,0.0,-3.6445,-4.0985,0.0,0.0,0.0,0.0,0.0,0.0,0.0,0.0,0.0,0.0,0.0,0.0,0.0,0.0,0.0,0.0,0.0,0.0,0.0,0.0,-4.9298,-4.8928,-4.896,-4.9394,-4.9214,-4.8778,-4.8122,-4.7571,-4.7327,0.0,0.0,-4.5727,-4.5458,-4.4644,-4.4234,-4.4011,-4.3626,-4.3515,-4.3515,-4.3515,-4.3515,-4.3515,0.0,0.0,0.0,0.0,0.0,0.0,0.0,0.0,0.0,0.0,0.0,0.0,0.0,0.0,0.0,0.0,0.0,0.0,0.0,-2.1637,-2.1906,-2.2882,-2.2791,-2.3364,-2.4722,-2.5172,-2.5888,-2.6888,-2.7753,-2.9057,-3.0734,-2.9615,-2.8203,-2.6563,-2.5904,-2.55,-2.5308,-2.5308,-2.5308,-2.5308,0.0,0.0,0.0,0.0,0.0,0.0,0.0,0.0,0.0,0.0,0.0,0.0,0.0,0.0,0.0,-2.5308,-2.5308,-2.5385,-2.5808,-2.689,-2.8145,-2.914,-3.1224,-3.3263,-3.4276,-3.366,-3.2949,-3.3141,-3.3006,-3.3037,-3.3571,-3.5859,0.0,-4.3028,0.0,0.0,0.0,0.0,0.0,0.0,0.0,0.0,0.0,0.0,0.0,0.0,0.0,0.0,0.0,0.0,0.0,0.0,0.0,0.0,-4.8105,-4.8105,-4.8288,-4.864,-4.864,-4.815,-4.7245,-4.6964,-4.6843,-4.6773,-4.58,-4.5198,-4.4876,-4.4169,-4.3742,-4.3515,-4.3515,-4.3515,-4.3515,-4.3515,-4.3515,-4.3515,0.0,0.0,0.0,0.0,0.0,0.0,0.0,0.0,0.0,0.0,0.0,0.0,0.0,0.0,0.0,0.0,0.0,0.0,0.0,-2.0034,-2.0608,-2.2016,-2.1969,-2.3318,-2.6374,-2.576,-2.6164,-2.7714,-2.8775,-2.9551,-3.0061,-2.9417,-2.8203,-2.6601,-2.6524,-2.6058,-2.5308,-2.5308,-2.5308,-2.5308,-2.5308,0.0,0.0,0.0,0.0,0.0,0.0,0.0,0.0,0.0,0.0,0.0,0.0,0.0,-2.5308,-2.5308,-2.5308,-2.5654,-2.7274,-2.7799,-2.8294,-2.9904,-2.9871,-3.0512,-3.45,-3.4122,-3.3776,-3.6892,-3.6911,-3.65,-3.7038,-3.8974,0.0,0.0,0.0,0.0,0.0,0.0,0.0,0.0,0.0,0.0,0.0,0.0,0.0,0.0,0.0,0.0,0.0,0.0,0.0,0.0,0.0,0.0,-4.8105,-4.8105,-4.8115,-4.8154,-4.8154,-4.8106,-4.7982,-4.6855,-4.6351,-4.626,-4.4791,-4.4106,-4.406,-4.3681,-4.3513,-4.3515,-4.3515,-4.3515,-4.3515,-4.3515,-4.3515,-4.3515,0.0,0.0,0.0,0.0,0.0,0.0,0.0,0.0,0.0,0.0,0.0,0.0,0.0,0.0,0.0,0.0,0.0,0.0,0.0,-1.9717,-2.0363,-2.1345,-2.1737,-2.2697,-2.4337,-2.5529,-2.6262,-2.6485,-2.7645,-2.804,-2.7703,-2.7595,-2.6928,-2.5788,-2.5788,-2.5615,-2.5308,-2.5308,-2.5308,-2.5308,-2.5308,-2.4485,0.0,0.0,0.0,0.0,0.0,0.0,0.0,0.0,-2.2432,-2.3259,-2.3004,-2.4019,-2.5192,-2.4697,-2.4548,-2.4812,-2.5967,-2.7063,-2.8294,-2.9981,-3.0558,-3.1698,-3.5404,-3.6969,-3.8142,-3.9988,-4.0096,-3.986,-3.9862,0.0,-4.1415,0.0,0.0,0.0,0.0,0.0,0.0,0.0,0.0,0.0,0.0,0.0,0.0,0.0,0.0,0.0,0.0,0.0,0.0,0.0,0.0,0.0,0.0,-4.6547,-4.6547,-4.6547,-4.7086,-4.7067,-4.6528,-4.6071,-4.586,-4.5822,-4.5254,-4.487,-4.4676,-4.4548,-4.4219,-4.3788,-4.358,-4.3515,-4.3515,-4.3515,-4.3515,-4.3515,0.0,0.0,0.0,0.0,0.0,0.0,0.0,0.0,0.0,0.0,0.0,0.0,0.0,0.0,0.0,0.0,0.0,0.0,-1.8981,-1.9384,-2.0048,-2.1014,-2.1428,-2.1954,-2.2663,-2.4828,-2.5856,-2.5698,-2.662,-2.6848,-2.6389,-2.6261,-2.5865,-2.5308,-2.5308,-2.5308,-2.5308,-2.5308,-2.5308,-2.5308,-2.5308,-2.4288,0.0,0.0,0.0,0.0,0.0,0.0,0.0,0.0,-2.1446,-2.237,-2.2331,-2.3524,-2.4812,-2.4259,-2.4471,-2.4952,-2.5231,-2.6563,-2.8294,-2.9981,-3.1442,-3.3372,-3.6757,-3.8661,-4.0335,-4.2547,-4.2488,-4.1951,-4.1611,-4.1378,0.0,0.0,0.0,0.0,0.0,0.0,0.0,0.0,0.0,0.0,0.0,0.0,0.0,0.0,0.0,0.0,0.0,0.0,0.0,0.0,0.0,0.0,0.0,-4.5594,-4.5594,-4.5614,-4.6201,-4.6182,-4.5594,-4.5594,-4.5594,-4.5586,-4.5495,-4.5312,-4.5085,-4.4996,-4.4638,-4.4146,-4.3788,-4.3662,-4.3646,-4.3548,-4.3515,-4.3515,0.0,0.0,0.0,0.0,0.0,0.0,0.0,0.0,0.0,0.0,0.0,0.0,0.0,0.0,0.0,0.0,0.0,0.0,-1.8915,-1.8867,-1.9512,-2.1105,-2.0921,-2.1157,-2.1953,-2.3611,-2.4867,-2.5688,-2.6026,-2.6319,-2.6563,-2.5692,-2.5288,-2.5308,-2.5308,-2.5308,-2.5288,-2.5288,-2.5288,-2.5288,-2.5288,-2.4288,-2.2797,0.0,0.0,0.0,0.0,0.0,0.0,0.0,-2.1485,-2.1793,-2.3509,-2.4072,-2.411,-2.4091,-2.5279,-2.639,-2.5538,-2.6582,-2.8313,-2.9981,-3.2333,-3.5129,-3.8553,-3.8661,-3.9488,-4.4556,-4.4011,-4.2517,-4.2169,-4.1831,0.0,0.0,0.0,0.0,0.0,0.0,0.0,0.0,0.0,0.0,0.0,0.0,0.0,0.0,0.0,0.0,0.0,0.0,0.0,0.0,0.0,0.0,0.0,-4.5594,-4.5594,-4.5594,-4.5594,-4.5594,-4.5594,-4.5594,-4.5594,-4.5577,-4.5243,-4.5096,-4.5074,-4.4732,-4.4593,-4.4553,-4.4161,-4.4016,-4.3971,-4.3629,-4.3515,-4.3496,0.0,0.0,0.0,0.0,0.0,0.0,0.0,0.0,0.0,0.0,0.0,0.0,0.0,0.0,0.0,0.0,0.0,0.0,-1.7218,-1.7729,-1.8477,-1.9473,-1.998,-2.0299,-2.0458,-2.1632,-2.3227,-2.5206,-2.4887,-2.4754,-2.4836,-2.4586,-2.4755,-2.5308,-2.5308,-2.4981,-2.4452,-2.4452,-2.4452,-2.4452,-2.4452,-2.3798,-2.2797,0.0,0.0,0.0,0.0,0.0,0.0,0.0,0.0,0.0,-2.1446,-2.2663,-2.3975,-2.3374,-2.3971,-2.4913,-2.5212,-2.6986,-2.9165,-3.0891,-3.4122,-3.7603,-4.0431,-4.1335,-4.2354,-4.5056,-4.4499,-4.3477,-4.3382,-4.3037,0.0,0.0,0.0,0.0,0.0,0.0,0.0,0.0,0.0,0.0,0.0,0.0,0.0,0.0,0.0,0.0,0.0,0.0,0.0,0.0,0.0,0.0,0.0,0.0,-4.5594,-4.5594,-4.5594,-4.5594,-4.5594,-4.5594,-4.5594,-4.5586,-4.5495,-4.5448,-4.5429,-4.5096,-4.4943,-4.4919,-4.4567,-4.4414,-4.4419,-4.4308,-4.4091,-4.3849,0.0,0.0,0.0,0.0,0.0,0.0,0.0,0.0,0.0,0.0,-1.5657,-1.5984,0.0,0.0,0.0,0.0,0.0,0.0,-1.6484,-1.6949,-1.7729,-1.8837,-1.9297,-1.9805,-2.0378,-2.0996,-2.2064,-2.3613,-2.3597,-2.3764,-2.411,-2.411,-2.4529,-2.5308,-2.5308,-2.4851,-2.411,-2.411,-2.411,-2.411,-2.411,-2.3586,-2.2797,0.0,0.0,0.0,0.0,0.0,0.0,0.0,0.0,0.0,-2.0827,-2.1831,-2.3028,-2.2855,-2.3894,-2.5279,-2.612,-2.8429,-3.1102,-3.3179,-3.6353,-3.9738,-4.2643,-4.372,-4.4374,-4.5383,-4.4776,-4.4125,-4.4348,-4.3897,0.0,0.0,0.0,0.0,0.0,0.0,0.0,0.0,0.0,0.0,0.0,0.0,0.0,0.0,0.0,0.0,0.0,0.0,0.0,0.0,0.0,0.0,0.0,0.0,0.0,-4.5594,-4.5594,-4.5594,-4.5594,-4.5594,-4.5594,-4.5594,-4.5594,-4.5594,-4.5577,-4.5371,-4.5302,-4.5282,-4.4931,-4.48,-4.4757,-4.4455,-4.4204,-4.3986,0.0,0.0,-1.5304,-1.539,0.0,0.0,0.0,0.0,0.0,-1.5224,-1.5204,-1.522,0.0,0.0,0.0,-1.5192,-1.5192,-1.5538,0.0,-1.6388,-1.7122,-1.8819,-1.8914,-1.9654,-2.1186,-2.1205,-2.1264,-2.1389,-2.2254,-2.3124,-2.3975,-2.3975,-2.4452,-2.5308,-2.5212,-2.4736,-2.3975,-2.3898,-2.386,-2.386,-2.386,-2.3394,-2.2682,-2.2682,0.0,0.0,0.0,0.0,0.0,0.0,0.0,0.0,-2.1154,-2.1446,-2.1658,-2.2447,-2.4428,-2.6582,-2.7525,-3.0179,-3.3295,-3.5923,-3.8623,-4.1477,-4.4748,-4.5479,-4.5498,-4.5575,-4.4979,-4.4582,-4.5067,0.0,0.0,0.0,0.0,0.0,0.0,0.0,0.0,0.0,0.0,0.0,0.0,0.0,0.0,0.0,0.0,0.0,0.0,0.0,0.0,0.0,0.0,0.0,0.0,0.0,0.0,0.0,-4.5594,-4.5594,-4.5594,-4.5594,-4.5594,-4.5594,-4.5594,-4.5594,-4.5594,-4.5594,-4.5594,-4.5568,-4.5253,-4.5159,-4.5055,-4.4395,-4.4132,-4.4061,0.0,0.0,-1.4609,-1.5273,0.0,0.0,0.0,0.0,-1.5348,-1.5295,-1.5279,-1.5258,-1.5217,-1.5192,0.0,-1.5192,-1.5192,-1.5288,-1.5462,-1.5481,-1.6234,-1.7911,-1.925,-2.016,-2.0506,-2.0525,-2.0533,-2.0558,-2.1389,-2.2235,-2.3086,-2.3086,-2.387,-2.5269,-2.4639,-2.3875,-2.3028,-2.235,-2.2062,-2.2062,-2.2062,-2.1947,-2.1773,-2.1773,-2.1158,0.0,0.0,0.0,0.0,0.0,0.0,0.0,-2.05,-2.0981,-2.1543,-2.1716,-2.3144,-2.4971,-2.6467,-2.8865,-3.1712,-3.4942,-3.8654,-4.2066,-4.4105,-4.4586,-4.4759,-4.546,-4.546,-4.5365,0.0,0.0,0.0,0.0,0.0,0.0,0.0,0.0,0.0,0.0,0.0,0.0,0.0,0.0,0.0,0.0,0.0,0.0,0.0,0.0,0.0,0.0,0.0,0.0,-4.5594,-4.5594,-4.5594,0.0,-4.5594,-4.5594,-4.5594,-4.5594,-4.5594,-4.5594,-4.5594,-4.5594,-4.5594,-4.5594,-4.5594,-4.5586,-4.5513,-4.5495,-4.5466,-4.5313,-4.5088,-4.4853,0.0,0.0,0.0,0.0,0.0,0.0,0.0,0.0,-1.5377,-1.5315,-1.53,-1.5275,-1.5201,-1.5192,0.0,0.0,-1.5192,-1.5192,-1.5192,-1.5192,-1.5945,-1.7622,-1.8969,-1.9677,-1.9669,-1.971,-1.9731,-1.9722,-2.0141,-2.1199,-2.2816,-2.322,-2.4082,-2.5269,-2.4452,-2.3374,-2.212,-2.1273,-2.0923,-2.0923,-2.0923,-2.0923,-2.0923,-2.0923,-2.0158,-1.9119,-1.9523,0.0,0.0,0.0,0.0,0.0,0.0,0.0,-2.1,-2.1389,-2.274,-2.4553,-2.664,-2.9352,-3.2622,-3.6834,-3.9854,-4.2143,-4.3431,-4.372,-4.3855,-4.4316,-4.5037,0.0,0.0,0.0,0.0,0.0,0.0,0.0,0.0,0.0,0.0,0.0,0.0,0.0,0.0,0.0,0.0,0.0,0.0,0.0,0.0,0.0,0.0,0.0,0.0,0.0,-4.5594,-4.5594,-4.5594,-4.5594,-4.5594,-4.5594,-4.5594,-4.5594,-4.5594,-4.5594,-4.5594,-4.5594,-4.5594,-4.5594,-4.5594,-4.5594,-4.5594,-4.5594,-4.5577,-4.5419,-4.5243,-4.5074,0.0,0.0,0.0,0.0,0.0,0.0,0.0,0.0,0.0,-1.5309,-1.5295,-1.5267,-1.5201,-1.5192,-1.5192,0.0,0.0,0.0,-1.5192,-1.5346,-1.6042,-1.743,-1.8318,-1.8776,-1.8785,-1.8841,-1.8941,-1.9096,-1.9109,-2.0457,-2.3072,-2.3646,-2.4405,-2.5283,-2.433,-2.3088,-2.1658,-2.0542,-2.0081,-2.0062,-1.9904,-1.9846,-1.9846,-1.9846,-1.8965,-1.7799,-1.8525,-1.8791,-1.8915,-1.9807,0.0,0.0,0.0,0.0,-2.0219,-2.0889,-2.2213,-2.3932,-2.6183,-2.9679,-3.3872,-3.8842,-4.0719,-4.1623,-4.2643,-4.2874,-4.2912,-4.3066,0.0,0.0,0.0,0.0,0.0,0.0,0.0,0.0,0.0,0.0,0.0,0.0,0.0,0.0,0.0,0.0,0.0,0.0,0.0,0.0,0.0,0.0,0.0,0.0,0.0,-4.5594,-4.5594,-4.5594,-4.5594,-4.5594,-4.5594,-4.5594,-4.5594,-4.5594,-4.5594,-4.5594,-4.5594,-4.5594,-4.5594,-4.5594,-4.5594,-4.5594,-4.5594,-4.5594,-4.5568,-4.5292,-4.5191,-4.5159,0.0,0.0,0.0,0.0,0.0,0.0,0.0,0.0,0.0,0.0,-1.5308,-1.5274,-1.521,-1.5192,-1.5192,-1.5192,-1.5253,-1.5263,-1.5195,0.0,0.0,-1.666,-1.7449,-1.7872,-1.7872,-1.7936,-1.8344,-1.9096,-1.9098,-2.0815,-2.4093,-2.3444,-2.395,-2.5313,-2.3753,-2.2894,-2.247,-2.0165,-1.9165,-1.9107,-1.8353,-1.8045,-1.8045,-1.8045,-1.7891,-1.7725,-1.7898,-1.7921,-1.8017,-1.894,-1.9214,0.0,0.0,0.0,0.0,-1.9368,-2.0085,-2.1023,-2.2062,-2.7005,-3.291,-3.7257,-3.8988,-4.0046,-4.1623,-4.1962,-4.22,0.0,0.0,0.0,0.0,0.0,0.0,0.0,0.0,0.0,0.0,0.0,0.0,0.0,0.0,0.0,0.0,0.0,0.0,0.0,0.0,0.0,0.0,0.0,-4.5594,-4.5594,-4.5594,0.0,-4.5594,-4.5594,-4.5594,-4.5594,-4.5594,-4.5594,-4.5594,-4.5594,-4.5594,-4.5594,-4.5594,-4.5594,-4.5594,-4.5594,-4.5594,-4.5594,-4.5594,-4.5594,-4.5586,-4.5559,-4.5522,-4.5522,0.0,0.0,0.0,0.0,0.0,0.0,0.0,0.0,0.0,0.0,0.0,-1.5324,-1.5261,-1.525,-1.525,-1.525,-1.5274,-1.5284,-1.526,-1.5603,0.0,-1.6487,-1.6835,-1.7031,-1.7026,-1.7081,-1.7322,-1.7699,-1.7734,-1.9765,-2.3617,-2.3245,-2.4425,-2.6773,-2.5107,-2.3799,-2.269,-2.0174,-1.8803,-1.8241,-1.7382,-1.7889,-1.9007,-1.7571,-1.7624,-1.8361,-1.7459,-1.7118,-1.7295,-1.8639,-1.909,-1.912,-1.9507,0.0,0.0,0.0,-1.8934,-2.0277,-2.3485,-2.7596,-3.1885,-3.5654,-3.7238,-3.8296,-4.0008,-4.0392,-4.0642,0.0,0.0,0.0,0.0,0.0,0.0,0.0,0.0,0.0,0.0,0.0,0.0,0.0,0.0,0.0,0.0,0.0,0.0,0.0,0.0,0.0,0.0,-4.4432,-4.4412,-4.4855,-4.4432,0.0,-4.4201,-4.4201,-4.4201,-4.4201,-4.4201,-4.4201,-4.4201,-4.4201,-4.471,-4.5594,-4.5594,-4.5594,-4.5594,-4.5594,-4.5306,-4.4874,-4.4874,-4.4605,-4.4201,-4.4201,-4.4201,-4.4201,0.0,0.0,0.0,0.0,0.0,0.0,0.0,0.0,0.0,0.0,0.0,-1.5367,-1.532,0.0,0.0,0.0,-1.5324,-1.5336,-1.5322,0.0,0.0,0.0,-1.6205,-1.6208,-1.6196,-1.6031,-1.6183,-1.6621,-1.6441,-1.8672,-2.3104,-2.3125,-2.4991,-2.8286,-2.6607,-2.489,-2.3117,-2.0806,-1.9432,-1.8716,-1.7858,-1.8656,-2.0218,-1.895,-1.916,-1.9891,-1.8445,-1.7774,-1.7746,-1.8783,-1.9139,-1.9136,-1.9138,0.0,0.0,0.0,0.0,-1.9116,-2.4017,-2.6867,-2.9346,-3.2962,-3.4808,-3.6199,-3.793,0.0,0.0,0.0,0.0,0.0,0.0,0.0,0.0,0.0,0.0,0.0,0.0,0.0,0.0,0.0,0.0,0.0,0.0,0.0,0.0,0.0,0.0,0.0,-4.3951,-4.3431,-4.3374,-4.397,-4.3412,-4.3104,-4.3104,-4.3104,-4.3104,-4.3104,-4.3104,-4.3104,-4.3104,-4.3104,-4.3778,-4.496,-4.496,-4.496,-4.496,-4.496,-4.4586,-4.3989,-4.3989,-4.3624,-4.3104,-4.3104,-4.3104,-4.3104,0.0,0.0,0.0,0.0,0.0,0.0,0.0,0.0,0.0,0.0,0.0,-1.5367,-1.532,-1.5296,-1.5296,-1.5296,-1.5361,-1.5392,-1.5391,0.0,0.0,0.0,-1.5369,0.0,-1.5368,-1.4618,-1.5041,-1.6683,-1.5877,-1.8082,-2.3102,-2.3162,-2.5394,-2.9249,-2.7579,-2.5863,-2.4114,-2.2335,-2.1542,-2.1424,-2.0615,-2.0363,-2.0734,-2.3026,-2.3437,-2.2696,-2.1837,-2.0992,-2.0174,0.0,-1.9197,-1.9193,-1.9188,-1.8628,-1.7801,0.0,0.0,0.0,-2.0705,-2.2504,-2.4202,-2.8396,-3.1275,-3.3545,0.0,0.0,0.0,0.0,0.0,0.0,0.0,0.0,0.0,0.0,0.0,0.0,0.0,0.0,0.0,0.0,0.0,0.0,0.0,0.0,0.0,0.0,0.0,0.0,-4.3162,-4.3124,-4.3124,-4.3162,-4.3124,-4.3104,-4.3104,-4.3104,-4.3104,-4.3104,-4.3104,-4.3104,-4.3104,-4.3104,-4.3143,-4.3239,-4.3239,-4.3239,-4.3239,-4.3239,-4.3201,-4.3162,-4.3162,-4.3143,-4.3104,-4.3104,-4.3104,-4.3104,0.0,0.0,0.0,0.0,0.0,0.0,0.0,0.0,0.0,0.0,0.0,0.0,0.0,-1.5364,-1.5364,-1.5364,-1.5387,0.0,0.0,0.0,0.0,0.0,-1.5335,-1.5336,-1.5297,-1.4518,-1.4409,-1.5022,-1.4725,-1.666,-2.066,-2.1269,-2.3201,-2.6215,-2.6734,-2.659,-2.5816,-2.3598,-2.2311,-2.1734,-2.1444,-2.229,-2.371,-2.3586,-2.4352,-2.5264,-2.3373,-2.2146,0.0,0.0,0.0,-1.9934,-1.9427,-1.8649,-1.7628,-1.6207,-1.6366,-1.7404,-1.9437,-2.1407,-2.3617,-2.6776,-2.9025,-3.1044,-3.3314,0.0,0.0,0.0,0.0,0.0,0.0,0.0,0.0,0.0,0.0,0.0,0.0,0.0,0.0,0.0,0.0,0.0,0.0,0.0,0.0,0.0,0.0,0.0,-4.2239,-4.1739,-4.1681,-4.2258,-4.172,-4.1439,-4.1439,-4.1439,-4.1439,-4.1439,-4.1439,-4.1439,-4.1439,-4.1439,-4.1439,-4.1439,-4.1439,-4.2066,-4.3104,-4.3104,-4.2777,-4.2277,-4.2277,-4.1912,-4.1439,-4.1439,-4.1439,-4.1439,0.0,0.0,0.0,-1.5391,0.0,-1.5391,-1.5391,-1.5391,-1.5391,-1.5391,0.0,0.0,0.0,0.0,-1.5391,-1.5391,-1.5391,-1.541,-1.5404,-1.513,0.0,0.0,0.0,-1.5086,-1.5328,-1.4255,-1.3827,-1.4094,-1.3827,-1.5312,-1.8414,-1.9316,-2.1249,-2.3982,-2.459,-2.5467,-2.6393,-2.4745,-2.3671,-2.312,-2.3433,-2.4538,-2.6044,-2.6417,-2.7258,-2.8075,-2.6718,0.0,0.0,0.0,0.0,0.0,-2.0527,-1.8939,-1.7215,-1.5756,-1.6352,-1.7605,-1.8116,-1.9905,-2.2243,-2.478,-2.6235,-2.7825,-3.0916,0.0,0.0,0.0,0.0,0.0,0.0,0.0,0.0,0.0,0.0,0.0,0.0,0.0,0.0,0.0,0.0,0.0,0.0,0.0,0.0,0.0,0.0,0.0,-4.1335,-4.0816,-4.0766,-4.1354,-4.0804,-4.0496,-4.0496,-4.0496,-4.0496,-4.0496,-4.0496,-4.0496,-4.0496,-4.0496,-4.0496,-4.0496,-4.0496,-4.117,-4.222,-4.222,-4.1893,-4.1354,-4.1354,-4.1008,-4.0496,-4.0496,-4.0496,-4.0496,-1.5391,-1.5391,-1.5391,-1.5391,-1.5391,-1.5391,-1.5391,-1.5391,-1.5391,-1.5391,0.0,0.0,0.0,0.0,0.0,-1.5449,-1.5449,-1.543,-1.5391,-1.4609,-1.4512,-1.5352,-1.459,-1.4531,-1.5371,-1.3789,-1.3301,-1.4062,-1.3281,-1.4136,-1.651,-1.7477,-1.9723,-2.2887,-2.1287,-2.2422,-2.5547,-2.5547,-2.5605,-2.5762,-2.6582,-2.6992,-2.7578,-3.1738,-3.2344,-3.1074,-3.1934,-3.0586,0.0,-2.7441,0.0,0.0,-2.2402,-1.9512,-1.6602,-1.5723,-1.611,-1.6782,0.0,0.0,0.0,0.0,0.0,0.0,0.0,0.0,0.0,0.0,0.0,0.0,0.0,0.0,0.0,0.0,0.0,0.0,0.0,0.0,0.0,0.0,0.0,0.0,0.0,0.0,0.0,0.0,0.0,-4.0458,-4.0439,-4.0439,-4.0439,-4.0458,-4.0458,-4.0477,-4.0496,-4.0496,-4.0496,-4.0496,-4.0496,-4.0496,-4.0496,-4.0496,-4.0496,-4.0496,-4.0496,-4.0496,-4.0496,-4.0496,-4.0496,-4.0496,-4.0496,-4.0496,-4.0496,-4.0496,-4.0496,-4.0496,-1.539,-1.5391,-1.5391,-1.5391,-1.5391,-1.5391,-1.5391,-1.5391,-1.5391,0.0,0.0,0.0,-1.5469,-1.5957,-1.6348,-1.6348,-1.6348,-1.6074,-1.5449,-1.5176,-1.5156,-1.5391,-1.5176,-1.5156,-1.5391,-1.4336,-1.3594,-1.3223,-1.3008,-1.3242,-1.3961,-1.5429,-1.7304,-1.9412,-1.959,-2.0547,-2.2012,-2.2012,-2.3437,-2.5664,-2.5273,-2.7012,-2.9941,-3.1133,0.0,0.0,0.0,-3.2226,-3.1074,0.0,-2.8769,-2.5664,0.0,-1.9863,-1.8418,-1.7539,-1.834,-1.9237,-1.7967,0.0,0.0,0.0,0.0,0.0,0.0,0.0,0.0,0.0,0.0,0.0,0.0,0.0,0.0,0.0,0.0,0.0,0.0,0.0,0.0,0.0,0.0,0.0,0.0,0.0,0.0,0.0,0.0,-3.9361,-3.8719,-3.8681,-3.8969,-3.9611,-3.9631,-3.9919,-4.0496,-4.0496,-4.0496,-4.0496,-4.0496,-4.0496,-4.0496,-4.0496,-4.0496,-4.0496,-4.0496,-4.0496,-4.0496,-4.0496,-4.0496,-4.0496,-4.0496,-4.0496,-4.0496,-4.0496,-4.0496,-4.0496,-1.5391,-1.5391,-1.5508,-1.5879,-1.5937,-1.6055,-1.6426,-1.6484,-1.6484,0.0,0.0,0.0,-1.65,-1.7221,-1.7455,-1.6714,-1.6679,-1.6328,-1.5469,-1.4746,-1.4668,-1.5371,-1.4727,-1.4687,-1.5371,-1.4551,-1.3711,-1.2891,-1.2891,-1.2715,-1.2383,-1.373,-1.5078,-1.6406,-1.6894,-1.7812,-1.8945,-1.8574,-2.082,-2.4727,-2.6035,-2.8086,0.0,-3.1934,-3.2871,0.0,0.0,0.0,-3.2754,-3.3125,-3.0703,0.0,0.0,-2.1367,-2.0215,-1.9336,-2.0059,-2.084,-1.9453,-2.0428,-2.1886,0.0,0.0,0.0,0.0,0.0,0.0,0.0,0.0,0.0,0.0,0.0,0.0,0.0,0.0,0.0,0.0,0.0,0.0,0.0,0.0,0.0,0.0,0.0,0.0,0.0,-3.8757,-3.8546,-3.8027,-3.8007,-3.8238,-3.8738,-3.8757,-3.8969,-3.9457,-3.9457,-3.9457,-3.9457,-3.9457,-3.9457,-3.9477,-3.9823,-3.9996,-4.0015,-4.0342,-4.0496,-4.0496,-4.0496,-4.0496,-4.0496,-4.0496,-4.0496,-4.0496,-4.0496,-4.0496,-4.0496,0.0,-1.5468,-1.578,-1.6542,-1.6757,-1.7128,-1.7987,-1.8046,-1.8046,0.0,-1.828,-1.8315,-1.845,-1.8989,-1.8753,-1.7292,-1.6965,-1.6503,-1.5721,-1.4101,-1.3827,-1.5312,-1.3964,-1.3886,-1.5371,-1.4648,-1.3848,-1.3027,-1.2949,-1.2441,-1.1621,-1.2383,-1.3145,-1.3828,-1.4023,-1.4961,-1.6387,-1.6094,-1.8672,-2.3301,-2.7285,-2.9277,0.0,0.0,-3.4199,-3.3887,-3.5449,-3.5,-3.3789,-3.4355,-3.2012,0.0,0.0,-2.373,-2.2383,-2.123,-2.1562,-2.2129,-2.1269,-2.166,-2.2636,-2.3984,0.0,0.0,-2.5578,-2.5149,0.0,0.0,0.0,0.0,0.0,0.0,0.0,0.0,0.0,0.0,0.0,0.0,0.0,0.0,0.0,0.0,0.0,0.0,0.0,-3.7853,-3.7777,-3.7719,-3.7719,-3.7719,-3.7757,-3.7853,-3.7853,-3.7892,-3.8007,-3.8007,-3.7995,-3.8017,-3.8017,-3.8031,-3.8064,-3.8835,-3.9189,-3.9227,-3.9959,-4.0268,-4.0268,-4.0364,-4.0438,-4.0496,-4.0496,-4.0496,-4.0496,-4.0496,-4.0496,-4.0496,-1.5311,-1.5874,-1.6414,-1.6591,-1.7152,-1.7888,-1.8741,-1.8296,-1.8335,-1.9747,-1.9922,-2.0467,-2.1848,-2.0893,-2.0305,-2.067,-1.8843,-1.7567,-1.7343,-1.5756,-1.4983,-1.5315,-1.506,-1.5068,-1.538,-1.5233,-1.4727,-1.3867,-1.3223,-1.2441,-1.1602,-1.1777,-1.1934,-1.2148,-1.3496,-1.4297,-1.4824,-1.8164,-2.0566,-2.2266,-2.3769,0.0,-3.1836,-3.3144,-3.4414,-3.5547,-3.5879,-3.5781,-3.5293,-3.4062,-3.3105,-3.1719,0.0,0.0,-2.6484,-2.3555,-2.3769,-2.4766,-2.3906,-2.4297,-2.4863,-2.4472,0.0,0.0,0.0,-2.3554,0.0,0.0,0.0,0.0,0.0,0.0,0.0,0.0,0.0,0.0,0.0,0.0,0.0,0.0,0.0,0.0,0.0,0.0,-3.6942,-3.6942,-3.6346,-3.5981,-3.5981,-3.5981,-3.6269,-3.6923,-3.6942,-3.7296,-3.7988,-3.8007,-3.802,-3.8077,-3.8077,-3.8133,-3.8248,-3.8418,-3.8496,-3.8496,-3.8651,-3.8729,-3.8787,-3.9495,-4.0066,-4.0496,-4.0496,-4.0496,-4.0496,-4.0496,-4.0496,-4.0496,-1.5293,-1.6007,-1.6741,-1.7172,-1.7907,-1.8895,-2.0195,-2.0022,-2.0217,-2.1532,-2.202,-2.2429,-2.2893,-2.2538,-2.1909,-2.1075,-1.9852,-1.8588,-1.7299,-1.602,-1.5307,-1.5296,-1.492,-1.4908,-1.5338,-1.538,-1.4954,-1.4048,-1.3687,-1.283,-1.1557,-1.2009,-1.2421,-1.2891,-1.418,-1.5214,-1.6147,-1.8359,-2.0292,-2.2145,-2.5605,0.0,-3.2383,-3.4062,-3.5234,-3.5996,-3.5996,-3.5996,-3.5664,-3.3493,-3.2772,0.0,0.0,-2.8572,-2.8535,0.0,-2.6348,-2.6719,-2.5391,-2.5684,-2.623,-2.5801,0.0,0.0,0.0,0.0,0.0,0.0,0.0,0.0,0.0,0.0,0.0,0.0,0.0,0.0,0.0,0.0,0.0,0.0,0.0,0.0,0.0,0.0,-3.5622,-3.6077,-3.5731,-3.55,-3.55,-3.55,-3.5673,-3.6096,-3.6126,-3.6362,-3.6806,-3.6845,-3.6876,-3.6899,-3.6899,-3.6949,-3.7016,-3.7444,-3.7654,-3.7689,-3.8113,-3.8307,-3.8327,-3.8778,-3.9121,-3.9474,-4.0295,-4.0559,-4.0496,-4.0496,-4.0496,-4.0439,-1.5271,-1.6116,-1.6986,-1.7538,-1.8563,-1.9801,-2.1223,-2.1439,-2.1806,-2.2829,-2.3753,-2.4154,-2.3678,-2.3906,-2.3474,-2.1902,-2.1058,-1.9813,-1.7926,-1.6525,-1.5833,-1.6006,-1.4882,-1.4732,-1.5765,-1.551,-1.493,-1.4006,-1.3904,-1.3033,-1.152,-1.2216,-1.3005,-1.3906,-1.5117,-1.6481,-1.7946,-1.8514,-2.0209,-2.2998,0.0,-3.0956,-3.1738,-3.4452,-3.5487,-3.5526,-3.5836,-3.5933,-3.5599,-3.3335,-3.2604,-3.2322,-3.0356,-3.0013,0.0,0.0,0.0,0.0,0.0,0.0,0.0,0.0,0.0,-2.668,0.0,0.0,0.0,-2.5942,0.0,0.0,0.0,0.0,0.0,0.0,0.0,0.0,0.0,0.0,0.0,0.0,0.0,0.0,0.0,0.0,-3.3935,-3.4931,-3.4725,-3.4745,-3.5239,-3.527,-3.5328,-3.5515,-3.5566,-3.5601,-3.5626,-3.5663,-3.5713,-3.5749,-3.5749,-3.5758,-3.5772,-3.6487,-3.6815,-3.6851,-3.7546,-3.7858,-3.7877,-3.8033,-3.8082,-3.821,-3.968,-4.0178,-4.0072,-4.0072,-4.0072,-3.9976,-1.5218,-1.6489,-1.7379,-1.6765,-1.8608,-2.0223,-2.0438,-2.0458,-2.1036,-2.2619,-2.4181,-2.5418,-2.6116,-2.4947,-2.4894,-2.6867,-2.3565,-2.1571,-2.2052,-1.9164,-1.7761,-1.8557,-1.6377,-1.5883,-1.7478,-1.6071,-1.4873,-1.3998,-1.3298,-1.2443,-1.1491,-1.1608,-1.2103,-1.3042,-1.5468,-1.7046,-1.8057,-2.0447,-2.2853,0.0,-2.8369,-2.9245,0.0,-3.2365,-3.3602,-3.3793,-3.5229,-3.5735,-3.5577,0.0,-3.427,-3.3897,0.0,-3.1672,-3.2344,0.0,0.0,0.0,0.0,0.0,0.0,0.0,-2.9238,0.0,0.0,0.0,-2.5156,-2.3808,0.0,0.0,0.0,0.0,0.0,0.0,0.0,0.0,0.0,0.0,0.0,0.0,0.0,0.0,0.0,0.0,0.0,-3.3175,-3.1902,-3.2052,-3.4325,-3.4391,-3.4731,-3.556,-3.56,-3.5626,-3.5689,-3.57,-3.5761,-3.5875,-3.5875,-3.5916,-3.5975,-3.6072,-3.6111,-3.6111,-3.6228,-3.6267,-3.6326,-3.7088,-3.7348,-3.7323,-3.8213,-3.8555,-3.8542,-3.8542,-3.8542,-3.8542,-1.5192,-1.6542,-1.7449,-1.6641,-1.8619,-2.0308,-2.0308,-2.1942,-2.3442,-2.4154,-2.5308,-2.639,-2.7255,-2.6274,-2.6183,-2.7761,0.0,-2.3447,0.0,0.0,-1.985,-1.9754,-1.8268,-1.7535,-1.7741,-1.6135,-1.4855,-1.3932,-1.2672,-1.1849,-1.1449,-1.1955,-1.3489,-1.5893,-1.7456,-1.9706,-2.2319,0.0,-2.3701,0.0,0.0,0.0,0.0,-3.3126,-3.4807,-3.4899,-3.5479,-3.5707,-3.5486,0.0,-3.3728,0.0,0.0,0.0,0.0,0.0,0.0,0.0,0.0,0.0,0.0,0.0,0.0,0.0,-2.6543,0.0,-2.5644,0.0,0.0,0.0,0.0,0.0,0.0,0.0,0.0,0.0,0.0,0.0,0.0,0.0,0.0,0.0,0.0,0.0,0.0,0.0,0.0,-3.1237,-3.2769,-3.3815,-3.4526,-3.4836,-3.5453,-3.5797,-3.5829,-3.5843,-3.5901,-3.5951,-3.5951,-3.5974,-3.5996,-3.5996,-3.5996,-3.5996,-3.5996,-3.5996,-3.6035,-3.6387,-3.6503,-3.6495,-3.6832,-3.7503,-3.8307,-3.8307,-3.8307,-3.823,-1.5558,-1.6542,-1.7199,-1.6603,-1.8407,-2.01,-2.0558,-2.3096,-2.4962,-2.4962,-2.5712,-2.6755,-2.8088,-2.7467,0.0,0.0,-2.7467,-2.5832,0.0,0.0,-2.2043,-2.1692,-2.0177,-1.9161,-1.8757,-1.6904,-1.5402,-1.4264,-1.2843,-1.2013,-1.1783,-1.2641,-1.4554,-1.7334,-1.8875,-2.1504,-2.4742,0.0,-2.4808,-2.6474,-2.7182,-2.8421,-3.0247,-3.3752,-3.5404,-3.5805,-3.5698,-3.5659,-3.5438,-3.3911,-3.346,0.0,-3.3164,0.0,0.0,0.0,0.0,0.0,-2.9307,0.0,0.0,0.0,0.0,0.0,0.0,0.0,0.0,0.0,0.0,0.0,0.0,0.0,0.0,0.0,0.0,0.0,0.0,0.0,0.0,0.0,0.0,0.0,0.0,0.0,0.0,0.0,0.0,0.0,-3.1388,-3.2714,-3.37,-3.4335,-3.5129,-3.5674,-3.5918,-3.5974,-3.5996,-3.5996,-3.5996,-3.5996,-3.5996,-3.5996,-3.5996,-3.5996,-3.5996,-3.5996,-3.5996,-3.5996,-3.5996,-3.5996,-3.5996,-3.6683,-3.7665,-3.7665,-3.7665,-3.7587,-1.6465,-1.6503,-1.6526,-1.6503,-1.7914,-1.9588,-2.1216,-2.299,-2.4149,-2.4149,0.0,0.0,0.0,0.0,0.0,0.0,0.0,-2.8953,-2.8896,0.0,-2.4356,-2.5115,-2.2,-2.0615,0.0,-1.8911,-1.6814,-1.5154,-1.4269,-1.3426,-1.2685,-1.3556,-1.4469,-1.5549,-1.8948,-2.1402,-2.3095,-2.481,-2.6853,-2.8989,-2.9086,-3.1192,-3.4202,0.0,-3.4143,-3.5605,-3.5522,0.0,0.0,-3.4481,-3.4208,0.0,0.0,0.0,0.0,0.0,0.0,0.0,0.0,0.0,0.0,-2.9021,0.0,0.0,0.0,0.0,-2.7754,0.0,0.0,0.0,0.0,0.0,-2.4082,-2.3242,0.0,0.0,0.0,0.0,0.0,0.0,0.0,0.0,0.0,0.0,0.0,0.0,0.0,0.0,-3.0429,-3.0682,-3.1877,-3.4406,-3.4586,-3.508,-3.5996,-3.5996,-3.5996,-3.5996,-3.5996,-3.5996,-3.5996,-3.5996,-3.5996,-3.5996,-3.5996,-3.5996,-3.5996,-3.5996,-3.5996,-3.5996,-3.5996,-3.6035,-3.6074,-3.6074,-3.6074,-3.6074,-1.7282,-1.7295,-1.7295,-1.7295,-1.8715,-2.0427,-2.21,-2.3793,-2.5313,0.0,0.0,0.0,0.0,-3.0891,-3.1314,0.0,0.0,-3.0814,-3.0814,-2.8184,0.0,0.0,0.0,-2.2932,0.0,-2.0716,-1.8581,-1.6849,-1.6022,-1.5195,-1.4368,-1.4662,-1.5865,-1.7896,-1.9657,-2.2294,0.0,0.0,0.0,0.0,0.0,-3.2588,-3.5123,0.0,0.0,-3.565,-3.5547,-3.5502,0.0,-3.5181,-3.4693,-3.4275,-3.4577,-3.4098,-3.3434,-3.3429,-3.3429,0.0,0.0,0.0,-3.3209,-3.0424,0.0,0.0,0.0,0.0,0.0,0.0,0.0,0.0,0.0,-2.4958,-2.4251,-2.4004,-2.3047,-2.2129,0.0,0.0,0.0,0.0,0.0,0.0,0.0,0.0,0.0,0.0,0.0,0.0,0.0,-2.9835,-3.1421,-3.2801,-3.4028,-3.5095,-3.5996,-3.5996,-3.5996,-3.5996,-3.5996,-3.5996,-3.5996,-3.5996,-3.5996,-3.5996,-3.5996,-3.5996,-3.5996,-3.5996,-3.5996,-3.5996,-3.5996,-3.5996,-3.5996,-3.5996,-3.5996,-3.5996,-1.8489,-1.8808,-1.8853,-1.8276,-1.9831,-2.1658,-2.3047,0.0,0.0,0.0,-2.8871,0.0,-3.266,0.0,-3.2814,0.0,-3.3391,-3.2333,-3.1737,-3.016,0.0,-2.9107,-2.703,0.0,0.0,0.0,-2.0792,-1.9042,-1.7949,-1.6949,-1.608,-1.5811,-1.6731,-1.8685,-1.987,-2.2411,-2.5844,-2.6765,-2.827,0.0,0.0,-3.3583,0.0,0.0,-3.5579,0.0,0.0,-3.5521,-3.5528,-3.5501,-3.5141,-3.4757,-3.5327,-3.4731,-3.3872,-3.4129,-3.4026,-3.3699,-3.3064,-3.3545,0.0,0.0,-3.0951,0.0,-2.7825,0.0,0.0,0.0,0.0,0.0,0.0,0.0,-2.4786,-2.4816,-2.3436,-2.2148,0.0,0.0,0.0,0.0,0.0,0.0,0.0,0.0,-2.3555,-2.4766,0.0,0.0,0.0,0.0,-3.0466,-3.1498,-3.3024,-3.4375,-3.5527,-3.5547,-3.5684,-3.5996,-3.5996,-3.5996,-3.5996,-3.5996,-3.5996,-3.5996,-3.5996,-3.5996,-3.5996,-3.5996,-3.5996,-3.5996,-3.5996,-3.5996,-3.5996,-3.5996,-3.5996,-3.5996,-2.0074,-2.0913,-2.1139,0.0,-2.1277,0.0,0.0,0.0,-2.7953,0.0,-2.9506,-3.1154,-3.2852,-3.3026,-3.3699,-3.5365,-3.4737,-3.3583,-3.1987,-3.1814,0.0,0.0,-2.9223,-2.8819,-2.8049,0.0,0.0,0.0,-1.9969,-1.8661,-1.7804,-1.7003,-1.708,-1.7946,-1.968,-2.1811,-2.4281,-2.6884,-2.9458,-3.191,-3.3551,-3.426,-3.4443,-3.522,0.0,-3.5579,-3.5522,-3.5534,-3.5599,-3.5522,-3.55,-3.55,-3.55,-3.55,-3.5346,-3.4507,-3.4853,-3.5135,-3.3487,-3.3622,-3.3885,-3.2317,0.0,0.0,0.0,0.0,-3.0237,0.0,0.0,0.0,0.0,0.0,0.0,-2.5618,-2.4287,-2.2676,0.0,0.0,0.0,0.0,0.0,0.0,0.0,-2.207,-2.2051,-2.5273,-2.3359,-2.3435,0.0,0.0,0.0,-3.0582,-3.1657,-3.2988,-3.4629,-3.4687,-3.5117,-3.5937,-3.5976,-3.5996,-3.5996,-3.5996,-3.5996,-3.5996,-3.5996,-3.5996,-3.5996,-3.5996,-3.5996,-3.5996,-3.5996,-3.5996,-3.5996,-3.5996,-3.5996,-3.5996,-2.105,-2.2297,-2.349,0.0,-2.374,-2.4048,0.0,0.0,0.0,0.0,-3.1621,-3.2929,-3.4635,-3.4827,-3.5,-3.5462,-3.5288,0.0,0.0,0.0,0.0,-3.2878,-3.1083,-2.9962,-2.975,-2.7255,0.0,-2.4102,0.0,-2.0355,-1.9397,-1.8682,-1.8488,-1.8775,-2.0465,-2.2296,-2.4272,-2.6839,-2.9732,-3.2699,-3.3763,-3.4591,0.0,0.0,-3.5508,-3.5522,-3.552,-3.5508,-3.5522,-3.5514,-3.55,-3.55,-3.55,-3.55,-3.5462,-3.5231,-3.5327,-3.5404,-3.4942,-3.5,-3.4917,-3.3859,-3.3094,-3.2291,0.0,0.0,0.0,0.0,0.0,0.0,0.0,0.0,0.0,-2.578,-2.474,-2.3711,0.0,0.0,0.0,0.0,0.0,0.0,-2.0762,-2.1777,-2.2637,-2.2852,-2.3418,0.0,0.0,0.0,0.0,-2.9822,-3.1386,-3.2695,-3.3711,-3.4375,-3.4805,-3.5039,-3.5684,-3.5996,-3.5996,-3.5996,-3.5996,-3.5996,-3.5996,-3.5996,-3.5996,-3.5996,-3.5996,-3.5996,-3.5996,-3.5996,-3.5996,-3.5996,-3.5996,-3.5996,-2.2835,0.0,0.0,-2.6428,0.0,0.0,-2.6932,0.0,0.0,-3.1404,-3.2737,0.0,-3.4814,-3.5596,-3.5885,-3.5538,-3.5717,0.0,-3.4266,0.0,0.0,-3.3287,-3.2395,-3.1703,-3.1339,-2.8848,0.0,-2.5141,0.0,-2.0747,-1.9543,-1.8793,-1.8423,-1.8519,-2.0577,-2.2254,-2.3759,-2.7448,-3.0506,-3.2987,-3.3859,0.0,0.0,-3.55,-3.55,-3.55,-3.55,-3.55,-3.55,-3.55,-3.55,-3.55,-3.55,-3.55,-3.55,-3.55,-3.55,-3.55,-3.55,-3.55,-3.5385,-3.4891,-3.441,-3.3718,-3.2506,-3.2564,-3.264,0.0,0.0,0.0,0.0,0.0,0.0,-2.5353,-2.4364,-2.3669,0.0,0.0,0.0,0.0,0.0,0.0,0.0,-2.0977,-2.1855,-2.1367,-2.2559,0.0,0.0,0.0,0.0,0.0,-3.0351,-3.1641,-3.2851,-3.3359,-3.3789,-3.4141,-3.4629,-3.5059,-3.543,-3.543,-3.5644,-3.5996,-3.5996,-3.5996,-3.5996,-3.5996,-3.5996,-3.5996,-3.5996,-3.5996,-3.5996,-3.5996,-3.5996,-3.5996,-2.4932,0.0,0.0,0.0,0.0,0.0,0.0,-2.9518,0.0,-3.1833,0.0,-3.4613,-3.4585,-3.5912,-3.6507,-3.5767,0.0,-3.5415,-3.3094,-3.4141,-3.4127,-3.2505,-3.3399,-3.3511,-3.2638,-3.0175,0.0,0.0,-2.2626,-2.0418,-1.8928,-1.8089,-1.7699,-1.7815,-2.0369,-2.2235,0.0,-2.8423,-3.1365,-3.2987,-3.3968,-3.4814,-3.55,-3.55,-3.55,-3.55,-3.55,-3.55,-3.55,-3.55,-3.55,-3.55,-3.55,-3.55,-3.55,-3.55,-3.55,-3.55,-3.55,-3.55,-3.55,-3.55,-3.55,-3.5096,-3.3583,-3.3237,-3.3237,-3.3237,-3.2077,0.0,0.0,0.0,0.0,-2.4982,0.0,0.0,0.0,0.0,0.0,0.0,0.0,0.0,0.0,0.0,-2.0723,-2.0605,-2.1309,0.0,0.0,0.0,0.0,0.0,-2.9141,0.0,-3.2012,0.0,-3.2559,-3.3242,-3.334,-3.3789,-3.4531,-3.4648,-3.5097,-3.582,-3.5957,-3.5996,-3.5995,-3.5996,-3.5996,-3.5996,-3.5996,-3.5996,-3.5996,-3.5996,-3.5996,-3.5996,0.0,0.0,0.0,0.0,0.0,-3.0977,-3.242,-3.2572,-3.2892,-3.3951,-3.574,-3.6833,-3.662,-3.7053,-3.7214,-3.6856,-3.6906,0.0,0.0,0.0,0.0,-3.4288,-3.4432,-3.413,-3.3251,-3.0769,-2.852,0.0,-2.2975,-2.0308,-1.8575,-1.7987,-1.7699,-1.7815,-2.0369,-2.3543,-2.7164,-2.9423,0.0,-3.3045,-3.4635,-3.5365,-3.55,-3.55,-3.55,-3.55,-3.55,-3.55,-3.55,-3.55,-3.55,-3.55,-3.55,-3.55,-3.55,-3.55,-3.55,-3.55,-3.55,-3.55,-3.55,-3.55,-3.55,-3.5423,-3.5115,-3.5038,-3.5038,-3.5038,-3.4808,-3.4096,-3.2449,0.0,0.0,0.0,0.0,0.0,0.0,0.0,0.0,0.0,0.0,0.0,0.0,0.0,0.0,0.0,0.0,0.0,0.0,0.0,0.0,0.0,0.0,0.0,0.0,0.0,0.0,-3.2422,-3.3039,-3.343,-3.3652,-3.4308,-3.4707,-3.4899,-3.5662,-3.5973,-3.5916,-3.5975,-3.5996,-3.5996,-3.5996,-3.5996,-3.5996,-3.5996,-3.5996,-3.5996,0.0,0.0,0.0,0.0,0.0,0.0,0.0,-3.5031,0.0,-3.5249,-3.6039,-3.6562,-3.6432,-3.7316,-3.7688,-3.7148,-3.735,-3.7166,-3.6379,-3.5757,-3.5262,-3.4871,-3.4588,0.0,-3.3211,-3.1162,-2.912,-2.7068,-2.3371,-2.0784,-1.9255,-1.86,-1.8302,-1.8507,-2.1359,-2.4467,0.0,0.0,0.0,-3.2656,-3.3898,-3.4679,-3.5088,-3.5088,-3.5088,-3.5088,-3.5088,-3.5088,-3.5122,-3.5417,-3.55,-3.55,-3.55,-3.55,-3.55,-3.55,-3.55,-3.55,-3.55,-3.55,-3.55,-3.55,-3.55,-3.55,-3.55,-3.5154,-3.4834,-3.4834,-3.4468,-3.348,-3.1238,-2.925,0.0,0.0,0.0,0.0,0.0,0.0,0.0,0.0,0.0,0.0,0.0,0.0,0.0,0.0,0.0,0.0,0.0,0.0,0.0,0.0,0.0,0.0,0.0,0.0,0.0,-3.1438,-3.1757,-3.2157,-3.2645,-3.3481,-3.4128,-3.4594,-3.5461,-3.5828,-3.5802,-3.5832,-3.5843,-3.5843,-3.5843,-3.5843,-3.5843,-3.5843,-3.5843,-3.5869,0.0,-3.1941,0.0,0.0,-3.4081,0.0,-3.5495,-3.6827,-3.7368,-3.629,-3.6362,-3.6486,-3.6417,-3.7643,-3.8193,-3.7497,-3.7839,-3.7732,-3.6925,-3.6021,-3.5463,-3.5279,-3.4683,-3.4068,-3.345,-3.1845,-2.9888,0.0,0.0,-2.1906,-2.0371,-1.9427,-1.9326,-2.0062,0.0,0.0,0.0,0.0,-3.1035,-3.2524,-3.3354,-3.4089,-3.4694,-3.4694,-3.4694,-3.4694,-3.4694,-3.4694,-3.4754,-3.519,-3.532,-3.532,-3.532,-3.532,-3.532,-3.532,-3.532,-3.532,-3.532,-3.5369,-3.5405,-3.5405,-3.5453,-3.5493,-3.5432,-3.474,-3.4107,-3.4045,-3.3207,-3.1976,-3.0262,-2.9032,0.0,0.0,0.0,0.0,0.0,0.0,0.0,0.0,0.0,0.0,0.0,0.0,0.0,0.0,0.0,0.0,0.0,0.0,0.0,0.0,0.0,0.0,-2.9569,0.0,-3.0686,0.0,-3.0625,-3.0941,-3.1643,-3.2519,-3.3365,-3.4224,-3.5077,-3.5532,-3.5707,-3.5707,-3.5707,-3.5707,-3.5707,-3.5707,-3.5707,-3.5707,-3.5707,-3.5726,0.0,0.0,0.0,0.0,0.0,0.0,0.0,-3.7566,-3.8297,-3.7452,-3.8206,-3.8701,-3.8457,-3.8799,-3.8906,-3.8571,-3.86,-3.829,-3.7482,-3.7323,-3.6942,-3.6211,-3.5363,-3.4881,-3.4807,-3.3241,-3.125,0.0,0.0,-2.404,-2.1677,-2.0275,-2.0822,-2.3076,0.0,0.0,0.0,-3.1167,-3.242,-3.3363,-3.4231,-3.4637,-3.4694,-3.4694,-3.4694,-3.4694,-3.4694,-3.4694,-3.4704,-3.4754,-3.4764,-3.4764,-3.4764,-3.4764,-3.4764,-3.4764,-3.4764,-3.4764,-3.4764,-3.4954,-3.513,-3.513,-3.5312,-3.5439,-3.5198,-3.4467,-3.3759,-3.3524,-3.2248,-3.0887,-2.9918,-2.9616,-2.9085,0.0,0.0,0.0,0.0,0.0,0.0,0.0,0.0,0.0,0.0,0.0,0.0,0.0,0.0,0.0,0.0,0.0,0.0,0.0,0.0,-2.863,-2.9495,-3.0243,0.0,-3.0695,-3.0571,-3.0587,-3.0758,-3.1561,-3.2365,-3.32,-3.4174,-3.5029,-3.5707,-3.5707,-3.5707,-3.5707,-3.5707,-3.5707,-3.5707,-3.5707,-3.5707,-3.5707,0.0,0.0,0.0,0.0,0.0,0.0,0.0,-3.8285,-3.8579,-3.8267,-3.8586,-3.8815,-3.8704,-3.8788,-3.8833,-3.8723,-3.8707,-3.856,-3.823,-3.7768,-3.7364,-3.7033,-3.572,-3.5004,-3.5004,-3.3426,-3.1885,0.0,0.0,0.0,0.0,-2.3249,0.0,0.0,0.0,-2.9142,-3.0068,-3.17,-3.2602,-3.2985,-3.3844,-3.416,-3.416,-3.416,-3.416,-3.416,-3.416,-3.416,-3.416,-3.416,-3.4405,-3.4694,-3.4694,-3.4694,-3.4694,-3.4694,-3.4694,-3.4694,-3.4694,-3.4774,-3.4908,-3.507,-3.507,-3.5025,-3.5088,-3.3925,-3.2804,-3.2694,-3.1364,-3.0084,-2.9608,-2.9184,-2.8868,0.0,0.0,0.0,0.0,0.0,0.0,0.0,0.0,-2.3886,0.0,0.0,0.0,0.0,0.0,-1.8158,-2.0911,0.0,0.0,-2.5241,0.0,-2.831,-2.8665,-2.9911,-3.0547,-3.0581,-3.0472,-3.0447,-3.0516,-3.136,-3.2183,-3.2981,-3.3923,-3.4496,-3.4839,-3.5356,-3.5582,-3.5582,-3.5582,-3.5582,-3.5582,-3.5582,-3.5582,-3.5582,-3.6611,0.0,-3.6193,0.0,-3.7367,-3.7386,-3.8524,-3.8707,-3.8707,-3.8707,-3.8707,-3.8707,-3.8707,-3.8707,-3.8707,-3.8707,-3.8707,-3.8707,-3.8707,-3.8175,-3.786,-3.786,-3.6486,0.0,-3.5738,-3.4142,-3.2913,-3.2113,-2.9928,0.0,0.0,-2.6402,0.0,0.0,-2.9872,-3.0817,-3.0999,-3.2375,-3.2949,-3.2999,-3.3568,-3.3807,-3.3825,-3.4064,-3.4156,-3.4192,-3.4449,-3.4376,-3.4192,-3.4449,-3.4482,-3.445,-3.445,-3.445,-3.445,-3.445,-3.445,-3.445,-3.445,-3.4486,-3.4603,-3.4784,-3.4774,-3.4724,-3.4813,-3.3402,-3.1938,-3.137,-3.0329,-2.9446,-2.932,-2.8901,-2.8671,0.0,0.0,0.0,0.0,0.0,0.0,0.0,-2.4543,-2.4287,-2.4083,0.0,0.0,0.0,0.0,-1.8058,-2.1074,0.0,0.0,0.0,0.0,0.0,0.0,0.0,-3.0482,-3.0498,-3.0439,-3.0404,-3.0423,-3.1288,-3.2141,-3.2949,-3.3821,-3.4359,-3.4622,-3.525,-3.55,-3.55,-3.55,-3.55,-3.55,-3.55,-3.55,-3.55,-3.7327,-3.7474,-3.7731,-3.8542,-3.8689,-3.8689,-3.8707,-3.8707,-3.8707,-3.8707,-3.8707,-3.8707,-3.8707,-3.8707,-3.8707,-3.8707,-3.8707,-3.8707,-3.8707,-3.8689,-3.8689,0.0,0.0,-3.7474,-3.7474,-3.5844,-3.4582,-3.377,0.0,0.0,-3.0136,-2.9329,-2.9384,-3.0191,-3.1029,-3.1825,-3.2619,-3.344,-3.3788,-3.3788,-3.3807,-3.3807,-3.3899,-3.4674,-3.4986,-3.5096,-3.5954,-3.5734,-3.5114,-3.5973,-3.5165,-3.3802,-3.3802,-3.3802,-3.3802,-3.3802,-3.3802,-3.3802,-3.3802,-3.3993,-3.42,-3.42,-3.4464,-3.4603,-3.43,-3.2956,-3.1288,-2.9416,-2.9017,-2.9017,-2.9005,-2.8998,-2.8802,-2.8216,0.0,0.0,0.0,0.0,0.0,0.0,-2.3621,-2.3264,-2.4383,0.0,0.0,0.0,0.0,0.0,0.0,0.0,0.0,-2.6579,-2.7543,0.0,-2.919,-2.9981,-3.0425,-3.0498,-3.0439,-3.0404,-3.0423,-3.1288,-3.2141,-3.2949,-3.3821,-3.468,-3.5481,-3.55,-3.55,-3.55,-3.55,-3.55,-3.55,-3.55,-3.55,-3.55,-3.9698,-3.9515,-3.9237,-3.946,-3.9515,-3.9331,-3.8781,-3.8707,-3.8707,-3.8707,-3.8707,-3.8707,-3.8707,-3.8707,-3.8707,0.0,-3.8707,-3.8707,0.0,-3.8707,-3.8707,-3.8707,-3.7933,-3.7492,-3.7492,-3.6431,-3.5752,-3.5495,0.0,0.0,0.0,-3.1317,-3.1592,-3.1904,-3.3243,-3.3683,-3.3513,-3.4908,-3.5165,-3.4674,-3.5275,-3.5495,-3.5532,-3.5789,-3.5899,-3.5917,-3.6193,-3.6119,-3.5936,-3.6211,-3.5954,-3.5495,-3.5495,-3.4724,-3.3807,-3.3807,-3.3807,-3.3807,-3.3807,-3.385,-3.3974,-3.414,-3.4153,-3.4111,-3.4183,-3.2819,-3.1199,-3.005,-2.9372,-2.9005,-2.9005,-2.9005,-2.8936,-2.8751,0.0,0.0,0.0,0.0,0.0,0.0,0.0,-2.426,0.0,-2.2607,0.0,0.0,0.0,0.0,0.0,0.0,0.0,0.0,-2.7162,0.0,-2.9119,-2.999,-3.0408,-3.0439,-3.0408,-3.0404,-3.0404,-3.0692,-3.1269,-3.2122,-3.2968,-3.3814,-3.4661,-3.525,-3.55,-3.55,-3.55,-3.55,-3.55,-3.55,-3.55,-3.55,-4.0893,-4.0708,-4.0359,-4.0359,-4.0359,-4.0084,-3.9276,-3.9423,-3.9496,-3.9184,-3.9148,-3.9148,-3.9148,-3.8891,0.0,-3.8707,-3.8707,0.0,-3.8707,-3.8707,-3.8707,-3.8707,-3.8212,-3.7936,-3.7936,0.0,0.0,-3.6758,-3.5404,-3.4211,-3.3251,-3.3752,-3.399,-3.4027,-3.5041,-3.522,-3.4798,-3.5862,-3.5991,-3.5536,-3.6083,-3.6303,-3.6321,-3.6648,-3.6758,-3.678,-3.7092,-3.7,-3.6813,-3.7092,-3.6798,-3.634,-3.6666,-3.5605,-3.4252,-3.4252,-3.4045,-3.3807,-3.3807,-3.3807,-3.3842,-3.4006,-3.391,-3.375,-3.3636,-3.2465,-3.1176,-3.0375,-2.9555,-2.9005,-2.9005,-2.9005,-2.8895,-2.8601,0.0,-2.7071,0.0,0.0,0.0,0.0,0.0,0.0,0.0,-2.4093,0.0,0.0,0.0,0.0,0.0,0.0,0.0,-2.6118,-2.7594,0.0,-2.9583,-3.0135,-3.0404,-3.0404,-3.0404,-3.0404,-3.0404,-3.0404,-3.0885,-3.1737,-3.2545,-3.3391,-3.4263,-3.5135,-3.55,-3.55,-3.55,-3.55,-3.55,-3.55,-3.55,-3.55,-4.1242,-4.1189,0.0,0.0,-4.1152,0.0,-4.0102,-4.0616,-4.082,-4.0084,-3.9974,-3.9974,-3.9974,-3.9313,-3.8872,-3.8872,0.0,0.0,0.0,-3.8707,-3.8707,-3.8707,-3.8707,0.0,-3.8707,-3.797,-3.7566,-3.7492,-3.6758,-3.634,-3.6303,-3.6303,-3.6303,-3.6303,-3.6358,-3.634,-3.6303,-3.6413,-3.6431,-3.6376,-3.6431,-3.6468,-3.6541,-3.7309,-3.7584,-3.7676,-3.8432,-3.8212,-3.7694,-3.845,-3.7698,-3.6597,-3.7345,-3.6468,-3.5151,-3.5041,-3.4417,-3.3807,-3.3807,-3.3807,-3.3807,-3.3807,-3.3807,-3.3605,-3.2839,-3.2063,-3.1268,-3.0522,-2.9684,-2.9078,-2.9078,-2.9042,-2.873,-2.7934,-2.7126,-2.6319,-2.5523,0.0,0.0,0.0,0.0,0.0,0.0,-2.594,-2.6088,0.0,0.0,0.0,0.0,0.0,0.0,-2.7522,-2.8522,-2.9477,-3.0329,-3.0349,-3.0349,-3.0349,-3.0349,-3.0349,-3.0349,-3.0406,-3.0873,-3.17,-3.2487,-3.3346,-3.4243,-3.5044,-3.5435,-3.55,-3.55,-3.55,-3.55,-3.55,-3.55,-3.55,0.0,0.0,-4.1469,-4.1944,-4.163,-4.1197,-4.0863,-4.0967,-4.1022,-4.0838,-4.0836,-4.0836,-4.0836,-4.0653,-4.0526,-4.0526,-3.9407,-3.8707,-3.8707,-3.8707,-3.8707,-3.8707,-3.8707,-3.8707,-3.8707,-3.8505,-3.812,-3.7492,-3.7309,-3.6905,-3.6303,-3.6303,-3.6303,-3.6321,-3.6942,-3.6868,-3.6376,-3.7606,-3.7771,-3.7272,-3.7881,-3.8138,-3.8157,-3.834,-3.8414,-3.8432,-3.8634,-3.8579,-3.845,-3.8634,-3.845,-3.8175,-3.8358,-3.7716,-3.6652,-3.5371,-3.4417,-3.3807,-3.3807,-3.3807,-3.3807,-3.3807,-3.3807,-3.3752,-3.3568,-3.2889,-3.2265,-3.2069,-3.0895,-2.9922,-2.9922,-2.9409,-2.873,-2.7934,-2.7126,-2.6362,-2.5727,0.0,0.0,0.0,-2.5645,-2.5891,-2.6082,-2.5877,-2.5591,0.0,0.0,0.0,0.0,0.0,-2.7332,-2.7293,-2.8116,-2.8984,-2.9864,-2.9864,-2.9864,-2.9864,-2.9864,-2.9864,-2.9883,-3.0492,-3.0926,-3.1216,-3.2024,-3.295,-3.3911,-3.4121,-3.4721,-3.55,-3.55,-3.55,-3.55,-3.55,-3.55,-3.55,-4.2553,-4.2124,-4.1701,-4.2008,-4.1817,-4.1413,-4.0942,-4.1178,-4.1287,-4.0925,-4.0871,-4.0871,-4.0871,-4.0546,-4.0312,-4.0312,-3.9987,-3.9643,-3.9276,-3.9239,-3.9074,-3.8726,-3.8707,-3.8707,-3.8707,-3.8707,-3.8487,-3.8046,-3.8046,-3.7826,-3.7404,-3.7404,-3.7404,-3.7422,-3.7845,-3.7808,-3.7441,-3.834,-3.845,-3.8098,-3.8524,-3.8707,-3.8707,-3.8707,-3.8707,-3.8707,-3.8707,-3.8707,-3.8707,-3.8707,-3.8707,-3.8707,-3.8707,-3.8138,-3.7327,-3.6413,-3.5293,-3.427,-3.3899,-3.3807,-3.3807,-3.3807,-3.3807,-3.3807,-3.3807,-3.3183,-3.2601,-3.2601,-3.1317,-3.021,-3.021,-2.9537,-2.862,-2.7438,-2.6888,-2.6232,-2.5153,-2.5031,0.0,-2.5523,-2.6284,-2.6756,-2.6615,-2.6869,-2.6741,-2.5988,0.0,0.0,-2.5999,-2.7569,-2.8236,-2.7629,-2.8522,-2.9225,-2.9705,-2.9705,-2.9705,-2.9705,-2.9705,-2.9705,-2.9705,-3.0149,-3.0365,-3.0458,-3.1298,-3.1983,-3.2558,-3.2919,-3.3652,-3.4536,-3.4536,-3.4776,-3.513,-3.513,-3.513,-3.513,-4.181,-4.1746,-4.1686,-4.1771,-4.1746,-4.1492,-4.0863,-4.1365,-4.1541,-4.0884,-4.0774,-4.0774,-4.0774,-4.0173,-3.9746,-3.9746,-4.0654,-4.0801,-3.9841,-3.996,-3.9662,-3.8744,-3.8817,-3.8817,-3.8707,-3.8707,-3.8707,-3.8707,-3.8707,-3.8707,-3.8707,-3.8707,-3.8707,-3.8707,-3.8707,-3.8707,-3.8707,-3.8707,-3.8707,-3.8707,-3.8707,-3.8707,-3.8707,-3.8707,-3.8707,-3.8707,-3.8707,-3.8707,-3.8707,-3.8707,-3.8707,-3.8707,-3.8707,-3.823,-3.7658,-3.7529,-3.6486,-3.5169,-3.4247,-3.3899,-3.3807,-3.3807,-3.3807,-3.3807,-3.3807,-3.3275,-3.2784,-3.2784,-3.1604,-3.054,-3.0393,-2.9721,-2.8601,-2.6877,-2.6704,-2.6182,-2.4486,0.0,0.0,-2.5638,-2.7049,-2.7773,-2.7027,-2.8088,-2.829,-2.706,-2.8124,0.0,0.0,-2.8253,-2.878,-2.8254,-2.912,-2.9598,-2.9598,-2.9598,-2.9598,-2.9598,-2.9598,-2.9598,-2.9598,-2.9729,-2.971,-2.9635,-3.05,-3.0894,-3.0988,-3.1685,-3.2543,-3.3393,-3.3393,-3.3921,-3.4694,-3.4694,-3.4694,-3.4694,-4.181,-4.1402,-4.1201,-4.1707,-4.1437,-4.1223,-4.1566,-4.1722,-4.1775,-4.1633,-4.1595,-4.1595,-4.1595,-4.1488,-4.1418,-4.1418,-4.1603,-4.0957,-3.9246,-4.0239,-4.0251,-3.8762,-3.935,-3.9405,-3.8707,-3.8707,-3.8707,-3.8707,-3.8707,-3.8707,-3.8707,-3.8707,-3.8707,-3.8707,-3.8707,-3.8707,-3.8707,-3.8707,-3.8707,-3.8707,-3.8707,-3.8707,-3.8707,-3.8707,-3.8707,-3.8707,-3.8707,-3.8707,-3.8707,-3.8707,-3.8707,-3.8707,-3.8707,-3.8615,-3.8377,-3.7694,-3.7327,-3.678,-3.5224,-3.4307,-3.3807,-3.3807,-3.3807,-3.3807,-3.3807,-3.3697,-3.3605,-3.3605,-3.2871,-3.2027,-3.1329,-3.0558,-2.9262,-2.6969,-2.7163,-2.688,0.0,0.0,-2.6505,-2.6646,-2.7368,-2.8051,-2.8583,-2.8246,-2.8172,-2.8601,-2.8227,-2.8172,-2.8601,-2.8858,-2.8955,-2.8853,-2.9027,-2.9104,-2.9104,-2.9104,-2.9104,-2.9104,-2.9104,-2.9104,-2.9123,-2.9805,-2.975,-2.9141,-2.9964,-3.0446,-3.0671,-3.0812,-3.186,-3.3393,-3.3393,-3.3921,-3.4694,-3.4694,-3.4694,-3.4694,-4.0868,-4.0648,-4.057,-4.0838,-4.0666,-4.0587,-4.0861,-4.0868,-4.0868,-4.0868,-4.0868,-4.0868,-4.0868,-4.0868,-4.0868,-4.0868,-4.115,-4.0753,-3.945,-4.0294,-4.0309,-3.9121,-3.9427,-3.9589,-3.9506,-3.9406,-3.935,-3.935,-3.8909,-3.8707,-3.8707,-3.8707,-3.8707,-3.8707,-3.8707,-3.8546,-3.8267,-3.8267,-3.8267,-3.8267,-3.8267,-3.8449,-3.8707,-3.8707,-3.853,-3.8267,-3.8267,-3.8267,-3.8267,-3.8267,-3.8465,-3.8707,-3.8707,-3.8707,-3.8634,-3.8248,-3.7533,-3.6578,-3.5334,-3.4729,-3.4344,-3.3917,-3.3807,-3.3807,-3.3807,-3.3807,-3.3807,-3.3807,-3.3151,-3.2491,-3.2118,-3.1035,-2.9843,-2.8723,-2.8117,0.0,0.0,-2.6833,-2.7279,-2.7358,-2.8,-2.8583,-2.8968,-2.8656,-2.8601,-2.8968,-2.8656,-2.8601,-2.8987,-2.9005,-2.9005,-2.9005,-2.9005,-2.9005,-2.9005,-2.9005,-2.9005,-2.9005,-2.9005,-2.9005,-2.9005,-2.9372,-2.9354,-2.9023,-2.939,-2.9612,-2.9739,-2.9739,-3.0494,-3.1722,-3.2151,-3.2829,-3.3625,-3.4052,-3.422,-3.422,-4.0096,-4.0096,-4.0096,-4.0096,-4.0096,-4.0096,-4.0096,-4.0096,-4.0096,-4.0096,-4.0096,-4.0096,-4.0096,-4.0096,-4.0096,-4.0096,-4.0473,-4.0461,-3.9829,-4.0229,-4.0165,-3.9426,-3.9411,-3.9593,-4.0017,-3.9857,-3.9774,-3.9774,-3.9173,-3.8847,-3.8847,-3.8847,-3.8847,-3.8847,-3.8682,-3.8464,-3.8241,-3.8079,-3.8097,-3.8241,-3.8241,-3.8488,-3.8847,-3.8847,-3.8501,-3.7989,-3.7989,-3.7882,-3.7737,-3.7737,-3.8015,-3.835,-3.835,-3.835,-3.835,-3.835,-3.7478,-3.6325,-3.553,-3.5151,-3.4857,-3.4215,-3.3935,-3.3807,-3.3807,-3.3807,-3.3807,-3.3807,-3.3311,-3.2821,-3.2619,-3.1592,-3.0577,-3.0008,0.0,0.0,0.0,-2.7842,-2.8007,-2.7824,-2.851,-2.9005,-2.9005,-2.9005,-2.9005,-2.9005,-2.9005,-2.9005,-2.9005,-2.9005,-2.9005,-2.9005,-2.9005,-2.9005,-2.9005,-2.9005,-2.9005,-2.9005,-2.9005,-2.9005,-2.9005,-2.9005,-2.9005,-2.9005,-2.9005,-2.9005,-2.9005,-2.9005,-2.9464,-3.0283,-3.1091,-3.188,-3.2693,-3.3495,-3.3807,-3.3807,-4.0096,-4.0096,-4.0096,-4.0096,-4.0096,-4.0096,-4.0096,-4.0096,-4.0096,-4.0096,-4.0096,-4.0096,-4.0096,-4.0096,-4.0096,-4.0096,-4.0146,-4.0137,-4.0061,-4.0094,-3.992,-3.9423,-3.9411,-3.9431,-3.9471,-3.9441,-3.9443,-3.9443,-3.939,-3.9354,-3.9354,-3.9354,-3.9354,-3.9319,-3.863,-3.8699,-3.9241,-3.8571,-3.8677,-3.9295,-3.9295,-3.9315,-3.9354,-3.9354,-3.8909,-3.827,-3.827,-3.7831,-3.7248,-3.7248,-3.7284,-3.7304,-3.7304,-3.7304,-3.7304,-3.7304,-3.7233,-3.7006,-3.6371,-3.561,-3.4986,-3.4931,-3.4344,-3.3807,-3.3807,-3.3807,-3.3807,-3.3807,-3.3752,-3.3476,-3.2729,-3.2491,-3.1684,-2.9445,0.0,0.0,-2.6998,-2.7959,-2.8638,-2.7879,-2.851,-2.9005,-2.9005,-2.9005,-2.9005,-2.9005,-2.9005,-2.9005,-2.9005,-2.9005,-2.9005,-2.9005,-2.9005,-2.9005,-2.9005,-2.9005,-2.9005,-2.9005,-2.9005,-2.9005,-2.9005,-2.9005,-2.9005,-2.9005,-2.9005,-2.9005,-2.9005,-2.9005,-2.9464,-3.0283,-3.1091,-3.188,-3.2693,-3.3495,-3.3807,-3.3807,-4.0096,-4.0096,-4.0096,-4.0096,-4.0096,-4.0096,-4.0096,-4.0096,-4.0096,-4.0096,-4.0096,-4.0096,-4.0096,-4.0096,-4.0096,-4.0096,-4.0096,-4.0096,-4.0096,-4.0096,-4.0024,-3.9823,-4.0145,-4.0328,-4.0328,-4.0197,-4.0135,-4.0135,-3.964,-3.9411,-3.9411,-3.9411,-3.9411,-3.9393,-3.9111,-3.8945,-3.8876,-3.8597,-3.8653,-3.8893,-3.8893,-3.9105,-3.9411,-3.9411,-3.9012,-3.8496,-3.8496,-3.8304,-3.8011,-3.7539,-3.7604,-3.7808,-3.7332,-3.7209,-3.7209,-3.7209,-3.7209,-3.7142,-3.6915,-3.6213,-3.5401,-3.4733,-3.434,-3.4051,-3.3863,-3.3807,-3.3807,-3.3807,-3.3807,-3.3715,-3.3403,-3.2931,-3.2454,-3.2045,0.0,-3.0797,-3.0381,-3.043,-3.0191,-2.9384,-2.9567,-2.9537,-2.906,-2.9005,-2.9005,-2.9005,-2.9005,-2.9005,-2.9005,-2.9005,-2.9005,-2.9005,-2.9005,-2.9005,-2.9005,-2.9005,-2.9005,-2.9005,-2.9005,-2.9005,-2.9005,-2.9005,-2.9005,-2.9005,-2.9005,-2.928,-2.9702,-2.9207,-2.9464,-3.0283,-3.1091,-3.1586,-3.2008,-3.3311,-3.3807,-3.3733,-4.0096,-4.0096,-4.0096,-4.0096,-4.0096,-4.0096,-4.0096,-4.0096,-4.0096,-4.0096,-4.0096,-4.0096,-4.0096,-4.0096,-4.0096,-4.0096,-4.0096,-4.0096,-4.0096,-4.0096,-4.0096,-4.0096,-4.0449,-4.0655,-4.0655,-4.0509,-4.0428,-4.0428,-3.9905,-3.9621,-3.9621,-3.9621,-3.9621,-3.9604,-3.9377,-3.9197,-3.9061,-3.882,-3.8872,-3.9078,-3.9078,-3.9289,-3.9621,-3.9621,-3.9262,-3.8734,-3.8734,-3.858,-3.8305,-3.7806,-3.788,-3.8095,-3.7592,-3.7263,-3.7018,-3.6756,-3.6704,-3.6704,-3.6704,-3.6265,-3.5628,-3.4973,-3.4445,-3.4072,-3.3971,-3.3658,-3.3433,-3.3578,-3.3606,-3.3606,-3.3606,-3.3154,-3.288,-3.3191,-3.2183,-3.1524,-3.1977,-3.1553,-3.1057,-3.0638,-3.0356,-2.9989,-2.9427,-2.9152,-2.9005,-2.9005,-2.9005,-2.9005,-2.9005,-2.9005,-2.9005,-2.9005,-2.9005,-2.9005,-2.9005,-2.9005,-2.9005,-2.9005,-2.9005,-2.9005,-2.9005,-2.9005,-2.9005,-2.9005,-2.9005,-2.9317,-2.9776,-2.9225,-2.9335,-2.9898,-3.0705,-3.1182,-3.1562,-3.2926,-3.3421,-3.3348,-4.0096,-4.0096,-4.0096,-4.0096,-4.0096,-4.0096,-4.0096,-4.0096,-4.0096,-4.0096,-4.0096,-4.0096,-4.0096,-4.0096,-4.0096,-4.0096,-4.0096,-4.0096,-4.0096,-4.0096,-4.0096,-4.0096,-4.0096,-4.0096,-4.0096,-4.0096,-4.0096,-4.0096,-4.0096,-4.0096,-4.0096,-4.0096,-4.0096,-4.0079,-3.9351,-3.9436,-4.0045,-3.9334,-3.9411,-4.0096,-4.0096,-4.0096,-4.0096,-4.0096,-3.9656,-3.9005,-3.9005,-3.8531,-3.7922,-3.7922,-3.7922,-3.7922,-3.7905,-3.7381,-3.6643,-3.5836,-3.56,-3.56,-3.56,-3.56,-3.5645,-3.5845,-3.4747,-3.3736,-3.4201,-3.3364,-3.2632,-3.3108,-3.3199,-3.3199,-3.3199,-3.3199,-3.2931,-3.2141,-3.1617,-3.1195,-3.0851,-3.0818,-3.0953,-3.1347,-3.0687,-3.0198,-3.0198,-2.9464,-2.8994,-2.8994,-2.8994,-2.8994,-2.8994,-2.9005,-2.9005,-2.8994,-2.9005,-2.9005,-2.9005,-2.9005,-2.9005,-2.9005,-2.9005,-2.9005,-2.9005,-2.9005,-2.9005,-2.9005,-2.9005,-2.9005,-2.9023,-2.9023,-2.9023,-2.9115,-2.9916,-3.0705,-3.1507,-3.2289,-3.2601,-3.2583,-4.0096,-4.0096,-4.0096,-4.0096,-4.0096,-4.0096,-4.0096,-4.0096,-4.0096,-4.0096,-4.0096,-4.0096,-4.0096,-4.0096,-4.0096,-4.0096,-4.0096,-4.0096,-4.0096,-4.0096,-4.0096,-4.0096,-4.0096,-4.0096,-4.0096,-4.0096,-4.0096,-4.0096,-4.0096,-4.0096,-4.0096,-4.0096,-4.0096,-4.0096,-3.9876,-3.9893,-4.0096,-3.9876,-3.991,-4.0096,-4.0096,-4.0096,-4.0096,-4.0096,-3.996,-3.9774,-3.9774,-3.9639,-3.9343,-3.8853,-3.8667,-3.8582,-3.8075,-3.7381,-3.6761,-3.6502,-3.6045,-3.56,-3.56,-3.56,-3.5574,-3.5446,-3.5066,-3.4712,-3.4606,-3.3897,-3.3314,-3.3448,-3.3071,-3.2809,-3.3154,-3.2937,-3.2737,-3.2832,-3.2454,-3.2109,-3.2007,-3.1987,-3.1823,-3.1389,-3.0918,-3.0491,-3.0173,-2.9188,-2.8711,-2.8985,-2.8745,-2.8577,-2.8577,-2.8851,-2.8863,-2.859,-2.8851,-2.9005,-2.9005,-2.9005,-2.9005,-2.9005,-2.9005,-2.9005,-2.9005,-2.9005,-2.9005,-2.9023,-2.9592,-3.0173,-3.0687,-3.0687,-3.1017,-3.1555,-3.1794,-3.1696,-3.1507,-3.2289,-3.2247,-3.1678,-4.0096,-4.0096,-4.0096,-4.0096,-4.0096,-4.0096,-4.0096,-4.0096,-4.0096,-4.0096,-4.0096,-4.0096,-4.0096,-4.0096,-4.0096,-4.0096,-4.0096,-4.0096,-4.0096,-4.0096,-4.0096,-4.0096,-4.0096,-4.0096,-4.0096,-4.0096,-4.0096,-4.0096,-4.0096,-4.0096,-4.0096,-4.0096,-4.0096,-4.0096,-4.0096,-4.0096,-4.0096,-4.0096,-4.0096,-4.0096,-4.0096,-4.0096,-4.0096,-4.0096,-4.0096,-4.0096,-4.0096,-4.0096,-4.0028,-3.9605,-3.9453,-3.9292,-3.8565,-3.8024,-3.7574,-3.6981,-3.6451,-3.6011,-3.5684,-3.56,-3.557,-3.5403,-3.5145,-3.4929,-3.4903,-3.3959,-3.3136,-3.3317,-3.2757,-3.2298,-3.2582,-3.2416,-3.2315,-3.2598,-3.2282,-3.2039,-3.2213,-3.2213,-3.2106,-3.1814,-3.1309,-3.0891,-3.0612,-2.9656,-2.9166,-2.941,-2.9208,-2.9068,-2.9068,-2.903,-2.8894,-2.8644,-2.8588,-2.8558,-2.8558,-2.8558,-2.87,-2.9005,-2.9005,-2.9005,-2.9005,-2.9005,-2.9005,-2.9023,-2.95,-3.0173,-3.0925,-3.0925,-3.1219,-3.1647,-3.1647,-3.1347,-3.098,-3.1476,-3.1347,-3.0852,-4.0096,-4.0096,-4.0096,-4.0096,-4.0096,-4.0096,-4.0096,-4.0096,-4.0096,-4.0096,-4.0096,-4.0096,-4.0096,-4.0096,-4.0096,-4.0096,-4.0096,-4.0096,-4.0096,-4.0096,-4.0096,-4.0096,-4.0096,-4.0096,-4.0096,-4.0096,-4.0096,-4.0096,-4.0096,-4.0096,-4.0096,-4.0096,-4.0096,-4.0096,-4.0096,-4.0096,-4.0096,-4.0096,-4.0096,-4.0096,-4.0096,-4.0096,-4.0096,-4.0096,-4.0096,-4.0096,-4.0096,-4.0096,-4.0096,-4.0096,-4.0096,-3.9994,-3.9292,-3.9039,-3.8734,-3.7405,-3.6897,-3.6643,-3.591,-3.565,-3.56,-3.56,-3.5115,-3.4703,-3.5132,-3.3826,-3.2621,-3.3057,-3.2461,-3.1856,-3.1911,-3.1822,-3.1752,-3.1789,-3.1451,-3.1332,-3.1696,-3.1734,-3.1897,-3.2333,-3.1713,-3.1254,-3.1292,-3.0574,-3.0099,-3.0061,-3.0043,-3.0043,-3.0043,-2.945,-2.9077,-2.9047,-2.8435,-2.8074,-2.8003,-2.8003,-2.8313,-2.894,-2.894,-2.897,-2.9005,-2.9005,-2.9005,-2.9005,-2.9078,-2.9519,-3.021,-3.0283,-3.032,-3.032,-3.032,-3.0265,-3.021,-3.021,-3.0155,-3.0099,-4.0096,-4.0096,-4.0096,-4.0096,-4.0096,-4.0096,-4.0096,-4.0096,-4.0096,-4.0096,-4.0096,-4.0096,-4.0096,-4.0096,-4.0096,-4.0096,-4.0096,-4.0096,-4.0096,-4.0096,-4.0096,-4.0096,-4.0096,-4.0096,-4.0096,-4.0096,-4.0096,-4.0096,-4.0096,-4.0096,-4.0096,-4.0096,-4.0096,-4.0096,-4.0096,-4.0096,-4.0096,-4.0096,-4.0096,-4.0096,-4.0096,-4.0096,-4.0096,-4.0096,-4.0096,-4.0096,-4.0096,-4.0096,-4.0096,-4.0096,-4.0096,-4.0079,-3.991,-3.9486,-3.8937,-3.8616,-3.7709,-3.6761,-3.6592,-3.6079,-3.56,-3.56,-3.5481,-3.5391,-3.5501,-3.4745,-3.4058,-3.4147,-3.3118,-3.23,-3.2686,-3.1975,-3.143,-3.1752,-3.1451,-3.123,-3.1329,-3.1332,-3.137,-3.1485,-3.1042,-3.0871,-3.1179,-3.0543,-2.9968,-2.9658,-2.9639,-2.9639,-2.9639,-2.9774,-2.9718,-2.9412,-2.9527,-2.9342,-2.8768,-2.8753,-2.8677,-2.854,-2.854,-2.8713,-2.9005,-2.9005,-2.9005,-2.9042,-2.9666,-3.0044,-3.0246,-3.087,-3.114,-3.114,-3.114,-3.0742,-3.021,-3.021,-2.9794,-2.9262,-4.0096,-4.0096,-3.9978,-3.9584,-3.9833,-3.9978,-3.9584,-3.9833,-4.0096,-4.0096,-4.0096,-4.0096,-4.0096,-4.0096,-4.0096,-4.0096,-4.0096,-4.0096,-4.0096,-4.0096,-4.0096,-4.0096,-4.0096,-4.0096,-4.0096,-4.0096,-4.0096,-4.0096,-4.0096,-4.0096,-4.0096,-4.0096,-4.0096,-4.0096,-4.0096,-4.0096,-4.0096,-4.0096,-4.0096,-4.0096,-4.0096,-4.0096,-4.0096,-4.0096,-4.0096,-4.0096,-4.0096,-4.0096,-4.0096,-4.0096,-4.0096,-4.0096,-4.0096,-3.9842,-3.9469,-3.9089,-3.8447,-3.7709,-3.6998,-3.6485,-3.6079,-3.5701,-3.56,-3.56,-3.56,-3.503,-3.4489,-3.4489,-3.3613,-3.2917,-3.3146,-3.2389,-3.1797,-3.2,-3.157,-3.119,-3.119,-3.119,-3.119,-3.119,-3.1013,-3.0984,-3.1176,-3.0852,-3.0542,-3.0341,-3.0325,-3.0325,-3.0325,-3.0196,-3.0006,-2.9794,-2.9661,-2.921,-2.8429,-2.8429,-2.825,-2.789,-2.8057,-2.8264,-2.8482,-2.8482,-2.8482,-2.85,-2.8915,-2.9326,-2.9732,-3.0288,-3.0547,-3.056,-3.0748,-3.0338,-2.9599,-2.9405,-2.8971,-2.8495,-3.9901,-3.9782,-3.9506,-3.8843,-3.9262,-3.948,-3.8799,-3.9279,-3.9705,-3.9705,-3.9705,-3.9705,-3.9705,-3.9825,-3.9901,-3.9901,-4.002,-4.0096,-4.0096,-4.0096,-4.0096,-4.0096,-4.0096,-4.0096,-4.0096,-4.0096,-4.0096,-4.0096,-4.0096,-4.0096,-4.0096,-4.0096,-4.0096,-4.0096,-4.0096,-4.0096,-4.0096,-4.0096,-4.0096,-4.0096,-4.0096,-4.0096,-4.0096,-4.0096,-4.0096,-4.0096,-4.0096,-4.0096,-4.0096,-4.0096,-4.0096,-4.0096,-4.0096,-4.0096,-3.9977,-3.9385,-3.9089,-3.87,-3.7354,-3.6897,-3.6609,-3.5785,-3.56,-3.56,-3.56,-3.5131,-3.4692,-3.4692,-3.41,-3.3592,-3.3592,-3.2983,-3.2446,-3.2327,-3.1802,-3.1326,-3.1207,-3.119,-3.119,-3.119,-3.119,-3.119,-3.119,-3.119,-3.119,-3.119,-3.119,-3.119,-3.119,-3.0615,-3.0294,-3.0294,-2.9685,-2.8991,-2.8196,-2.806,-2.7794,-2.7384,-2.76,-2.7768,-2.7897,-2.7897,-2.7897,-2.7897,-2.7897,-2.828,-2.8908,-2.9187,-2.931,-2.9336,-2.9682,-2.9399,-2.8779,-2.8451,-2.8143,-2.7926,-3.9059,-3.8569,-3.8064,-3.7978,-3.8035,-3.8064,-3.795,-3.8035,-3.8092,-3.8092,-3.8092,-3.8092,-3.8092,-3.8679,-3.9059,-3.9059,-3.9705,-4.0096,-4.0096,-4.0096,-4.0096,-4.0096,-4.0096,-4.0096,-4.0096,-4.0096,-4.0096,-4.0096,-4.0096,-4.0096,-4.0096,-4.0096,-4.0096,-4.0096,-4.0096,-4.0096,-4.0096,-4.0096,-4.0096,-4.0096,-4.0096,-4.0096,-4.0096,-4.0096,-4.0096,-4.0096,-4.0096,-4.0096,-4.0096,-4.0096,-4.0096,-4.0096,-4.0096,-4.0096,-4.0079,-3.9977,-3.9503,-3.8819,-3.7973,-3.728,-3.6609,-3.5785,-3.56,-3.56,-3.56,-3.5515,-3.5447,-3.5447,-3.4861,-3.4336,-3.4336,-3.3744,-3.3034,-3.2412,-3.2226,-3.1938,-3.1275,-3.119,-3.119,-3.119,-3.119,-3.119,-3.119,-3.119,-3.119,-3.119,-3.119,-3.119,-3.119,-3.1106,-3.1055,-3.1055,-3.0954,-3.0531,-2.9785,-2.9161,-2.8469,-2.7725,-2.7147,-2.7225,-2.7897,-2.7897,-2.7897,-2.7897,-2.7897,-2.795,-2.8071,-2.811,-2.8124,-2.8142,-2.8198,-2.814,-2.8037,-2.7996,-2.794,-2.7911,-3.829,-3.8035,-3.7661,-3.7219,-3.7515,-3.7661,-3.7203,-3.7515,-3.7793,-3.7793,-3.7793,-3.7793,-3.7793,-3.8092,-3.8442,-3.8854,-3.9219,-3.961,-4.007,-4.0096,-3.9901,-3.9463,-3.9876,-3.9705,-3.8832,-3.9209,-3.9236,-3.8805,-3.9679,-3.9876,-3.9437,-3.9901,-4.0096,-4.0096,-4.0096,-4.0096,-4.0096,-4.0096,-4.0096,-4.0096,-4.0096,-4.0096,-4.0096,-4.0096,-4.0096,-4.0096,-4.0096,-4.0096,-4.0096,-4.0096,-4.0096,-4.0096,-4.0096,-4.0096,-4.0096,-4.0096,-3.9876,-3.9445,-3.87,-3.7973,-3.7229,-3.6451,-3.5943,-3.56,-3.56,-3.56,-3.56,-3.56,-3.5329,-3.5115,-3.5115,-3.4506,-3.3914,-3.3596,-3.3169,-3.2645,-3.1921,-3.1819,-3.1667,-3.1241,-3.119,-3.119,-3.119,-3.119,-3.119,-3.119,-3.119,-3.119,-3.119,-3.119,-3.119,-3.119,-3.119,-3.0852,-3.0125,-2.9786,-2.9008,-2.7807,-2.7469,-2.7282,-2.7241,-2.7241,-2.7241,-2.7241,-2.7241,-2.7241,-2.7257,-2.747,-2.756,-2.7592,-2.7811,-2.7751,-2.756,-2.756,-2.7424,-2.7241]},{"header":{"parameterUnit":"m.s-1","parameterCategory":1,"la1":30.6,"la2":28.766,"lo1":-90.7593,"lo2":-88.6598,"dy":0.0162,"dx":0.0183,"nx":116,"ny":114,"refTime":"2024-06-24T00:00:00:Z","depth":0,"parameterNumber":3,"parameterNumberName":"V-component_of_WINDS"},"data":[0.0,0.0,0.0,0.0,0.0,0.0,0.0,0.0,0.0,0.0,0.0,0.0,0.0,0.0,0.0,0.0,0.0,0.0,0.0,0.0,0.0,0.0,0.0,0.0,0.0,0.0,0.0,0.0,0.0,0.0,0.0,0.0,0.0,0.0,0.0,0.0,0.0,0.0,0.0,0.0,0.0,0.0,0.0,0.0,0.0,0.0,0.0,0.0,0.0,0.0,0.0,0.0,0.0,0.0,0.0,0.0,0.0,0.0,0.0,0.0,0.0,0.0,0.0,0.0,0.0,0.0,0.0,0.0,0.0,0.0,0.0,0.0,0.0,0.0,0.0,0.0,0.0,0.0,0.0,0.0,0.0,0.0,0.0,0.0,0.0,0.0,0.0,0.0,0.0,0.0,0.0,0.0,0.0,0.0,0.0,0.0,0.0,0.0,0.0,0.0,0.0,0.0,0.0,0.0,0.0,0.0,0.0,0.0,0.0,0.0,0.0,0.0,0.0,0.0,0.0,0.0,0.0,0.0,0.0,0.0,0.0,0.0,0.0,0.0,0.0,0.0,0.0,0.0,0.0,0.0,0.0,0.0,0.0,0.0,0.0,0.0,0.0,0.0,0.0,0.0,0.0,0.0,0.0,0.0,0.0,0.0,0.0,0.0,0.0,0.0,0.0,0.0,0.0,0.0,0.0,0.0,0.0,0.0,0.0,0.0,0.0,0.0,0.0,0.0,0.0,0.0,0.0,0.0,0.0,0.0,0.0,0.0,0.0,0.0,0.0,0.0,0.0,0.0,0.0,0.0,0.0,0.0,0.0,0.0,0.0,0.0,0.0,0.0,0.0,0.0,0.0,0.0,0.0,0.0,0.0,0.0,0.0,0.0,0.0,0.0,0.0,0.0,0.0,0.0,0.0,0.0,0.0,0.0,0.0,0.0,0.0,0.0,0.0,0.0,0.0,0.0,0.0,0.0,0.0,0.0,0.0,0.0,0.0,0.0,0.0,0.0,0.0,0.0,0.0,0.0,0.0,0.0,0.0,0.0,0.0,0.0,0.0,0.0,0.0,0.0,0.0,0.0,0.0,0.0,0.0,0.0,0.0,0.0,0.0,0.0,0.0,0.0,0.0,0.0,0.0,0.0,0.0,0.0,0.0,0.0,0.0,0.0,0.0,0.0,0.0,0.0,0.0,0.0,0.0,0.0,0.0,0.0,0.0,0.0,0.0,0.0,0.0,0.0,0.0,0.0,0.0,0.0,0.0,0.0,0.0,0.0,0.0,0.0,0.0,0.0,0.0,0.0,0.0,0.0,0.0,0.0,0.0,0.0,0.0,0.0,0.0,0.0,0.0,0.0,0.0,0.0,0.0,0.0,0.0,0.0,0.0,0.0,0.0,0.0,0.0,0.0,0.0,0.0,0.0,0.0,0.0,0.0,0.0,0.0,0.0,0.0,0.0,0.0,0.0,0.0,0.0,0.0,0.0,0.0,0.0,0.0,0.0,0.0,0.0,0.0,0.0,0.0,0.0,0.0,0.0,0.0,0.0,0.0,0.0,0.0,0.0,0.0,0.0,0.0,0.0,0.0,0.0,0.0,0.0,0.0,0.0,0.0,0.0,0.0,0.0,0.0,0.0,0.0,0.0,0.0,0.0,0.0,0.0,0.0,0.0,0.0,0.0,0.0,0.0,0.0,0.0,0.0,0.0,0.0,0.0,0.0,0.0,0.0,0.0,0.0,0.0,0.0,0.0,0.0,0.0,0.0,0.0,0.0,0.0,0.0,0.0,0.0,0.0,0.0,0.0,0.0,0.0,0.0,0.0,0.0,0.0,0.0,0.0,0.0,0.0,0.0,0.0,0.0,0.0,0.0,0.0,0.0,0.0,0.0,0.0,0.0,0.0,0.0,0.0,0.0,0.0,0.0,0.0,0.0,0.0,0.0,0.0,0.0,0.0,0.0,0.0,0.0,0.0,0.0,0.0,0.0,0.0,0.0,0.0,0.0,0.0,0.0,0.0,0.0,0.0,0.0,0.0,0.0,0.0,0.0,0.0,0.0,0.0,0.0,0.0,0.0,0.0,0.0,0.0,0.0,0.0,0.0,0.0,0.0,0.0,0.0,0.0,0.0,0.0,0.0,0.0,0.0,0.0,0.0,0.0,0.0,0.0,0.0,0.0,0.0,0.0,0.0,0.0,0.0,0.0,0.0,0.0,0.0,0.0,0.0,0.0,0.0,0.0,0.0,0.0,0.0,0.0,0.0,0.0,0.0,0.0,0.0,0.0,0.0,0.0,0.0,0.0,0.0,0.0,0.0,0.0,0.0,0.0,0.0,0.0,0.0,0.0,0.0,0.0,0.0,0.0,0.0,0.0,0.0,0.0,0.0,0.0,0.0,0.0,0.0,0.0,0.0,0.0,0.0,0.0,0.0,0.0,0.0,0.0,0.0,0.0,0.0,0.0,0.0,0.0,0.0,0.0,0.0,0.0,0.0,0.0,0.0,0.0,0.0,0.0,0.0,0.0,0.0,0.0,0.0,0.0,0.0,0.0,0.0,0.0,0.0,0.0,0.0,0.0,0.0,0.0,0.0,0.0,0.0,0.0,0.0,0.0,0.0,0.0,0.0,0.0,0.0,0.0,0.0,0.0,0.0,0.0,0.0,0.0,0.0,0.0,0.0,0.0,0.0,0.0,0.0,0.0,0.0,0.0,0.0,0.0,0.0,0.0,0.0,0.0,0.0,0.0,0.0,0.0,0.0,0.0,0.0,0.0,0.0,0.0,0.0,0.0,0.0,0.0,0.0,0.0,0.0,0.0,0.0,0.0,0.0,0.0,0.0,0.0,0.0,0.0,0.0,0.0,0.0,0.0,0.0,0.0,0.0,0.0,0.0,0.0,0.0,0.0,0.0,0.0,0.0,0.0,0.0,0.0,0.0,0.0,0.0,0.0,0.0,0.0,0.0,0.0,0.0,0.0,0.0,0.0,0.0,0.0,0.0,0.0,0.0,0.0,0.0,0.0,0.0,0.0,0.0,0.0,0.0,0.0,0.0,0.0,0.0,0.0,0.0,0.0,0.0,0.0,0.0,0.0,0.0,0.0,0.0,0.0,0.0,0.0,0.0,0.0,0.0,0.0,0.0,0.0,0.0,0.0,0.0,0.0,0.0,0.0,0.0,0.0,0.0,0.0,0.0,0.0,0.0,0.0,0.0,0.0,0.0,0.0,0.0,0.0,0.0,0.0,0.0,0.0,0.0,0.0,0.0,0.0,0.0,0.0,0.0,0.0,0.0,0.0,0.0,0.0,0.0,0.0,0.0,0.0,0.0,0.0,0.0,0.0,0.0,0.0,0.0,0.0,0.0,0.0,0.0,0.0,0.0,0.0,0.0,0.0,0.0,0.0,0.0,0.0,0.0,0.0,0.0,0.0,0.0,0.0,0.0,0.0,0.0,0.0,0.0,0.0,0.0,0.0,0.0,0.0,0.0,0.0,0.0,0.0,0.0,0.0,0.0,0.0,0.0,0.0,0.0,0.0,0.0,0.0,0.0,0.0,0.0,0.0,0.0,0.0,0.0,0.0,0.0,0.0,0.0,0.0,0.0,0.0,0.0,0.0,0.0,0.0,0.0,0.0,0.0,0.0,0.0,0.0,0.0,0.0,0.0,0.0,0.0,0.0,0.0,0.0,0.0,0.0,0.0,0.0,0.0,0.0,0.0,0.0,0.0,0.0,0.0,0.0,0.0,0.0,0.0,0.0,0.0,0.0,0.0,0.0,0.0,0.0,0.0,0.0,0.0,0.0,0.0,0.0,0.0,0.0,0.0,0.0,0.0,0.0,0.0,0.0,0.0,0.0,0.0,0.0,0.0,0.0,0.0,0.0,0.0,0.0,0.0,0.0,0.0,0.0,0.0,0.0,0.0,0.0,0.0,0.0,0.0,0.0,0.0,0.0,0.0,0.0,0.0,0.0,0.0,0.0,0.0,0.0,0.0,0.0,0.0,0.0,0.0,0.0,0.0,0.0,0.0,0.0,0.0,0.0,0.0,0.0,0.0,0.0,0.0,0.0,0.0,0.0,0.0,0.0,0.0,0.0,0.0,0.0,0.0,0.0,0.0,0.0,0.0,0.0,0.0,0.0,0.0,0.0,0.0,0.0,0.0,0.0,0.0,0.0,0.0,0.0,0.0,0.0,0.0,0.0,0.0,0.0,0.0,0.0,0.0,0.0,0.0,0.0,0.0,0.0,0.0,0.0,0.0,0.0,0.0,0.0,0.0,0.0,0.0,0.0,0.0,0.0,0.0,0.0,0.0,0.0,0.0,0.0,0.0,0.0,0.0,0.0,0.0,0.0,0.0,0.0,0.0,0.0,0.0,0.0,0.0,0.0,0.0,0.0,0.0,0.0,0.0,0.0,0.0,0.0,0.0,0.0,0.0,0.0,0.0,0.0,0.0,0.0,0.0,0.0,0.0,0.0,0.0,0.0,0.0,0.0,0.0,0.0,0.0,0.0,0.0,0.0,0.0,0.0,0.0,0.0,0.0,0.0,0.0,0.0,0.0,0.0,0.0,0.0,0.0,0.0,0.0,0.0,0.0,0.0,0.0,0.0,0.0,0.0,0.0,0.0,0.0,0.0,0.0,0.0,0.0,0.0,0.0,0.0,0.0,0.0,0.0,0.0,0.0,0.0,0.0,0.0,0.0,0.0,0.0,0.0,0.0,0.0,0.0,0.0,0.0,0.0,0.0,0.0,0.0,0.0,0.0,0.0,0.0,0.0,0.0,0.0,0.0,0.0,0.0,0.0,0.0,0.0,0.0,0.0,0.0,0.0,0.0,0.0,0.0,0.0,0.0,0.0,0.0,0.0,0.0,0.0,0.0,0.0,0.0,0.0,0.0,0.0,0.0,0.0,0.0,0.0,0.0,0.0,0.0,0.0,0.0,0.0,0.0,0.0,0.0,0.0,0.0,0.0,0.0,0.0,0.0,0.0,0.0,0.0,0.0,0.0,0.0,0.0,0.0,0.0,0.0,0.0,0.0,0.0,0.0,0.0,0.0,0.0,0.0,0.0,0.0,0.0,0.0,0.0,0.0,0.0,0.0,0.0,0.0,0.0,0.0,0.0,0.0,0.0,0.0,0.0,0.0,0.0,0.0,0.0,0.0,0.0,0.0,0.0,0.0,0.0,0.0,0.0,0.0,0.0,0.0,0.0,0.0,0.0,0.0,0.0,0.0,0.0,0.0,0.0,0.0,0.0,0.0,0.0,0.0,0.0,0.0,0.0,0.0,0.0,0.0,0.0,0.0,0.0,0.0,0.0,0.0,0.0,0.0,0.0,0.0,0.0,0.0,0.0,0.0,0.0,0.0,0.0,0.0,0.0,0.0,0.0,0.0,0.0,0.0,0.0,0.0,0.0,0.0,0.0,0.0,0.0,0.0,0.0,0.0,0.0,0.0,0.0,0.0,0.0,0.0,0.0,0.0,0.0,0.0,0.0,0.0,0.0,0.0,0.0,0.0,0.0,0.0,0.0,0.0,0.0,0.0,0.0,0.0,0.0,0.0,0.0,0.0,0.0,0.0,0.0,0.0,0.0,0.0,0.0,0.0,0.0,0.0,0.0,0.0,0.0,0.0,0.0,0.0,0.0,0.0,0.0,0.0,0.0,0.0,0.0,0.0,0.0,0.0,0.0,0.0,0.0,0.0,0.0,0.0,0.0,0.0,0.0,0.0,0.0,0.0,0.0,0.0,0.0,0.0,0.0,0.0,0.0,0.0,0.0,0.0,0.0,0.0,0.0,0.0,0.0,0.0,0.0,0.0,0.0,0.0,0.0,0.0,0.0,0.0,0.0,0.0,0.0,0.0,0.0,0.0,0.0,0.0,0.0,0.0,0.0,0.0,0.0,0.0,0.0,0.0,0.0,0.0,0.0,0.0,0.0,0.0,0.0,0.0,0.0,0.0,0.0,0.0,0.0,0.0,0.0,0.0,0.0,0.0,0.0,0.0,0.0,0.0,0.0,0.0,0.0,0.0,0.0,0.0,0.0,0.0,0.0,0.0,0.0,0.0,0.0,0.0,0.0,0.0,0.0,0.0,0.0,0.0,0.0,0.0,0.0,0.0,0.0,0.0,-1.6506,0.0,0.0,0.0,0.0,0.0,0.0,0.0,0.0,0.0,0.0,0.0,0.0,0.0,0.0,0.0,0.0,0.0,0.0,0.0,0.0,0.0,0.0,0.0,0.0,-0.5625,-0.5772,-0.593,-0.6102,-0.625,-0.6391,-0.6168,-0.6034,-0.6034,-0.5823,-0.5666,-0.5521,-0.5641,-0.5965,-0.6468,-0.674,-0.7196,-0.7839,-0.7709,-0.7357,-0.6828,0.0,0.0,0.0,0.0,0.0,0.0,0.0,0.0,0.0,0.0,0.0,0.0,0.0,0.0,0.0,0.0,0.0,0.0,0.0,0.0,0.0,0.0,0.0,0.0,0.0,0.0,0.0,0.0,0.0,0.0,0.0,0.0,0.0,0.0,0.0,0.0,0.0,0.0,0.0,0.0,0.0,0.0,0.0,0.0,0.0,0.0,0.0,0.0,0.0,0.0,0.0,0.0,0.0,0.0,0.0,0.0,0.0,0.0,0.0,0.0,0.0,0.0,0.0,0.0,0.0,0.0,0.0,0.0,0.0,0.0,0.0,-1.7295,0.0,0.0,0.0,0.0,0.0,0.0,0.0,0.0,0.0,0.0,0.0,0.0,0.0,0.0,0.0,0.0,0.0,0.0,0.0,0.0,0.0,-0.5083,-0.5641,-0.5788,-0.5985,-0.6317,-0.6445,-0.6566,-0.6747,-0.676,-0.674,-0.6667,-0.6667,-0.6593,-0.6424,-0.664,-0.7055,-0.7651,-0.8036,-0.8631,-0.9444,-0.9444,-0.8945,-0.802,-0.7866,0.0,0.0,0.0,0.0,0.0,0.0,0.0,0.0,0.0,0.0,0.0,0.0,0.0,0.0,0.0,0.0,0.0,0.0,0.0,0.0,0.0,0.0,0.0,0.0,0.0,0.0,0.0,0.0,0.0,0.0,0.0,0.0,0.0,0.0,0.0,0.0,0.0,0.0,0.0,0.0,0.0,0.0,0.0,0.0,0.0,0.0,0.0,0.0,0.0,0.0,0.0,0.0,0.0,0.0,0.0,0.0,0.0,0.0,0.0,0.0,0.0,0.0,0.0,0.0,0.0,-2.1756,-2.2168,-2.2334,-2.2227,-2.0381,-1.9639,-1.9502,0.0,0.0,0.0,0.0,0.0,0.0,0.0,0.0,0.0,0.0,0.0,0.0,0.0,0.0,0.0,0.0,0.0,0.0,0.0,0.0,-0.5287,-0.5662,-0.6172,-0.6593,-0.686,-0.7366,-0.7602,-0.739,-0.737,-0.7256,-0.6953,-0.6946,-0.7068,-0.7332,-0.735,-0.7672,-0.8281,-0.9085,-0.9802,-1.0419,-1.0419,-1.0332,-1.0151,-0.9352,-0.9125,-0.9265,0.0,0.0,0.0,0.0,0.0,0.0,0.0,0.0,0.0,0.0,0.0,0.0,0.0,0.0,0.0,0.0,0.0,0.0,0.0,0.0,0.0,0.0,0.0,0.0,0.0,0.0,0.0,0.0,0.0,0.0,0.0,0.0,0.0,0.0,0.0,0.0,0.0,0.0,0.0,0.0,0.0,-0.9459,-0.9757,0.0,0.0,0.0,0.0,0.0,0.0,0.0,0.0,0.0,0.0,0.0,0.0,0.0,0.0,-2.01,-2.1603,-2.2469,-2.2682,-2.3525,-2.3935,-2.4004,-2.4062,-2.4082,-2.4062,-2.3779,0.0,-2.0839,-1.9512,0.0,0.0,0.0,0.0,0.0,0.0,0.0,0.0,0.0,0.0,0.0,0.0,0.0,0.0,0.0,0.0,0.0,0.0,0.0,0.0,0.0,-0.658,-0.7,-0.7466,-0.7929,-0.8049,-0.7749,-0.7729,-0.7589,-0.7281,-0.7108,-0.7161,-0.7506,-0.7826,-0.8536,-0.9628,-1.0512,-1.1162,-1.1543,-1.1745,-1.1919,-1.2024,-1.1463,-1.0728,-0.9873,-0.8998,0.0,0.0,0.0,0.0,0.0,0.0,0.0,0.0,0.0,0.0,0.0,0.0,0.0,0.0,0.0,0.0,0.0,0.0,0.0,0.0,0.0,0.0,0.0,0.0,0.0,0.0,0.0,0.0,0.0,0.0,0.0,0.0,0.0,0.0,0.0,0.0,0.0,0.0,0.0,-0.9325,-1.0408,-1.0367,-1.0802,-1.0862,0.0,0.0,0.0,0.0,0.0,0.0,0.0,0.0,0.0,-1.6536,-1.8908,-2.0267,-2.0483,-2.1961,-2.2428,-2.1928,-2.309,-2.3737,-2.4009,-2.4813,-2.5109,-2.5099,-2.4893,-2.4248,-2.3252,-2.1484,-2.0234,-1.9336,0.0,0.0,0.0,0.0,0.0,-1.8945,0.0,0.0,0.0,0.0,0.0,0.0,0.0,0.0,0.0,0.0,0.0,0.0,-0.6613,-0.7101,-0.7559,-0.8085,-0.8424,-0.847,-0.8152,-0.7992,-0.7789,-0.7504,-0.7255,-0.7275,-0.7598,-0.8422,-0.9534,-1.0928,-1.1658,-1.2171,-1.2538,-1.2797,-1.3025,-1.32,-1.3005,-1.2127,-1.0748,-1.005,-0.9466,-0.8878,0.0,0.0,0.0,0.0,0.0,0.0,0.0,0.0,0.0,0.0,0.0,0.0,0.0,0.0,0.0,0.0,0.0,0.0,0.0,0.0,0.0,0.0,0.0,0.0,0.0,0.0,0.0,0.0,0.0,0.0,0.0,0.0,0.0,0.0,0.0,0.0,0.0,-1.0341,-1.1162,-1.1055,-1.1784,-1.1977,0.0,0.0,0.0,0.0,0.0,0.0,-1.3834,-1.514,-1.6409,-1.7632,-1.9982,-2.1058,-2.0794,-2.1876,-2.2064,-2.1418,-2.2787,-2.3651,-2.4039,-2.5279,-2.5908,-2.5879,-2.543,-2.5223,-2.4979,-2.3115,-2.1982,-2.131,-2.0088,-1.9824,0.0,-2.0342,-2.0488,-2.0762,0.0,0.0,0.0,0.0,0.0,0.0,0.0,0.0,0.0,0.0,0.0,-0.6358,-0.6913,-0.7782,-0.8456,-0.8738,-0.8998,-0.9044,-0.8784,-0.8218,-0.7789,-0.7504,-0.7471,-0.7611,-0.7879,-0.9271,-1.0615,-1.1839,-1.2124,-1.2585,-1.3166,-1.318,-1.32,-1.3213,-1.3193,-1.2973,-1.2596,-1.1683,-1.0982,-1.0378,-0.9185,0.0,0.0,0.0,0.0,0.0,0.0,0.0,0.0,0.0,0.0,0.0,0.0,0.0,0.0,0.0,0.0,0.0,0.0,0.0,0.0,0.0,0.0,0.0,0.0,0.0,0.0,0.0,0.0,0.0,0.0,0.0,0.0,0.0,0.0,0.0,0.0,0.0,0.0,-1.2184,-1.2967,0.0,0.0,0.0,0.0,-1.3447,-1.4019,-1.477,-1.5604,-1.7101,-1.8238,-1.8879,-2.0559,-2.1581,-2.1819,-2.2258,-2.2491,-2.2454,-2.3983,-2.4731,-2.4792,-2.585,-2.6357,-2.6328,-2.5889,-2.5459,-2.5047,-2.4072,-2.3672,-2.3545,-2.2656,-2.2334,-2.2305,-2.1924,-2.2041,-2.2393,0.0,0.0,0.0,-0.4901,-0.4912,-0.4982,-0.5056,-0.5062,-0.5243,-0.5754,-0.6564,-0.7215,-0.7544,-0.8609,-0.9332,-0.9381,-0.9466,-0.9399,-0.9078,-0.8691,-0.8444,-0.833,-0.8174,-0.8476,-0.9291,-1.037,-1.1349,-1.2144,-1.2794,-1.324,-1.3453,-1.3687,-1.3774,-1.3774,-1.3774,-1.3607,-1.3253,-1.2171,-1.1483,-1.1015,-0.984,-0.9065,0.0,0.0,0.0,0.0,0.0,0.0,0.0,0.0,0.0,0.0,0.0,0.0,0.0,0.0,0.0,0.0,0.0,0.0,0.0,0.0,0.0,0.0,0.0,0.0,0.0,0.0,0.0,0.0,0.0,0.0,0.0,0.0,0.0,0.0,0.0,0.0,0.0,-1.3394,-1.4235,0.0,-1.3794,-1.4168,-1.4616,-1.4978,-1.5418,-1.6032,-1.6907,-1.7456,-1.805,-1.8675,-2.0096,-2.0475,-1.9715,-2.0717,-2.0777,-1.9928,-2.1364,-2.2527,-2.3483,-2.4781,-2.5743,-2.6387,-2.6221,-2.5908,-2.5478,-2.5166,-2.4707,-2.417,-2.3857,-2.374,-2.3721,-2.3574,-2.3437,-2.334,-0.5508,-0.5312,0.0,-0.4745,-0.4765,-0.4896,-0.5105,-0.5277,-0.5678,-0.6559,-0.736,-0.8016,-0.848,-0.9278,-0.9777,-0.9845,-0.974,-0.9599,-0.9377,-0.8931,-0.8664,-0.8664,-0.8664,-0.9259,-1.0496,-1.1229,-1.1964,-1.2752,-1.3307,-1.3653,-1.376,-1.3995,-1.4088,-1.4088,-1.4088,-1.3975,-1.3693,-1.2846,-1.2238,-1.1784,-1.0847,-1.0187,-0.9697,0.0,0.0,0.0,0.0,0.0,0.0,0.0,0.0,0.0,0.0,0.0,0.0,0.0,0.0,0.0,0.0,0.0,0.0,0.0,0.0,0.0,0.0,0.0,0.0,0.0,0.0,0.0,0.0,0.0,0.0,0.0,0.0,0.0,0.0,0.0,-1.3728,-1.4315,-1.5157,-1.5498,-1.501,-1.5491,-1.5999,-1.6393,-1.66,-1.7061,-1.7849,-1.7889,-1.8123,-1.8617,-1.9493,-1.9598,-1.8784,-1.9703,-1.9703,-1.8841,-2.0183,-2.1368,-2.2344,-2.3676,-2.4936,-2.6047,-2.5762,-2.5745,-2.5947,-2.5752,-2.5343,-2.4853,-2.4697,-2.4639,-2.4619,-2.4473,-2.4238,-2.3984,-0.5098,-0.5098,-0.502,-0.4745,-0.4486,-0.4562,-0.5312,-0.5573,-0.6282,-0.7978,-0.8258,-0.8684,-0.9658,-0.975,-0.9816,-1.008,-0.984,-0.9695,-0.9695,-0.8891,-0.8422,-0.8456,-0.8971,-0.995,-1.1389,-1.175,-1.2478,-1.36,-1.3613,-1.3766,-1.4088,-1.4088,-1.4088,-1.4088,-1.4088,-1.4088,-1.4068,-1.374,-1.332,-1.277,-1.2174,-1.1578,-1.0895,0.0,0.0,0.0,0.0,0.0,0.0,0.0,0.0,0.0,0.0,0.0,0.0,0.0,0.0,0.0,0.0,0.0,0.0,0.0,0.0,0.0,0.0,0.0,0.0,0.0,0.0,0.0,0.0,0.0,0.0,0.0,0.0,0.0,-1.32,-1.3748,-1.4349,-1.4981,-1.5819,-1.6186,-1.5899,-1.64,-1.6981,-1.7555,-1.7602,-1.7876,-1.847,-1.8504,-1.8637,-1.8925,-1.8938,-1.9078,-1.9424,-1.9424,-1.9424,-1.9424,-2.0866,-2.1586,-2.1628,-2.2696,-2.3945,-2.5343,-2.4535,-2.4983,-2.6357,-2.5937,-2.5703,-2.5645,-2.5254,-2.5135,-2.5086,-2.4619,-2.4453,-2.4375,-0.5098,-0.5098,-0.502,-0.4745,-0.4636,-0.487,-0.5708,-0.5551,-0.596,-0.768,-0.8229,-0.8615,-0.9035,-0.9724,-1.0059,-0.9831,-0.9532,-0.9331,-0.9331,-0.8938,-0.8971,-0.9606,-1.037,-1.1176,-1.2044,-1.2572,-1.3106,-1.36,-1.3854,-1.4008,-1.4088,-1.4088,-1.4088,-1.4088,-1.4088,-1.4088,-1.4082,-1.4001,-1.3868,-1.3688,-1.2871,-1.2187,-1.15,0.0,0.0,0.0,0.0,0.0,0.0,0.0,0.0,0.0,0.0,0.0,0.0,0.0,0.0,0.0,0.0,0.0,0.0,0.0,0.0,0.0,0.0,0.0,0.0,0.0,0.0,0.0,0.0,0.0,0.0,0.0,0.0,-1.3748,-1.3834,-1.4536,-1.5257,-1.5893,-1.6556,-1.6924,-1.6844,-1.7328,-1.7696,-1.7856,-1.8116,-1.8404,-1.8784,-1.8804,-1.8938,-1.9232,-1.9245,-1.9285,-1.9424,-1.9424,-1.9424,-1.9424,-1.9809,-2.0594,-2.1635,-2.1884,-2.3249,-2.5379,-2.5163,-2.5553,-2.6377,-2.626,-2.6025,-2.5674,-2.5605,-2.5557,-2.5537,-2.5372,-2.5166,-2.4785,-0.5098,-0.5098,-0.4981,-0.4596,-0.4654,-0.4989,-0.5723,-0.5976,-0.6634,-0.8227,-0.8715,-0.9042,-0.9381,-0.967,-0.9792,-0.9711,-0.9384,-0.9211,-0.9211,-0.9198,-0.9566,-1.0448,-1.1209,-1.1951,-1.2665,-1.3146,-1.3493,-1.3828,-1.4001,-1.4088,-1.4088,-1.4088,-1.4155,-1.4262,-1.4142,-1.4155,-1.4262,-1.4135,-1.4088,-1.4041,-1.3561,-1.3065,-1.2426,-1.0767,-0.974,-0.9046,-0.7663,-0.6789,-0.629,-0.6162,0.0,0.0,0.0,0.0,0.0,0.0,0.0,0.0,0.0,0.0,0.0,0.0,0.0,0.0,0.0,0.0,0.0,0.0,0.0,0.0,0.0,0.0,0.0,0.0,-1.4155,-1.4863,-1.4983,-1.5444,-1.5979,-1.6616,-1.6991,-1.73,-1.7502,-1.7842,-1.8095,-1.8342,-1.8577,-1.8798,-1.9092,-1.9112,-1.9192,-1.9366,-1.9424,-1.9424,-1.9424,-1.9424,-1.9424,-1.9424,-1.9424,-1.9873,-2.0702,-2.0702,-2.182,0.0,-2.4267,-2.4941,-2.5784,-2.6195,-2.6133,0.0,0.0,0.0,0.0,0.0,-2.5566,-2.5244,-0.5088,-0.5078,-0.4912,-0.4426,-0.4566,-0.4943,-0.5486,-0.6424,-0.7551,-0.8902,-0.9185,-0.9493,-1.0018,-0.9514,-0.9271,-0.9566,-0.9344,-0.9244,-0.9304,-0.9646,-1.0207,-1.1056,-1.1725,-1.2412,-1.324,-1.35,-1.3841,-1.4135,-1.4135,-1.4155,-1.4188,-1.4188,-1.4322,-1.4556,-1.4302,-1.4329,-1.4556,-1.4295,-1.4168,-1.4135,-1.4135,-1.3941,-1.3358,-1.1238,-1.0373,-1.0031,-0.8078,-0.6859,-0.6157,-0.6019,0.0,0.0,0.0,0.0,0.0,0.0,0.0,0.0,0.0,0.0,0.0,0.0,0.0,0.0,0.0,0.0,0.0,0.0,0.0,0.0,0.0,0.0,0.0,0.0,-1.5157,-1.5992,-1.6375,-1.6422,-1.6616,-1.7139,-1.7233,-1.7422,-1.7935,-1.8022,-1.8268,-1.8885,-1.8951,-1.9092,-1.9352,0.0,0.0,0.0,0.0,-1.9424,-1.9424,-1.9424,-1.9424,-1.9424,-1.9424,-1.9424,-1.9424,-1.9424,-2.0199,-2.162,-2.2609,-2.3606,-2.4629,-2.5765,-2.6014,-2.5693,-2.5693,-2.5693,-2.5693,-2.5693,-2.5693,0.0,-0.5059,-0.4932,-0.4745,-0.4636,-0.4541,-0.4696,-0.5344,-0.5574,-0.6145,-0.7433,-0.7766,-0.8122,-0.8717,-0.8823,-0.8911,-0.8971,-0.9111,-0.9411,-0.9884,-1.0448,-1.1029,-1.1705,-1.2505,-1.314,-1.3507,-1.3854,-1.4142,-1.4436,-1.4436,-1.4556,-1.4841,-1.4841,-1.4867,-1.4921,-1.4867,-1.4867,-1.4921,-1.4861,-1.4656,-1.4436,-1.4436,-1.4073,-1.3362,-1.1235,-1.0118,-0.9392,-0.7305,-0.6316,-0.6007,-0.5888,-0.6191,-0.6611,-0.641,-0.6527,0.0,0.0,0.0,0.0,0.0,0.0,0.0,0.0,0.0,0.0,0.0,0.0,0.0,0.0,0.0,0.0,0.0,0.0,0.0,-1.5003,-1.5732,-1.6422,-1.6958,-1.7032,-1.7072,-1.7186,-1.7407,-1.7642,-1.7955,-1.8263,-1.8551,-1.8898,-1.9145,-1.9305,-1.9424,-1.9424,0.0,-1.9424,-1.9424,-1.9424,-1.9424,-1.9424,-1.9424,-1.9424,0.0,0.0,-1.9424,-1.9424,-2.0199,-2.1635,-2.1794,-2.2364,-2.3218,-2.4575,-2.5333,-2.5693,-2.5693,-2.5693,-2.5693,-2.5693,-2.5693,-2.5625,-0.4853,-0.4903,-0.4868,-0.4775,-0.4777,-0.4931,-0.533,-0.5688,-0.6207,-0.709,-0.7487,-0.7817,-0.8114,-0.8258,-0.8345,-0.8345,-0.8745,-0.9304,-1.0037,-1.0802,-1.1536,-1.2315,-1.3026,-1.3527,-1.3854,-1.4008,-1.4229,-1.4522,-1.4522,-1.4669,-1.5008,-1.5008,-1.5082,-1.517,-1.5075,-1.5089,-1.517,-1.5068,-1.4877,-1.473,-1.4583,-1.4299,-1.3789,-1.133,-1.0162,-0.9526,-0.721,-0.622,-0.5979,-0.5905,-0.6114,-0.636,-0.6517,-0.6677,-0.6838,0.0,0.0,0.0,0.0,0.0,0.0,0.0,0.0,0.0,0.0,0.0,0.0,0.0,0.0,-1.2986,-1.3762,0.0,-1.503,-1.5912,-1.642,-1.6864,-1.7159,-1.7326,-1.742,-1.742,-1.7495,-1.7762,-1.8223,-1.8404,-1.8671,-1.9112,-1.9285,-1.9424,-1.9424,-1.9424,-1.9424,-1.9424,-1.9424,-1.9424,-1.9424,-1.9424,-1.9424,-1.9424,-1.9424,-1.9424,-1.9424,-1.9424,-1.9815,-2.0537,-2.1252,-2.1694,-2.1954,-2.3722,-2.4537,-2.4766,-2.543,-2.5693,-2.5693,-2.5693,-2.5693,-2.5654,-0.4702,-0.5024,-0.5168,-0.4953,-0.5172,-0.5375,-0.54,-0.5967,-0.6514,-0.6861,-0.7341,-0.7666,-0.7718,-0.7832,-0.7952,-0.8065,-0.8558,-0.9285,-1.0197,-1.1076,-1.1964,-1.2837,-1.3414,-1.38,-1.4082,-1.4088,-1.4255,-1.4603,-1.4603,-1.4783,-1.5182,-1.5182,-1.5257,-1.5471,-1.5237,-1.5264,-1.5464,-1.5231,-1.5115,-1.4988,-1.4703,-1.4543,-1.4153,-1.166,-1.0476,-0.9888,-0.76,-0.6416,-0.5986,-0.6168,-0.6135,-0.609,-0.6583,-0.6819,-0.6864,-0.6795,-0.7469,0.0,0.0,0.0,0.0,0.0,0.0,0.0,0.0,-1.2291,-1.2522,-1.3166,-1.3507,-1.3988,-1.4928,-1.5331,-1.5818,-1.658,-1.6954,-1.7219,-1.728,-1.7435,-1.7582,-1.7582,-1.7582,-1.7822,-1.843,-1.849,-1.8738,-1.9325,-1.9424,-1.9424,-1.9424,-1.9424,-1.9424,-1.9424,-1.9424,-1.9424,-1.9424,-1.9424,-1.9424,-1.9424,-1.9424,-1.9424,-1.9424,-1.9424,-1.9424,-1.9475,-2.058,-2.1009,-2.104,-2.2651,-2.337,-2.3541,-2.4803,-2.5323,-2.5323,-2.5586,-2.5693,-2.5693,-0.4876,-0.5377,-0.5647,-0.5377,-0.5705,-0.586,-0.5466,-0.5733,-0.5941,-0.5886,-0.6387,-0.6841,-0.7066,-0.7586,-0.8119,-0.8664,-0.8978,-0.9644,-1.0822,-1.1717,-1.2492,-1.3133,-1.3721,-1.4055,-1.4088,-1.4088,-1.4398,-1.4961,-1.4961,-1.5197,-1.5732,-1.5732,-1.5752,-1.5731,-1.5698,-1.5752,-1.5731,-1.5698,-1.5438,-1.5008,-1.4975,-1.4603,-1.3968,-1.2355,-1.1092,-0.9969,-0.828,-0.6878,-0.5935,-0.6718,-0.6882,-0.6795,-0.6843,-0.7212,-0.7556,-0.7451,-0.7862,-0.8457,-0.8904,-1.0083,-1.1436,-1.2328,-1.2194,-1.2438,0.0,-1.4556,-1.4082,-1.4923,-1.5331,-1.5498,-1.5371,-1.5805,-1.6293,-1.6647,-1.6954,-1.7293,-1.7502,-1.7562,-1.7582,-1.7582,-1.7582,-1.7822,-1.843,-1.849,-1.8738,-1.9325,-1.9424,-1.9424,-1.9424,-1.9424,-1.9424,-1.9424,-1.9424,-1.9424,-1.9424,-1.9424,-1.9424,-1.9424,-1.9424,-1.9424,-1.9424,-1.9424,-1.9424,-1.941,-1.925,-1.9822,-2.0874,-2.065,-2.1249,-2.238,-2.3477,-2.3939,-2.4048,-2.5274,-2.5693,-2.5693,-0.4579,-0.5363,-0.599,-0.6041,-0.6207,-0.6194,-0.5762,-0.5808,-0.5843,-0.5722,-0.6097,-0.6466,-0.674,-0.7126,-0.7619,-0.8218,-0.8698,-0.9486,-1.0693,-1.1598,-1.2398,-1.318,-1.3607,-1.3908,-1.4082,-1.4088,-1.4419,-1.5008,-1.5008,-1.5257,-1.5784,-1.5784,-1.5784,-1.5784,-1.5784,-1.5784,-1.5771,-1.5651,-1.5438,-1.5184,-1.4843,-1.4556,-1.4153,-1.2529,-1.112,-0.985,-0.8347,-0.7203,0.0,-0.6939,-0.7024,-0.6988,-0.7575,-0.8072,-0.8361,-0.7914,-0.8805,-1.0155,-1.1259,-1.1564,-1.1891,-1.3227,-1.3769,-1.4168,-1.511,-1.5077,-1.4997,-1.5538,-1.5698,-1.5845,-1.5899,-1.6246,-1.662,0.0,-1.7259,-1.7442,-1.7562,-1.7494,-1.738,-1.738,-1.738,-1.7688,-1.8417,-1.849,-1.8738,-1.9325,-1.9424,-1.9424,-1.9424,-1.9424,-1.9424,-1.9424,-1.9424,-1.9424,-1.9424,-1.9424,-1.9424,-1.9424,-1.9424,-1.9424,-1.9424,-1.9424,-1.9424,-1.9417,-1.9232,-1.9414,-1.9759,-2.0172,-2.056,-2.1031,-2.2105,-2.3026,-2.384,-2.5226,-2.5693,-2.5693,-0.4508,-0.5362,-0.6138,-0.6451,-0.6497,-0.6399,-0.6106,-0.5975,-0.5843,-0.5722,-0.599,-0.6337,-0.6667,-0.6873,-0.7246,-0.7852,-0.8397,-0.9185,-1.0392,-1.1296,-1.2111,-1.2926,-1.336,-1.37,-1.3961,-1.4048,-1.4335,-1.4843,-1.4843,-1.5097,-1.5591,-1.5591,-1.5591,-1.5591,-1.5591,-1.5591,-1.5578,-1.5364,-1.5231,-1.5117,-1.4689,-1.4422,-1.4081,-1.2688,-1.137,-1.0116,-0.8571,-0.7334,-0.6463,-0.6747,-0.6751,-0.6789,-0.7545,-0.8125,-0.8476,-0.8225,-0.9355,-1.0974,-1.2184,-1.2261,-1.2316,-1.3822,-1.481,-1.5364,-1.5231,-1.5364,-1.5578,-1.5738,-1.5784,-1.5844,-1.6112,-1.6393,-1.668,-1.7032,-1.732,-1.7548,-1.7569,-1.7387,-1.7233,-1.7306,-1.7253,-1.7527,-1.829,-1.837,-1.8611,-1.9199,-1.9245,-1.9279,-1.9424,-1.9424,-1.9424,-1.9424,-1.9424,-1.9424,-1.9424,-1.9424,-1.9424,-1.9424,-1.9424,-1.9424,-1.9424,-1.9424,-1.9424,-1.9424,-1.9424,-1.9199,-1.8955,-1.9679,-1.9787,-1.9628,-2.0723,-2.1954,-2.3335,-2.4658,-2.5382,-2.5693,-0.4905,-0.5481,-0.6038,-0.6435,-0.6502,-0.6502,-0.648,-0.6152,-0.5843,-0.5722,-0.599,-0.6392,-0.6926,-0.7,-0.7246,-0.7852,-0.821,-0.8911,-1.0053,-1.0922,-1.1703,-1.2305,-1.3134,-1.3606,-1.3613,-1.3941,-1.4235,-1.4536,-1.4536,-1.4689,-1.5035,-1.5035,-1.5035,-1.5035,-1.5035,-1.5035,-1.5035,-1.5028,-1.481,-1.4543,-1.4529,-1.4139,-1.356,-1.2999,-1.2188,-1.1112,-0.9246,-0.7106,-0.528,-0.5984,-0.613,-0.6058,-0.6224,-0.6752,-0.7497,-0.8329,-0.9228,-1.0076,-1.0715,-1.1712,-1.2869,-1.4163,-1.4957,-1.5471,-1.5738,-1.5764,-1.5771,-1.5778,-1.5784,-1.5784,-1.5791,-1.6086,-1.638,-1.6673,-1.6967,-1.7313,-1.7542,-1.7387,-1.7306,-1.7535,-1.7373,-1.7388,0.0,-1.8009,-1.8249,-1.8891,-1.8938,-1.9065,-1.9352,-1.9424,-1.9424,-1.9424,-1.9424,-1.9424,-1.9424,-1.9424,-1.9424,-1.9424,-1.9424,-1.9424,-1.9424,-1.9424,-1.9424,-1.9424,-1.9424,-1.9199,-1.8905,-1.8666,-1.8372,-1.8171,-1.9248,-2.0538,-2.1904,-2.3285,-2.4559,-2.5693,-0.4613,-0.5309,-0.5952,-0.6075,-0.6098,-0.6098,-0.6098,-0.5991,-0.5843,-0.5722,-0.6139,0.0,0.0,0.0,0.0,0.0,-0.8203,-0.8817,-0.9766,-1.0468,-1.1116,-1.1697,-1.2385,-1.2846,-1.3046,-1.354,-1.3935,-1.4229,-1.4429,-1.4669,-1.5008,-1.5008,-1.5008,-1.5008,-1.5008,-1.5008,-1.4995,-1.475,-1.473,-1.4763,-1.4133,-1.3893,-1.3765,-1.2294,-1.0972,-0.9673,0.0,-0.7031,-0.6409,-0.6263,-0.612,-0.6109,-0.6845,-0.7567,-0.8523,-1.0273,-1.0795,-1.1122,-1.2792,-1.32,-1.3462,-1.4753,-1.5391,-1.5712,-1.5758,-1.5784,-1.5784,-1.5784,-1.5678,-1.5538,-1.5538,-1.5778,-1.6079,-1.6366,-1.6884,-1.73,-1.7542,-1.7502,-1.7454,-1.736,-1.7434,0.0,0.0,0.0,0.0,-1.8821,-1.8925,-1.9052,-1.9352,-1.9424,-1.9424,-1.9424,-1.9424,-1.9424,-1.9424,-1.9424,-1.9424,-1.9424,-1.9424,-1.9424,-1.9424,-1.9424,-1.9424,-1.9424,-1.9424,-1.9199,-1.8905,-1.8611,-1.8317,-1.8016,-1.8218,-1.9117,-2.0487,-2.1853,-2.3226,-2.451,-0.4582,-0.5158,-0.5688,-0.5688,-0.5688,0.0,0.0,0.0,0.0,0.0,0.0,0.0,0.0,0.0,0.0,0.0,0.0,-0.8591,-0.9466,-1.001,-1.0461,-1.0902,-1.1523,-1.1924,-1.2147,-1.2599,-1.2993,-1.3293,-1.3587,-1.3881,-1.4218,-1.4331,-1.4378,-1.4378,-1.4378,-1.4378,-1.4322,-1.4135,-1.4162,-1.4318,-1.3601,-1.3147,-1.2803,-1.159,-1.0055,0.0,-0.7334,-0.6779,-0.6421,-0.5806,-0.5554,-0.5657,-0.6347,-0.769,-0.9244,-1.0486,-1.1244,-1.1956,-1.3125,-1.3395,-1.3659,-1.4636,-1.5355,-1.5683,-1.5242,-1.5486,-1.5751,-1.5698,-1.5444,-1.5244,-1.5244,-1.5311,-1.5565,-1.6172,-1.6643,-1.7099,-1.7662,-1.7562,-1.7527,-1.7668,-1.7655,-1.7595,0.0,0.0,0.0,-1.8738,-1.8865,-1.9052,-1.9352,-1.9424,-1.9424,-1.9424,-1.9424,-1.9424,-1.9424,-1.9424,-1.9424,-1.9424,-1.9424,-1.9424,-1.9424,-1.9424,-1.9424,-1.9424,-1.9424,-1.9138,-1.8751,-1.8564,-1.825,-1.7862,-1.7662,-1.8401,-1.9782,-2.1194,-2.2567,-2.389,-0.4793,-0.5077,-0.5293,0.0,0.0,0.0,0.0,0.0,0.0,0.0,0.0,0.0,0.0,0.0,0.0,0.0,0.0,0.0,-0.9138,-0.9492,-0.9786,-1.003,-1.0635,-1.0949,-1.0949,-1.1216,-1.1543,-1.1859,-1.2111,-1.2405,-1.2723,-1.2979,-1.312,-1.312,-1.3133,-1.314,-1.314,-1.314,-1.3146,-1.3133,-1.2831,-1.1948,-1.0836,-1.0847,-0.9441,-0.7452,-0.7124,-0.6365,-0.5422,-0.4809,-0.4741,-0.4978,-0.5175,-0.7337,-0.9733,-0.9276,-1.0829,-1.2585,-1.1898,-1.2586,-1.3588,-1.3898,-1.4902,-1.5486,-1.4166,-1.4829,-1.5604,-1.5272,-1.4955,-1.4774,-1.4761,-1.4568,-1.4774,-1.5951,-1.6246,-1.67,-1.7802,-1.7562,-1.7588,0.0,0.0,0.0,0.0,0.0,0.0,-1.851,0.0,-1.9052,-1.9352,-1.9424,-1.9424,-1.9424,-1.9424,-1.9424,-1.9424,-1.9424,-1.9424,-1.9424,-1.9424,-1.9424,-1.9424,-1.9424,-1.9424,-1.9424,-1.9424,-1.9038,-1.849,-1.849,-1.813,-1.7582,-1.7582,-1.8401,-1.9679,-2.1092,-2.2416,-2.3692,0.0,0.0,0.0,0.0,0.0,0.0,0.0,0.0,0.0,0.0,0.0,0.0,0.0,0.0,0.0,0.0,0.0,0.0,-0.8865,-0.9164,-0.9357,-0.9431,-0.9997,-1.0341,-1.0341,-1.0842,-1.1142,-1.1216,-1.151,-1.1655,-1.1764,-1.1844,-1.1848,-1.1855,-1.2111,-1.2248,-1.2248,-1.2248,-1.2338,-1.2472,-1.1737,-1.1373,-1.1084,-0.9384,-0.8237,-0.7324,-0.5943,-0.5627,-0.5884,-0.5918,-0.6893,-0.8304,-0.9287,-1.047,-1.1678,-1.2506,-1.3553,-1.441,-1.4389,-1.4775,-1.5209,-1.5305,-1.5581,-1.5486,-1.4166,-1.396,-1.3695,-1.2575,-1.1937,-1.1528,-1.1462,-1.2433,0.0,-1.3911,-1.5436,0.0,-1.7595,-1.7963,0.0,-1.8464,0.0,-1.8557,-1.8497,-1.8684,0.0,0.0,-1.8878,-1.9052,-1.9352,-1.9424,-1.9424,-1.9424,-1.9424,-1.9424,-1.9424,-1.9424,-1.9424,-1.9424,-1.9424,-1.9424,-1.9424,-1.9424,-1.9424,-1.9424,-1.9424,-1.9038,-1.849,-1.849,-1.813,-1.7582,-1.7582,-1.7786,-1.8251,-1.962,-2.0341,-2.0998,0.0,0.0,0.0,0.0,0.0,0.0,0.0,0.0,0.0,0.0,0.0,0.0,0.0,0.0,0.0,0.0,0.0,0.0,0.0,-0.8931,-0.9024,-0.9024,-0.9337,-0.9539,-0.9539,-0.9987,-1.0221,-1.0221,-1.0641,-1.0816,-1.0823,-1.0982,-1.1049,-1.1056,-1.1256,-1.133,-1.1296,-1.0978,-1.0932,0.0,0.0,-0.9488,-0.911,-0.8373,-0.7488,-0.6578,-0.6242,-0.6796,-0.7788,-0.8321,-0.8946,-0.9734,-1.1215,-1.2061,-1.2619,-1.3398,-1.4384,-1.5119,-1.4839,-1.5267,-1.554,-1.437,-1.4956,-1.5192,-1.2972,-1.2911,-1.2915,-1.1522,-1.0643,-1.002,-0.9836,-1.1149,-1.2413,0.0,0.0,0.0,-1.7462,-1.7996,-1.839,0.0,-1.8824,0.0,-1.8878,-1.9025,-1.9118,0.0,-1.9118,-1.9192,-1.9417,-1.9424,-1.9424,-1.9424,-1.9424,-1.9424,-1.9424,-1.9424,-1.9424,-1.9424,-1.9424,-1.9424,-1.9424,-1.9424,-1.9424,-1.9424,0.0,-1.9038,-1.849,-1.849,-1.813,-1.7582,-1.7582,-1.7582,-1.7733,-1.9117,-1.9576,-1.9937,0.0,0.0,0.0,0.0,0.0,0.0,0.0,0.0,0.0,-0.672,-0.7169,-0.754,-0.7598,-0.7829,0.0,0.0,0.0,0.0,0.0,0.0,-0.8804,-0.8804,-0.8804,-0.8804,-0.8804,-0.9024,-0.9158,-0.9158,-0.9664,-0.994,-0.9917,-1.0238,-1.0358,-1.0358,-1.0305,-1.0287,-1.0225,-0.9493,-0.9172,-0.9117,-0.8301,-0.739,-0.667,0.0,-0.7081,-0.595,-0.7295,-0.8604,-0.9892,-1.0972,-1.0901,-1.0623,-1.2211,-1.3016,-1.3379,-1.3377,-1.4262,-1.5032,-1.4351,-1.4704,-1.4758,-1.2673,-1.3711,-1.4443,-1.1306,-1.1636,-1.2205,-1.0904,-0.9823,-0.901,-0.8802,-0.9983,-1.138,-1.2505,0.0,-1.6034,-1.7355,-1.7822,-1.8209,-1.8851,-1.8958,-1.9085,-1.9339,-1.9424,-1.9424,-1.9424,-1.9424,-1.9424,-1.9424,-1.9424,-1.9424,-1.9424,-1.9424,-1.9424,-1.9424,-1.9424,-1.9424,-1.9424,-1.9424,-1.9424,-1.9424,-1.9424,-1.9424,-1.9424,0.0,0.0,-1.849,-1.8444,-1.8096,-1.7582,-1.7582,-1.7582,-1.774,-1.8916,-1.9324,-1.9517,0.0,0.0,0.0,0.0,0.0,0.0,0.0,-0.6573,-0.7034,-0.7303,-0.7424,-0.7678,-0.8188,-0.8288,0.0,0.0,0.0,0.0,0.0,0.0,0.0,-0.8804,-0.8804,-0.8804,-0.8804,-0.8858,-0.8858,-0.8858,-0.8985,-0.9031,-0.9038,-0.9085,-0.9112,-0.9091,-0.8761,-0.8632,-0.8575,-0.7815,-0.7525,-0.7533,-0.7689,-0.7647,-0.7438,-0.704,0.0,0.0,-0.7909,-0.8409,-0.9156,-1.1362,-1.2798,-1.3808,-1.4615,-1.5088,-1.5324,-1.5323,-1.4788,-1.4351,-1.5229,-1.4028,-1.2721,-1.3397,-1.3,-1.2103,-1.0865,-0.9903,-0.8966,-0.8025,-0.6805,-0.589,-0.5834,-0.7355,-0.9145,-1.0737,-1.2801,-1.4952,-1.7003,-1.7695,-1.8209,0.0,-1.9138,-1.9312,-1.9366,-1.9424,0.0,0.0,0.0,0.0,-1.9424,-1.9424,-1.9424,-1.9424,-1.9424,-1.9424,-1.9424,-1.9424,-1.9424,-1.9424,-1.9424,-1.9424,-1.9424,-1.9424,-1.9424,-1.9352,0.0,0.0,-1.847,-1.8223,-1.7909,-1.7582,-1.7582,-1.7582,-1.7635,-1.7838,-1.7943,-1.8112,0.0,0.0,0.0,0.0,0.0,0.0,-0.6358,-0.6901,-0.7444,-0.7906,-0.8094,-0.8241,-0.8382,-0.8536,-0.8657,0.0,0.0,0.0,0.0,0.0,0.0,-0.8804,-0.8804,-0.8804,-0.8804,-0.8931,-0.8931,-0.8804,0.0,-0.8931,-0.8804,-0.8804,-0.8804,-0.8785,-0.8595,-0.83,-0.7884,-0.7163,-0.6605,-0.6258,-0.6105,-0.6041,-0.6041,-0.6036,0.0,0.0,-0.8072,-0.8831,-0.9848,-1.1181,-1.2258,-1.3328,-1.4883,-1.511,-1.48,-1.48,-1.4364,-1.3878,-1.3788,-1.3349,-1.2764,-1.2032,-1.2247,-1.1996,-0.9778,-0.9225,-0.8707,-0.6982,-0.5768,-0.4941,-0.4813,-0.6347,-0.7969,-0.897,-1.0894,-1.3097,-1.5373,-1.6311,-1.6918,-1.7397,-1.7848,-1.8163,0.0,-1.8163,0.0,0.0,0.0,0.0,-1.9424,-1.9424,-1.9424,-1.9424,-1.9424,-1.9424,-1.9424,-1.9424,-1.9424,-1.9424,-1.9424,-1.9424,-1.9424,-1.9424,-1.9279,-1.9125,0.0,0.0,-1.825,-1.8049,-1.7862,-1.7582,-1.7582,-1.7582,-1.7582,-1.7582,-1.7582,-1.764,0.0,0.0,0.0,0.0,0.0,0.0,-0.6566,-0.7027,-0.7539,-0.8097,-0.8255,-0.8239,-0.8044,-0.8541,-0.8878,0.0,0.0,0.0,0.0,0.0,0.0,0.0,0.0,-0.8804,-0.8804,0.0,0.0,0.0,-0.9004,0.0,0.0,0.0,0.0,0.0,0.0,-0.791,-0.7176,-0.6448,-0.5823,0.0,0.0,-0.4708,0.0,0.0,0.0,0.0,0.0,-0.8916,-1.0056,-1.0629,-1.0975,-1.1618,-1.3761,-1.3942,-1.3401,-1.3649,-1.3362,-1.2844,-1.2076,-1.228,-1.2226,-1.0435,-1.1082,-1.1364,-0.8588,-0.8497,-0.8441,-0.6533,-0.543,-0.4758,-0.458,-0.5782,-0.7009,-0.7712,-0.9232,-1.1225,-1.3843,-1.4666,-1.5346,0.0,-1.6459,0.0,-1.7436,0.0,0.0,0.0,0.0,0.0,0.0,-1.9424,-1.9424,-1.9424,-1.9424,-1.9424,-1.9424,-1.9424,-1.9424,-1.9424,-1.9424,-1.9332,-1.9272,-1.9272,-1.9112,-1.8824,0.0,0.0,0.0,-1.7922,-1.7802,-1.7582,-1.7582,-1.7582,-1.7582,-1.7582,-1.7542,-1.7448,0.0,0.0,0.0,0.0,0.0,0.0,-0.6566,-0.6745,-0.7001,-0.7357,-0.706,-0.6799,-0.6773,-0.8197,-0.9071,0.0,0.0,0.0,0.0,0.0,0.0,0.0,0.0,0.0,0.0,0.0,0.0,0.0,0.0,0.0,0.0,0.0,0.0,0.0,0.0,0.0,0.0,-0.4979,0.0,0.0,0.0,0.0,0.0,0.0,0.0,0.0,0.0,-0.7832,-0.8196,-0.9675,-0.9983,-0.9895,-1.1052,-1.1458,-1.1761,-1.2791,-1.1708,-1.0446,-1.1599,-1.0239,-0.8775,-0.9756,-0.8946,-0.7916,-0.7849,-0.6872,-0.6007,-0.6024,-0.522,-0.4566,-0.4679,-0.4926,-0.5745,-0.7654,-0.8358,-0.9846,-1.3458,-1.3407,-1.4249,-1.743,0.0,0.0,-1.8861,0.0,0.0,0.0,0.0,0.0,0.0,-1.9424,-1.9424,-1.9424,-1.9424,-1.9424,-1.9424,-1.9424,-1.9424,-1.9424,-1.9424,-1.9225,-1.8965,-1.8965,-1.8804,-1.8517,0.0,0.0,0.0,-1.7742,-1.7609,-1.7582,-1.7582,-1.7582,-1.7582,-1.7582,-1.7467,-1.7199,0.0,0.0,0.0,0.0,0.0,0.0,-0.6243,-0.6496,-0.6721,-0.6869,-0.6801,-0.6853,-0.7208,-0.8062,-0.8481,-0.8154,0.0,0.0,0.0,0.0,0.0,0.0,0.0,0.0,0.0,0.0,-0.8804,0.0,0.0,0.0,0.0,0.0,0.0,0.0,0.0,0.0,0.0,0.0,0.0,0.0,0.0,0.0,0.0,0.0,0.0,0.0,0.0,0.0,-0.8147,-0.9015,-0.8853,-0.8433,-0.9294,-0.878,-0.8234,-1.0101,-1.0172,-0.9583,-0.9485,-0.9327,-0.9118,-0.8871,-0.906,-0.8918,-0.7378,-0.7294,-0.7094,-0.5551,-0.4847,-0.4508,-0.4569,-0.4677,-0.5267,-0.6796,-0.7216,-0.8375,-1.1275,-1.1732,-1.2245,-1.3551,-1.4044,0.0,0.0,0.0,0.0,0.0,0.0,0.0,0.0,-1.9424,-1.9424,-1.9424,-1.9424,-1.9424,-1.9424,-1.9424,-1.9279,-1.9098,-1.9098,-1.8945,-1.8664,-1.8664,-1.8504,-1.8217,0.0,0.0,0.0,-1.7629,-1.7582,-1.7582,-1.7582,-1.7582,-1.7562,-1.744,-1.73,-1.7132,0.0,0.0,0.0,0.0,0.0,-0.5882,-0.5751,-0.5935,-0.6128,-0.6212,-0.6161,-0.6281,-0.6718,-0.7137,-0.7389,-0.7386,-0.7777,0.0,0.0,0.0,0.0,0.0,0.0,0.0,0.0,0.0,-0.8851,-0.8904,-0.8904,0.0,0.0,0.0,0.0,0.0,0.0,0.0,0.0,0.0,0.0,0.0,0.0,0.0,0.0,0.0,0.0,0.0,0.0,0.0,0.0,0.0,0.0,-0.729,-0.7675,-0.6679,-0.5828,-0.8072,-0.8684,-0.854,-0.7849,-0.849,-0.9127,-0.8112,-0.8707,-0.8991,-0.6842,-0.7098,-0.7195,-0.5064,-0.4566,-0.4491,-0.4491,-0.458,-0.5024,-0.6191,-0.6651,-0.7599,-0.9816,-1.0326,-1.0716,0.0,0.0,0.0,0.0,0.0,0.0,0.0,0.0,0.0,0.0,0.0,-1.9424,-1.9424,-1.9424,-1.9424,-1.9424,-1.9279,-1.9132,-1.8925,-1.8838,-1.8644,-1.8364,-1.8364,-1.8196,0.0,0.0,0.0,0.0,-1.7582,-1.7582,-1.7582,-1.7582,-1.7528,-1.7481,-1.728,-1.7092,-1.6884,0.0,0.0,0.0,0.0,0.0,-0.5263,-0.514,-0.5002,-0.5019,-0.528,-0.4854,-0.4515,-0.4543,-0.514,-0.5819,-0.6561,-0.7937,0.0,0.0,0.0,0.0,0.0,0.0,0.0,0.0,0.0,-0.8918,-0.9211,-0.9211,-0.9211,-0.9211,0.0,0.0,0.0,0.0,0.0,0.0,0.0,0.0,0.0,0.0,0.0,-0.4491,0.0,0.0,0.0,0.0,0.0,0.0,0.0,0.0,0.0,0.0,-0.5414,-0.529,-0.7245,-0.7306,-0.6849,-0.7299,-0.759,-0.778,-0.7638,-0.737,-0.6946,-0.6165,-0.5719,-0.5257,-0.4617,-0.4491,-0.4491,-0.4491,-0.4491,-0.4922,-0.6202,-0.6799,-0.7762,-0.9622,-0.9446,-0.9979,0.0,0.0,0.0,0.0,0.0,0.0,0.0,0.0,0.0,0.0,0.0,-1.9424,-1.9424,-1.9424,-1.9424,-1.9424,-1.9078,-1.8925,-1.8918,-1.8631,-1.8337,-1.7995,-1.7995,0.0,0.0,0.0,0.0,0.0,-1.7582,-1.7582,-1.7582,-1.7582,-1.746,-1.7206,-1.7199,-1.6831,-1.6328,0.0,0.0,0.0,0.0,0.0,0.0,-0.4392,-0.4397,-0.441,-0.4414,-0.4189,-0.4239,-0.4852,-0.5617,-0.6405,-0.7137,-0.7723,0.0,0.0,0.0,0.0,0.0,0.0,0.0,0.0,-0.8804,-0.8918,-0.9211,-0.9211,-0.9317,-0.9539,-0.8849,-0.7952,0.0,0.0,0.0,0.0,0.0,0.0,0.0,0.0,-0.4491,-0.4491,0.0,0.0,0.0,0.0,0.0,0.0,0.0,0.0,0.0,0.0,0.0,0.0,-0.5577,-0.6015,-0.6274,-0.6417,-0.6671,-0.6861,-0.6764,-0.7049,-0.7073,-0.587,-0.594,-0.5957,-0.4759,-0.4491,-0.4491,-0.4491,-0.4491,-0.4991,-0.6502,-0.6861,-0.7381,-0.8567,0.0,0.0,0.0,0.0,0.0,0.0,0.0,0.0,0.0,0.0,0.0,0.0,0.0,-1.8951,-1.9417,-1.9172,-1.9065,-1.9065,-1.8771,-1.8524,-1.8268,-1.8175,-1.8023,-1.7729,-1.7729,0.0,0.0,0.0,0.0,0.0,-1.7582,-1.7582,-1.7562,-1.7414,-1.728,-1.7152,-1.675,-1.6482,-1.6295,0.0,0.0,0.0,0.0,0.0,0.0,-0.3633,-0.3816,-0.3949,-0.3863,-0.3866,-0.408,-0.4619,-0.5714,-0.6585,-0.7045,-0.7701,0.0,0.0,0.0,0.0,0.0,0.0,0.0,-0.8804,-0.8804,-0.9005,-0.9377,-0.9377,-0.9559,-0.9846,-0.8884,-0.7942,-0.7056,-0.6067,0.0,0.0,0.0,0.0,0.0,-0.4491,-0.4491,-0.4491,0.0,0.0,0.0,0.0,0.0,0.0,0.0,0.0,0.0,0.0,0.0,0.0,0.0,-0.5114,-0.5572,-0.5803,-0.6081,-0.6271,-0.6163,-0.6493,-0.6571,-0.5542,-0.5661,-0.5722,-0.471,-0.4491,-0.4491,-0.4491,-0.4491,-0.4962,-0.641,-0.6776,-0.7164,-0.7927,0.0,0.0,0.0,0.0,0.0,0.0,0.0,0.0,0.0,0.0,0.0,0.0,0.0,-1.8427,-1.825,-1.8562,-1.8764,-1.8764,-1.847,-1.823,-1.7995,-1.7876,-1.7769,-1.7582,0.0,0.0,0.0,0.0,0.0,0.0,-1.7582,-1.7515,-1.7454,-1.7273,-1.7065,-1.6824,-1.6455,-1.6206,-1.6079,0.0,0.0,0.0,0.0,0.0,0.0,0.0,-0.3263,-0.3563,-0.3583,-0.3802,-0.395,-0.3964,-0.535,-0.6314,-0.6381,-0.7808,0.0,0.0,0.0,0.0,0.0,0.0,0.0,-0.8804,-0.8804,-0.9098,-0.9715,-0.9706,-0.9873,-1.015,-0.9199,-0.819,-0.7107,-0.6171,-0.5288,0.0,0.0,0.0,0.0,-0.4491,-0.4491,0.0,0.0,0.0,0.0,0.0,0.0,0.0,0.0,0.0,0.0,0.0,0.0,0.0,0.0,0.0,0.0,0.0,-0.5718,-0.5861,-0.5745,-0.5715,-0.561,-0.5147,-0.4958,0.0,-0.4552,-0.4491,-0.4501,-0.4532,-0.4522,-0.488,-0.6046,-0.66,-0.7089,0.0,-0.8407,0.0,0.0,0.0,0.0,0.0,0.0,0.0,0.0,0.0,0.0,0.0,0.0,0.0,-1.6301,-1.745,-1.8147,-1.8174,-1.8048,-1.7901,-1.7787,-1.7662,-1.7582,-1.7582,0.0,0.0,0.0,0.0,0.0,0.0,-1.7562,-1.744,-1.7199,-1.7152,-1.6804,-1.6321,-1.6253,-1.6066,-1.5784,0.0,0.0,0.0,0.0,0.0,0.0,0.0,0.0,0.0,0.0,-0.342,-0.3529,-0.367,-0.4622,-0.5524,0.0,0.0,0.0,0.0,0.0,0.0,0.0,0.0,0.0,-0.8804,-0.8804,-0.9098,-0.9715,-0.9907,-1.0281,-1.0749,-0.9221,-0.8249,-0.772,-0.5902,-0.4889,0.0,0.0,0.0,0.0,-0.4491,-0.4491,0.0,0.0,0.0,0.0,-0.4491,-0.4598,0.0,0.0,0.0,0.0,0.0,0.0,0.0,0.0,-0.4515,-0.4576,-0.472,0.0,-0.4969,-0.4846,-0.4897,-0.4894,0.0,-0.4684,-0.4691,-0.4528,-0.4491,-0.4597,-0.4911,-0.4789,-0.505,-0.6236,-0.654,-0.6827,0.0,0.0,0.0,0.0,0.0,0.0,0.0,0.0,0.0,0.0,0.0,0.0,0.0,0.0,0.0,-1.5599,-1.4896,-1.4604,-1.4845,-1.6744,-1.7145,-1.5999,-1.7073,-1.7582,-1.7582,0.0,0.0,0.0,0.0,0.0,0.0,-1.7393,-1.7266,-1.7159,-1.6703,-1.6442,-1.6246,-1.6019,-1.5885,-1.5784,0.0,0.0,0.0,0.0,0.0,0.0,0.0,0.0,0.0,0.0,-0.3262,-0.3387,-0.3583,-0.4381,-0.5114,0.0,0.0,0.0,0.0,0.0,0.0,0.0,0.0,-0.8804,-0.8804,-0.8804,-0.9098,-0.9715,-0.984,-1.0065,-1.0276,-0.8882,-0.7859,-0.7178,-0.5485,-0.4644,0.0,0.0,0.0,-0.4491,-0.4491,0.0,0.0,0.0,0.0,0.0,-0.4491,-0.4491,0.0,-0.4491,-0.4491,-0.4491,0.0,0.0,0.0,0.0,-0.4491,-0.4491,-0.4491,-0.4655,-0.4775,-0.4694,-0.4735,-0.4772,-0.4691,-0.4655,-0.459,-0.4508,-0.4491,-0.4586,-0.487,-0.4908,-0.5152,-0.5939,-0.6334,0.0,0.0,0.0,0.0,0.0,0.0,0.0,0.0,0.0,0.0,0.0,0.0,0.0,0.0,0.0,0.0,0.0,-1.3696,-1.3379,-1.3496,-1.4897,-1.553,-1.5417,-1.6227,-1.6935,-1.7582,0.0,0.0,0.0,0.0,0.0,-1.7414,-1.7068,-1.6918,-1.6764,-1.6449,-1.6186,-1.6052,-1.5885,-1.5784,-1.5784,0.0,0.0,0.0,0.0,0.0,0.0,0.0,0.0,0.0,0.0,0.0,0.0,0.0,0.0,0.0,0.0,0.0,0.0,0.0,0.0,0.0,0.0,-0.8784,-0.8831,-0.8871,-0.8831,-0.9098,-0.9715,-0.9802,-0.9716,-0.9465,-0.86,-0.7455,-0.6143,-0.5031,-0.4511,-0.4491,0.0,-0.4491,-0.4491,-0.4491,0.0,0.0,0.0,0.0,0.0,0.0,0.0,0.0,-0.4484,-0.4491,-0.4491,-0.4491,0.0,0.0,0.0,0.0,0.0,-0.4545,-0.4755,-0.4969,-0.4901,-0.4887,-0.4914,-0.4894,-0.4718,-0.4559,-0.4559,-0.4559,-0.4627,-0.4819,-0.5064,-0.5322,-0.5732,0.0,0.0,0.0,0.0,0.0,0.0,0.0,0.0,0.0,0.0,0.0,0.0,0.0,0.0,0.0,0.0,0.0,0.0,-1.2729,-1.262,-1.262,-1.3048,-1.3804,-1.477,-1.4984,-1.5743,-1.6935,-1.7101,0.0,0.0,0.0,0.0,-1.7112,-1.676,-1.65,-1.6266,-1.6219,-1.6052,-1.5784,-1.5784,-1.5784,-1.5784,0.0,0.0,0.0,0.0,0.0,0.0,0.0,0.0,0.0,0.0,0.0,0.0,0.0,0.0,0.0,0.0,0.0,0.0,0.0,0.0,0.0,-0.843,-0.8677,-0.8898,-0.9138,-0.8904,-0.9098,-0.9715,-1.0211,-1.013,-0.9477,-0.9101,-0.7628,-0.5273,-0.4855,-0.461,-0.4491,-0.4491,-0.4491,-0.4491,0.0,0.0,0.0,0.0,0.0,0.0,0.0,0.0,0.0,-0.445,-0.4491,-0.4491,-0.4491,0.0,0.0,0.0,0.0,0.0,-0.4779,-0.5067,-0.5235,-0.4819,-0.4914,-0.5036,-0.4918,-0.488,-0.485,-0.485,-0.485,-0.5009,-0.5535,-0.5667,-0.5922,0.0,0.0,0.0,0.0,0.0,0.0,0.0,0.0,0.0,0.0,0.0,0.0,0.0,0.0,0.0,0.0,0.0,0.0,0.0,0.0,-0.9592,-0.9592,-1.2023,-1.2778,-1.1755,-1.3048,-1.375,-1.4014,-1.4983,-1.5413,0.0,0.0,0.0,-1.6754,-1.646,-1.6362,-1.6246,-1.5999,-1.5872,-1.5784,-1.5784,-1.5784,-1.5784,0.0,0.0,0.0,0.0,0.0,0.0,0.0,0.0,0.0,0.0,0.0,0.0,0.0,0.0,0.0,0.0,0.0,0.0,0.0,0.0,-0.734,-0.7892,-0.8338,-0.8711,-0.8971,-0.9004,-0.9252,-0.9715,-1.0114,-0.9805,-0.8767,-0.7513,-0.6217,-0.4884,-0.4692,-0.4556,-0.4491,-0.4491,-0.4491,-0.4491,0.0,0.0,0.0,0.0,0.0,0.0,0.0,0.0,0.0,0.0,-0.4277,-0.4345,-0.4345,0.0,0.0,0.0,0.0,0.0,-0.4662,-0.4894,-0.5091,-0.4958,-0.5241,-0.5565,-0.5501,-0.542,-0.5376,-0.5298,-0.5281,-0.5586,-0.6545,0.0,-0.6672,-0.8199,0.0,0.0,0.0,0.0,0.0,0.0,0.0,0.0,0.0,0.0,0.0,0.0,0.0,0.0,0.0,0.0,0.0,0.0,0.0,0.0,-0.8693,-1.001,-1.0798,-1.1007,-1.1702,-1.2331,-1.3063,-1.3585,-1.3795,0.0,0.0,-1.4748,-1.5376,-1.51,-1.5393,-1.6019,-1.5879,-1.5784,-1.5784,-1.5784,-1.5784,-1.5784,0.0,0.0,0.0,0.0,0.0,0.0,0.0,0.0,0.0,0.0,0.0,0.0,0.0,0.0,0.0,0.0,0.0,0.0,0.0,-0.6026,-0.6907,-0.738,-0.7959,-0.8504,-0.8998,-0.9131,-0.9391,-0.9786,-0.9862,-0.9231,-0.7841,-0.5992,-0.4941,-0.4684,-0.4597,-0.4525,-0.4491,-0.4491,-0.4491,-0.4491,0.0,0.0,0.0,0.0,0.0,0.0,0.0,0.0,0.0,0.0,0.0,0.0,0.0,0.0,0.0,-0.4491,-0.4491,-0.4505,-0.458,-0.4741,-0.4931,-0.5138,-0.547,-0.5828,-0.6044,-0.5935,-0.581,-0.5844,-0.582,-0.6198,-0.7481,-0.7622,0.0,-0.9934,0.0,0.0,0.0,0.0,0.0,0.0,0.0,0.0,0.0,0.0,0.0,0.0,0.0,0.0,0.0,0.0,0.0,0.0,0.0,0.0,-0.8482,-0.8482,-0.9113,-1.0339,-1.0339,-1.084,-1.1779,-1.2091,-1.2169,-1.2205,-1.2594,-1.3281,-1.4203,-1.4298,-1.4902,-1.5784,-1.5784,-1.5784,-1.5784,-1.5784,-1.5784,-1.5784,0.0,0.0,0.0,0.0,0.0,0.0,0.0,0.0,0.0,0.0,0.0,0.0,0.0,0.0,0.0,0.0,0.0,0.0,0.0,-0.5065,-0.5934,-0.7074,-0.7645,-0.8458,-0.9599,-0.9344,-0.9491,-1.0087,-0.9593,-0.8544,-0.6975,-0.5685,-0.4941,-0.4691,-0.4677,-0.4624,-0.4491,-0.4491,-0.4491,-0.4491,-0.4491,0.0,0.0,0.0,0.0,0.0,0.0,0.0,0.0,0.0,0.0,0.0,0.0,0.0,-0.4491,-0.4491,-0.4491,-0.4552,-0.4809,-0.487,-0.4989,-0.5306,-0.5267,-0.5346,-0.6122,-0.6017,-0.5956,-0.6505,-0.6508,-0.6806,-0.8084,-0.9672,0.0,0.0,0.0,0.0,0.0,0.0,0.0,0.0,0.0,0.0,0.0,0.0,0.0,0.0,0.0,0.0,0.0,0.0,0.0,0.0,0.0,0.0,-0.8482,-0.8482,-0.8538,-0.8653,-0.8653,-0.8699,-0.8839,-0.9906,-1.0382,-1.0521,-1.2791,-1.3854,-1.3998,-1.5201,-1.573,-1.5784,-1.5784,-1.5784,-1.5784,-1.5784,-1.5784,-1.5784,0.0,0.0,0.0,0.0,0.0,0.0,0.0,0.0,0.0,0.0,0.0,0.0,0.0,0.0,0.0,0.0,0.0,0.0,0.0,-0.4371,-0.5195,-0.6196,-0.6984,-0.7871,-0.8858,-0.9292,-0.9332,-0.8926,-0.7894,-0.7024,-0.6332,-0.5333,-0.4748,-0.4576,-0.4576,-0.4545,-0.4491,-0.4491,-0.4491,-0.4491,-0.4491,-0.4317,0.0,0.0,0.0,0.0,0.0,0.0,0.0,0.0,-0.393,-0.4075,-0.4056,-0.4262,-0.447,-0.4355,-0.4301,-0.4375,-0.4579,-0.4772,-0.4989,-0.532,-0.5423,-0.5589,-0.6282,-0.6519,-0.6725,-0.7051,-0.7115,-0.7433,-0.8609,0.0,-1.3357,0.0,0.0,0.0,0.0,0.0,0.0,0.0,0.0,0.0,0.0,0.0,0.0,0.0,0.0,0.0,0.0,0.0,0.0,0.0,0.0,0.0,0.0,-0.8208,-0.8208,-0.8208,-0.8303,-0.8299,-0.8204,-0.8643,-0.8811,-0.8907,-0.9826,-1.0721,-1.1502,-1.1989,-1.3151,-1.4704,-1.5486,-1.5784,-1.5784,-1.5784,-1.5784,-1.5784,0.0,0.0,0.0,0.0,0.0,0.0,0.0,0.0,0.0,0.0,0.0,0.0,0.0,0.0,0.0,0.0,0.0,0.0,-0.3368,-0.3966,-0.4675,-0.541,-0.6398,-0.7266,-0.797,-0.8701,-0.8777,-0.8195,-0.6822,-0.5952,-0.5579,-0.4926,-0.459,-0.4491,-0.4491,-0.4491,-0.4491,-0.4491,-0.4491,-0.4491,-0.4491,-0.431,0.0,0.0,0.0,0.0,0.0,0.0,0.0,0.0,-0.3782,-0.3944,-0.3938,-0.4148,-0.4375,-0.425,-0.4287,-0.4372,-0.4477,-0.4684,-0.4989,-0.532,-0.5579,-0.5884,-0.6481,-0.6817,-0.7112,-0.7502,-0.7827,-0.8345,-0.9559,-1.2355,0.0,0.0,0.0,0.0,0.0,0.0,0.0,0.0,0.0,0.0,0.0,0.0,0.0,0.0,0.0,0.0,0.0,0.0,0.0,0.0,0.0,0.0,0.0,-0.7988,-0.7988,-0.7992,-0.8147,-0.8143,-0.7988,-0.7988,-0.7988,-0.8038,-0.8432,-0.9167,-1.0047,-1.044,-1.1648,-1.3392,-1.4704,-1.5194,-1.5242,-1.5635,-1.5784,-1.5784,0.0,0.0,0.0,0.0,0.0,0.0,0.0,0.0,0.0,0.0,0.0,0.0,0.0,0.0,0.0,0.0,0.0,0.0,-0.3293,-0.386,-0.4393,-0.4872,-0.5974,-0.6747,-0.708,-0.7473,-0.7841,-0.8161,-0.6701,-0.5534,-0.4684,-0.4559,-0.4487,-0.4491,-0.4491,-0.4491,-0.4487,-0.4487,-0.4487,-0.4487,-0.4487,-0.431,-0.3994,0.0,0.0,0.0,0.0,0.0,0.0,0.0,-0.3788,-0.3843,-0.4119,-0.419,-0.4197,-0.4194,-0.4429,-0.4653,-0.4532,-0.4687,-0.4992,-0.532,-0.5701,-0.6155,-0.6755,-0.6817,-0.6963,-0.7806,-0.8704,-0.9718,-1.1053,-1.2341,0.0,0.0,0.0,0.0,0.0,0.0,0.0,0.0,0.0,0.0,0.0,0.0,0.0,0.0,0.0,0.0,0.0,0.0,0.0,0.0,0.0,0.0,0.0,-0.7988,-0.7988,-0.7988,-0.7988,-0.7988,-0.7988,-0.7988,-0.7988,-0.8088,-0.941,-0.9998,-1.0096,-1.1361,-1.1896,-1.2042,-1.3343,-1.3878,-1.4022,-1.5289,-1.5784,-1.5778,0.0,0.0,0.0,0.0,0.0,0.0,0.0,0.0,0.0,0.0,0.0,0.0,0.0,0.0,0.0,0.0,0.0,0.0,-0.3017,-0.3266,-0.3717,-0.4384,-0.4958,-0.5439,-0.5818,-0.567,-0.5899,-0.6519,-0.5318,-0.4588,-0.4351,-0.4308,-0.4365,-0.4491,-0.4491,-0.4433,-0.4284,-0.4284,-0.4284,-0.4284,-0.4284,-0.4169,-0.3994,0.0,0.0,0.0,0.0,0.0,0.0,0.0,0.0,0.0,-0.3782,-0.3971,-0.4174,-0.4095,-0.42,-0.4365,-0.4474,-0.4758,-0.511,-0.5447,-0.6017,-0.663,-0.7129,-0.7288,-0.7468,-0.7894,-0.8751,-0.9539,-0.9966,-1.113,0.0,0.0,0.0,0.0,0.0,0.0,0.0,0.0,0.0,0.0,0.0,0.0,0.0,0.0,0.0,0.0,0.0,0.0,0.0,0.0,0.0,0.0,0.0,0.0,-0.7988,-0.7988,-0.7988,-0.7988,-0.7988,-0.7988,-0.7988,-0.8038,-0.8432,-0.8577,-0.8676,-0.9998,-1.0583,-1.0681,-1.1994,-1.2474,-1.2528,-1.2915,-1.3638,-1.4459,0.0,0.0,0.0,0.0,0.0,0.0,0.0,0.0,0.0,0.0,-0.2761,-0.2818,0.0,0.0,0.0,0.0,0.0,0.0,-0.2907,-0.2969,-0.3266,-0.3811,-0.4278,-0.4686,-0.5057,-0.4823,-0.4791,-0.5019,-0.44,-0.4137,-0.4197,-0.4197,-0.4297,-0.4491,-0.4491,-0.4382,-0.4197,-0.4197,-0.4197,-0.4197,-0.4197,-0.4132,-0.3994,0.0,0.0,0.0,0.0,0.0,0.0,0.0,0.0,0.0,-0.3696,-0.3849,-0.4035,-0.4004,-0.4186,-0.4429,-0.4606,-0.5013,-0.5484,-0.585,-0.641,-0.7007,-0.7519,-0.7709,-0.7824,-0.7951,-0.845,-0.9027,-0.9578,-1.0336,0.0,0.0,0.0,0.0,0.0,0.0,0.0,0.0,0.0,0.0,0.0,0.0,0.0,0.0,0.0,0.0,0.0,0.0,0.0,0.0,0.0,0.0,0.0,0.0,0.0,-0.7988,-0.7988,-0.7988,-0.7988,-0.7988,-0.7988,-0.7988,-0.7988,-0.7988,-0.8088,-0.8871,-0.9217,-0.9316,-1.0632,-1.117,-1.1263,-1.2328,-1.3199,-1.3974,0.0,0.0,-0.0501,-0.0067,0.0,0.0,0.0,0.0,0.0,-0.2513,-0.263,-0.265,0.0,0.0,0.0,-0.2696,-0.2696,-0.2757,0.0,-0.289,-0.3,-0.3276,-0.3827,-0.429,-0.46,-0.4604,-0.4326,-0.3771,-0.3924,-0.4051,-0.4174,-0.4174,-0.4284,-0.4491,-0.4474,-0.4362,-0.4174,-0.416,-0.4153,-0.4153,-0.4153,-0.4099,-0.3974,-0.3974,0.0,0.0,0.0,0.0,0.0,0.0,0.0,0.0,-0.3754,-0.3782,-0.3819,-0.3958,-0.4307,-0.4687,-0.4853,-0.5321,-0.5871,-0.6375,-0.681,-0.7267,-0.784,-0.7968,-0.7971,-0.7985,-0.788,-0.8212,-0.9579,0.0,0.0,0.0,0.0,0.0,0.0,0.0,0.0,0.0,0.0,0.0,0.0,0.0,0.0,0.0,0.0,0.0,0.0,0.0,0.0,0.0,0.0,0.0,0.0,0.0,0.0,0.0,-0.7988,-0.7988,-0.7988,-0.7988,-0.7988,-0.7988,-0.7988,-0.7988,-0.7988,-0.7988,-0.7988,-0.8137,-0.9361,-0.9805,-1.0092,-1.2469,-1.344,-1.3734,0.0,0.0,-0.0112,-0.0017,0.0,0.0,0.0,0.0,-0.1141,-0.2031,-0.2147,-0.2297,-0.2666,-0.2696,0.0,-0.2696,-0.2696,-0.2713,-0.2744,-0.2747,-0.2862,-0.3138,-0.3524,-0.3759,-0.3824,-0.3827,-0.3782,-0.3648,-0.3771,-0.3921,-0.4045,-0.4045,-0.4209,-0.4484,-0.4345,-0.4183,-0.4035,-0.3941,-0.389,-0.389,-0.389,-0.387,-0.3839,-0.3839,-0.3731,0.0,0.0,0.0,0.0,0.0,0.0,0.0,-0.3638,-0.3723,-0.3799,-0.3829,-0.4055,-0.4375,-0.4667,-0.5122,-0.5627,-0.6201,-0.6859,-0.7417,-0.7777,-0.7862,-0.7892,-0.7965,-0.7965,-0.805,0.0,0.0,0.0,0.0,0.0,0.0,0.0,0.0,0.0,0.0,0.0,0.0,0.0,0.0,0.0,0.0,0.0,0.0,0.0,0.0,0.0,0.0,0.0,0.0,-0.7988,-0.7988,-0.7988,0.0,-0.7988,-0.7988,-0.7988,-0.7988,-0.7988,-0.7988,-0.7988,-0.7988,-0.7988,-0.7988,-0.7988,-0.8038,-0.8333,-0.8432,-0.8478,-0.9065,-0.9944,-1.0872,0.0,0.0,0.0,0.0,0.0,0.0,0.0,0.0,-0.1008,-0.188,-0.1997,-0.2181,-0.2646,-0.2696,0.0,0.0,-0.2696,-0.2696,-0.2696,-0.2696,-0.2812,-0.3087,-0.3323,-0.347,-0.3512,-0.3276,-0.3147,-0.308,-0.292,-0.3239,-0.3998,-0.4068,-0.4246,-0.4484,-0.4284,-0.4095,-0.39,-0.3751,-0.3713,-0.3713,-0.3713,-0.3713,-0.3713,-0.3713,-0.3554,-0.3371,-0.3442,0.0,0.0,0.0,0.0,0.0,0.0,0.0,-0.3726,-0.3771,-0.3984,-0.4274,-0.4697,-0.5176,-0.5752,-0.6495,-0.7027,-0.7431,-0.7658,-0.7709,-0.7733,-0.7814,-0.7891,0.0,0.0,0.0,0.0,0.0,0.0,0.0,0.0,0.0,0.0,0.0,0.0,0.0,0.0,0.0,0.0,0.0,0.0,0.0,0.0,0.0,0.0,0.0,0.0,0.0,-0.7988,-0.7988,-0.7988,-0.7988,-0.7988,-0.7988,-0.7988,-0.7988,-0.7988,-0.7988,-0.7988,-0.7988,-0.7988,-0.7988,-0.7988,-0.7988,-0.7988,-0.7988,-0.8088,-0.8726,-0.941,-1.0096,0.0,0.0,0.0,0.0,0.0,0.0,0.0,0.0,0.0,-0.1761,-0.1878,-0.2095,-0.2646,-0.2696,-0.2696,0.0,0.0,0.0,-0.2696,-0.2723,-0.2829,-0.3054,-0.3189,-0.329,-0.3355,-0.29,-0.262,-0.2493,-0.2051,-0.2467,-0.3654,-0.3772,-0.3975,-0.4288,-0.4071,-0.3915,-0.3819,-0.3622,-0.3541,-0.3537,-0.3532,-0.3522,-0.3522,-0.3522,-0.3344,-0.3098,-0.3142,-0.3208,-0.3293,-0.3404,0.0,0.0,0.0,0.0,-0.3542,-0.3566,-0.3817,-0.4193,-0.4587,-0.5233,-0.5973,-0.6805,-0.718,-0.7339,-0.7519,-0.756,-0.7567,-0.7594,0.0,0.0,0.0,0.0,0.0,0.0,0.0,0.0,0.0,0.0,0.0,0.0,0.0,0.0,0.0,0.0,0.0,0.0,0.0,0.0,0.0,0.0,0.0,0.0,0.0,-0.7988,-0.7988,-0.7988,-0.7988,-0.7988,-0.7988,-0.7988,-0.7988,-0.7988,-0.7988,-0.7988,-0.7988,-0.7988,-0.7988,-0.7988,-0.7988,-0.7988,-0.7988,-0.7988,-0.8137,-0.9266,-0.9657,-0.9805,0.0,0.0,0.0,0.0,0.0,0.0,0.0,0.0,0.0,0.0,-0.139,-0.1723,-0.2596,-0.2696,-0.2696,-0.2696,-0.2331,-0.2264,-0.2679,0.0,0.0,-0.2919,-0.3057,-0.3131,-0.3131,-0.2741,-0.2517,-0.2493,-0.2155,-0.2073,-0.2267,-0.2283,-0.2702,-0.3445,-0.318,-0.3396,-0.3937,-0.351,-0.3336,-0.3326,-0.3216,-0.3162,-0.3162,-0.3162,-0.3135,-0.3066,-0.2735,-0.2838,-0.3096,-0.2894,-0.3043,0.0,0.0,0.0,0.0,-0.2808,-0.3159,-0.3707,-0.389,-0.4762,-0.5803,-0.6569,-0.6875,-0.7061,-0.7339,-0.7446,-0.7441,0.0,0.0,0.0,0.0,0.0,0.0,0.0,0.0,0.0,0.0,0.0,0.0,0.0,0.0,0.0,0.0,0.0,0.0,0.0,0.0,0.0,0.0,0.0,-0.7988,-0.7988,-0.7988,0.0,-0.7988,-0.7988,-0.7988,-0.7988,-0.7988,-0.7988,-0.7988,-0.7988,-0.7988,-0.7988,-0.7988,-0.7988,-0.7988,-0.7988,-0.7988,-0.7988,-0.7988,-0.7988,-0.8038,-0.8187,-0.8283,-0.8283,0.0,0.0,0.0,0.0,0.0,0.0,0.0,0.0,0.0,0.0,0.0,-0.1206,-0.184,-0.1923,-0.1923,-0.1923,-0.1723,-0.1809,-0.2281,-0.2367,0.0,-0.2889,-0.2704,-0.2716,-0.2983,-0.2078,-0.1668,-0.1821,-0.1182,-0.0885,-0.0876,-0.0888,-0.1815,-0.3436,-0.2722,-0.2817,-0.3442,-0.2678,-0.2475,-0.2685,-0.2617,-0.2913,-0.333,-0.2803,-0.2713,-0.2806,-0.2202,-0.2102,-0.2258,-0.2206,-0.2534,-0.2879,-0.2352,0.0,0.0,0.0,-0.2935,-0.3553,-0.4141,-0.4897,-0.5658,-0.6327,-0.6566,-0.6753,-0.7054,-0.7122,-0.7166,0.0,0.0,0.0,0.0,0.0,0.0,0.0,0.0,0.0,0.0,0.0,0.0,0.0,0.0,0.0,0.0,0.0,0.0,0.0,0.0,0.0,0.0,-0.7834,-0.7831,-0.7909,-0.7834,0.0,-0.7794,-0.7794,-0.7794,-0.7794,-0.7794,-0.7794,-0.7794,-0.7794,-0.7833,-0.7988,-0.7988,-0.7988,-0.7988,-0.7988,-0.7938,-0.7913,-0.7913,-0.7865,-0.7794,-0.7794,-0.7794,-0.7794,0.0,0.0,0.0,0.0,0.0,0.0,0.0,0.0,0.0,0.0,0.0,-0.0856,-0.1256,0.0,0.0,0.0,-0.1206,-0.1291,-0.1644,0.0,0.0,0.0,-0.2151,-0.2134,-0.2493,-0.142,-0.0954,-0.1144,-0.0377,-0.0102,-0.0277,-0.0076,-0.12,-0.3285,-0.2211,-0.2123,-0.2762,-0.1958,-0.1764,-0.205,-0.1995,-0.2394,-0.2932,-0.2243,-0.212,-0.2266,-0.1614,-0.1438,-0.1533,-0.1561,-0.1948,-0.2328,-0.1759,0.0,0.0,0.0,0.0,-0.3156,-0.4046,-0.4647,-0.5208,-0.5849,-0.6177,-0.6383,-0.6688,0.0,0.0,0.0,0.0,0.0,0.0,0.0,0.0,0.0,0.0,0.0,0.0,0.0,0.0,0.0,0.0,0.0,0.0,0.0,0.0,0.0,0.0,0.0,-0.775,-0.7658,-0.7648,-0.7753,-0.7655,-0.76,-0.76,-0.76,-0.76,-0.76,-0.76,-0.76,-0.76,-0.76,-0.7719,-0.7877,-0.7877,-0.7877,-0.7877,-0.7877,-0.7862,-0.7756,-0.7756,-0.7692,-0.76,-0.76,-0.76,-0.76,0.0,0.0,0.0,0.0,0.0,0.0,0.0,0.0,0.0,0.0,0.0,-0.0856,-0.1256,-0.1305,-0.1305,-0.1305,-0.0956,-0.0739,-0.0773,0.0,0.0,0.0,-0.1362,0.0,-0.1378,-0.0942,-0.0722,-0.0728,-0.0242,-0.0355,-0.1034,-0.0328,-0.0915,-0.2495,-0.1445,-0.1355,-0.203,-0.1733,-0.1601,-0.1616,-0.1419,-0.1379,-0.1404,-0.1358,-0.1357,-0.1314,-0.0906,-0.0985,-0.1278,0.0,-0.1258,-0.1574,-0.109,-0.1282,-0.1577,0.0,0.0,0.0,-0.2979,-0.3615,-0.424,-0.4975,-0.5515,-0.5915,0.0,0.0,0.0,0.0,0.0,0.0,0.0,0.0,0.0,0.0,0.0,0.0,0.0,0.0,0.0,0.0,0.0,0.0,0.0,0.0,0.0,0.0,0.0,0.0,-0.7611,-0.7604,-0.7604,-0.7611,-0.7604,-0.76,-0.76,-0.76,-0.76,-0.76,-0.76,-0.76,-0.76,-0.76,-0.7607,-0.7624,-0.7624,-0.7624,-0.7624,-0.7624,-0.7617,-0.7611,-0.7611,-0.7607,-0.76,-0.76,-0.76,-0.76,0.0,0.0,0.0,0.0,0.0,0.0,0.0,0.0,0.0,0.0,0.0,0.0,0.0,-0.0469,-0.0469,-0.0469,-0.0336,0.0,0.0,0.0,0.0,0.0,-0.1056,-0.1039,-0.1288,-0.0618,-0.0393,-0.0705,-0.0225,-0.0127,-0.0383,-0.0116,-0.0329,-0.0887,-0.0496,-0.0783,-0.1494,-0.085,-0.0755,-0.102,-0.0936,-0.1241,-0.1684,-0.1133,-0.1063,-0.1214,-0.051,-0.0338,0.0,0.0,0.0,-0.1045,-0.0488,-0.0916,-0.1542,-0.1187,-0.1396,-0.1829,-0.2279,-0.289,-0.3582,-0.4241,-0.489,-0.5474,-0.5874,0.0,0.0,0.0,0.0,0.0,0.0,0.0,0.0,0.0,0.0,0.0,0.0,0.0,0.0,0.0,0.0,0.0,0.0,0.0,0.0,0.0,0.0,0.0,-0.7448,-0.736,-0.735,-0.7451,-0.7356,-0.726,-0.726,-0.726,-0.726,-0.726,-0.726,-0.726,-0.726,-0.726,-0.726,-0.726,-0.726,-0.7417,-0.76,-0.76,-0.7543,-0.7455,-0.7455,-0.739,-0.726,-0.726,-0.726,-0.726,0.0,0.0,0.0,0.0,0.0,0.0,0.0,0.0,0.0,0.0,0.0,0.0,0.0,0.0,0.0,0.0,0.0,-0.0134,-0.0437,-0.0462,0.0,0.0,0.0,-0.0593,-0.0854,-0.0295,-0.0151,-0.0461,-0.0151,-0.0134,-0.0362,-0.0126,-0.0139,-0.0366,-0.0107,-0.0333,-0.0835,-0.0243,-0.0181,-0.0454,-0.046,-0.0803,-0.1251,-0.0692,-0.0625,-0.0796,-0.0204,0.0,0.0,0.0,0.0,0.0,-0.0134,-0.0496,-0.1034,-0.0895,-0.1072,-0.1347,-0.1565,-0.2136,-0.283,-0.3593,-0.4155,-0.4719,-0.5417,0.0,0.0,0.0,0.0,0.0,0.0,0.0,0.0,0.0,0.0,0.0,0.0,0.0,0.0,0.0,0.0,0.0,0.0,0.0,0.0,0.0,0.0,0.0,-0.7288,-0.7197,-0.7142,-0.7292,-0.7149,-0.7095,-0.7095,-0.7095,-0.7095,-0.7095,-0.7095,-0.7095,-0.7095,-0.7095,-0.7095,-0.7095,-0.7095,-0.7213,-0.7444,-0.7444,-0.7387,-0.7292,-0.7292,-0.7231,-0.7095,-0.7095,-0.7095,-0.7095,0.0,0.0,0.0,0.0,0.0,0.0,0.0,0.0,0.0,0.0,0.0,0.0,0.0,0.0,0.0,0.0,0.0,0.0,0.0,0.0,0.0,0.0,0.0,0.0,0.0,0.0,0.0,0.0,0.0,-0.037,-0.1046,-0.0343,-0.0387,-0.1024,-0.0325,0.0,0.0,0.0,0.0,0.0,0.0,0.0,0.0,0.0,0.0,0.0,0.0,0.0,0.0,0.0,0.0,0.0,0.0,0.0,0.0,0.0,-0.0316,-0.0714,0.0,0.0,0.0,0.0,0.0,0.0,0.0,0.0,0.0,0.0,0.0,0.0,0.0,0.0,0.0,0.0,0.0,0.0,0.0,0.0,0.0,0.0,0.0,0.0,0.0,0.0,0.0,0.0,0.0,-0.7088,-0.7085,-0.7085,-0.7085,-0.7088,-0.7088,-0.7092,-0.7095,-0.7095,-0.7095,-0.7095,-0.7095,-0.7095,-0.7095,-0.7095,-0.7095,-0.7095,-0.7095,-0.7095,-0.7095,-0.7095,-0.7095,-0.7095,-0.7095,-0.7095,-0.7095,-0.7095,-0.7095,-0.7095,0.0067,0.0,0.0,0.0,0.0,0.0,0.0,0.0,0.0,0.0,0.0,0.0,0.0,0.0,0.0,0.0,0.0,0.0,0.0,0.0,0.0,0.0,0.0,0.0,0.0,0.0,0.0,0.0,0.0,-0.0101,-0.0305,-0.0101,-0.0113,-0.0296,-0.0085,0.0,0.0,0.0,0.0,0.0,0.0,0.0,0.0,0.0,0.0,0.0,0.0,0.0,0.0,0.0,0.0,0.0,0.0,0.0,0.0,0.0,-0.01,-0.021,-0.0235,0.0,0.0,0.0,0.0,0.0,0.0,0.0,0.0,0.0,0.0,0.0,0.0,0.0,0.0,0.0,0.0,0.0,0.0,0.0,0.0,0.0,0.0,0.0,0.0,0.0,0.0,0.0,0.0,-0.6896,-0.6827,-0.682,-0.6871,-0.694,-0.6943,-0.6994,-0.7095,-0.7095,-0.7095,-0.7095,-0.7095,-0.7095,-0.7095,-0.7095,-0.7095,-0.7095,-0.7095,-0.7095,-0.7095,-0.7095,-0.7095,-0.7095,-0.7095,-0.7095,-0.7095,-0.7095,-0.7095,-0.7095,0.005,0.0,0.0,0.0,0.0,0.0,0.0,0.0,0.0,0.0,0.0,0.0,0.0342,0.0432,0.0438,0.0383,0.0146,0.0,0.0,0.0,0.0,0.0,0.0,0.0,0.0,0.0,0.0,0.0,0.0,0.0,0.0,0.0,0.0,0.0,0.0,0.0,0.0,0.0,0.0,0.0,0.0,0.0,0.0,0.0,0.0,0.0,0.0,0.0,0.0,0.0,0.0,0.0,0.0,0.0,0.0,0.0,0.0,0.0,0.0,-0.0267,-0.0621,0.0,0.0,0.0,0.0,0.0,0.0,0.0,0.0,0.0,0.0,0.0,0.0,0.0,0.0,0.0,0.0,0.0,0.0,0.0,0.0,0.0,0.0,0.0,0.0,0.0,-0.6834,-0.6797,-0.6705,-0.6702,-0.6742,-0.6831,-0.6834,-0.6871,-0.6913,-0.6913,-0.6913,-0.6913,-0.6913,-0.6913,-0.6916,-0.6977,-0.7007,-0.7011,-0.7068,-0.7095,-0.7095,-0.7095,-0.7095,-0.7095,-0.7095,-0.7095,-0.7095,-0.7095,-0.7095,-0.7095,0.0,0.0169,0.0172,0.018,0.0183,0.0206,0.0216,0.0217,0.0217,0.0,0.0239,0.044,0.0987,0.1141,0.1167,0.1058,0.0518,0.018,0.0206,0.0169,0.0151,0.015,0.0107,0.0076,0.0084,0.0032,0.0,0.0,0.0,0.0,0.0,0.0,0.0,0.0,0.0,0.0,0.0,0.0,0.0,0.0,0.0,0.0,0.0,0.0,0.0,0.0,0.0,0.0,0.0,0.0,0.0,0.0,0.0,0.0,0.0,0.0,0.0,0.0,0.0,0.0,-0.0198,-0.0969,0.0,0.0,-0.2097,-0.2699,0.0,0.0,0.0,0.0,0.0,0.0,0.0,0.0,0.0,0.0,0.0,0.0,0.0,0.0,0.0,0.0,0.0,0.0,0.0,-0.6675,-0.6661,-0.6651,-0.6651,-0.6651,-0.6658,-0.6675,-0.6675,-0.6681,-0.6702,-0.6702,-0.6657,-0.6533,-0.6533,-0.645,-0.637,-0.6499,-0.6514,-0.652,-0.6642,-0.6693,-0.6693,-0.6709,-0.6858,-0.7095,-0.7095,-0.7095,-0.7095,-0.7095,-0.7095,-0.7095,0.1121,0.118,0.1292,0.1288,0.1369,0.1486,0.1598,0.152,0.1524,0.1749,0.1765,0.1813,0.1935,0.1874,0.1866,0.1945,0.1545,0.1325,0.1441,0.1188,0.1048,0.1054,0.074,0.0559,0.0571,0.0199,0.0,0.0,0.0,0.0,0.0,0.0,0.0,0.0,0.0,0.0,0.0,0.0,0.0,0.0,0.0,0.0,0.0,0.0,0.0,0.0,0.0,0.0,0.0,0.0,0.0,0.0,0.0,0.0,0.0,0.0,0.0,0.0,0.0,0.0,-0.0054,-0.0214,0.0,0.0,0.0,-0.1363,0.0,0.0,0.0,0.0,0.0,0.0,0.0,0.0,0.0,0.0,0.0,0.0,0.0,0.0,0.0,0.0,0.0,0.0,-0.6555,-0.6555,-0.645,-0.6385,-0.6385,-0.6385,-0.6436,-0.6552,-0.6555,-0.6576,-0.6698,-0.6702,-0.6277,-0.5394,-0.5394,-0.4978,-0.4189,-0.425,-0.4258,-0.4258,-0.4276,-0.4284,-0.4291,-0.4282,-0.5408,-0.7095,-0.7095,-0.7095,-0.7095,-0.7095,-0.7095,-0.7095,0.1338,0.1471,0.1594,0.1597,0.1705,0.184,0.1989,0.195,0.1969,0.2168,0.2558,0.2754,0.2659,0.2668,0.2666,0.2564,0.2086,0.1769,0.1704,0.1543,0.1406,0.1305,0.1109,0.0993,0.1005,0.0571,0.0441,0.0644,0.0343,0.0252,0.0353,0.0249,0.0122,0.0,0.0,0.0166,0.0423,0.012,0.0177,0.0411,0.0112,0.0,0.0,0.0,0.0,0.0,0.0,0.0,0.0039,0.0438,0.0322,0.0,0.0,0.0312,0.0,0.0,0.0,0.0,0.0,0.0,0.0,0.0,0.0,0.0,0.0,0.0,0.0,0.0,0.0,0.0,0.0,0.0,0.0,0.0,0.0,0.0,0.0,0.0,0.0,0.0,0.0,0.0,0.0,0.0,-0.6281,-0.6402,-0.634,-0.63,-0.63,-0.63,-0.633,-0.6405,-0.5883,-0.5637,-0.5706,-0.5178,-0.465,-0.4123,-0.4123,-0.3843,-0.3361,-0.3399,-0.346,-0.3505,-0.3586,-0.3604,-0.3606,-0.3606,-0.4284,-0.5416,-0.6022,-0.6605,-0.7095,-0.7095,-0.7095,-0.7085,0.1571,0.1747,0.1879,0.1863,0.2012,0.219,0.2301,0.2301,0.2364,0.2525,0.318,0.3556,0.3433,0.3493,0.3482,0.3298,0.2702,0.2257,0.2082,0.1956,0.1821,0.1682,0.1531,0.1467,0.1535,0.1068,0.0962,0.1256,0.0774,0.0598,0.073,0.0507,0.0284,0.0076,0.0016,0.0342,0.0901,0.0263,0.0463,0.1155,0.0,0.0169,0.0035,0.0225,0.031,0.0349,0.0508,0.0588,0.0699,0.1273,0.0925,0.0388,0.0961,0.0622,0.0,0.0,0.0,0.0,0.0,0.0,0.0,0.0,0.0,0.0,0.0,0.0,0.0,-0.0878,0.0,0.0,0.0,0.0,0.0,0.0,0.0,0.0,0.0,0.0,0.0,0.0,0.0,0.0,0.0,0.0,-0.5603,-0.5924,-0.5967,-0.597,-0.5976,-0.614,-0.615,-0.5983,-0.5157,-0.4608,-0.4414,-0.3552,-0.3007,-0.2813,-0.2813,-0.2696,-0.2501,-0.2631,-0.2695,-0.2739,-0.2873,-0.2896,-0.2898,-0.291,-0.3039,-0.3385,-0.4565,-0.5602,-0.6436,-0.6436,-0.6436,-0.6421,0.2547,0.2759,0.2889,0.2768,0.3114,0.3407,0.342,0.3423,0.352,0.376,0.4128,0.4425,0.4517,0.4287,0.425,0.4647,0.4023,0.3634,0.3715,0.3228,0.2972,0.3064,0.2338,0.2056,0.2359,0.1618,0.1203,0.1117,0.1061,0.0966,0.0867,0.0545,0.0383,0.0342,0.0101,0.0409,0.1025,0.0312,0.0898,0.0,0.1673,0.0862,0.0,0.106,0.143,0.1549,0.2425,0.2734,0.2761,0.0,0.2134,0.1406,0.0,0.0691,0.0,0.0,0.0,0.0,0.0,0.0,0.0,0.0,0.0,0.0,0.0,0.0,-0.0137,-0.013,0.0,0.0,0.0,0.0,0.0,0.0,0.0,0.0,0.0,0.0,0.0,0.0,0.0,0.0,0.0,0.0,0.0,-0.4626,-0.4697,-0.4754,-0.4862,-0.5601,-0.5695,-0.4919,-0.4766,-0.4256,-0.3279,-0.3163,-0.2657,-0.1762,-0.1762,-0.1254,-0.0353,-0.0354,-0.0394,-0.0394,-0.0395,-0.0396,-0.0396,-0.0405,-0.106,-0.2119,-0.3343,-0.3882,-0.4008,-0.4008,-0.4008,-0.4008,0.2696,0.2917,0.3057,0.2916,0.3283,0.3604,0.3604,0.3894,0.416,0.4286,0.4491,0.4653,0.4806,0.4633,0.4587,0.4864,0.0,0.4134,0.0,0.0,0.35,0.3483,0.3016,0.2777,0.285,0.2088,0.1775,0.1912,0.1444,0.1245,0.1304,0.1164,0.084,0.0399,0.04,0.0903,0.1683,0.0,0.1527,0.0,0.0,0.0,0.0,0.1591,0.1596,0.1714,0.2753,0.3085,0.3144,0.0,0.3062,0.0,0.0,0.0,0.0,0.0,0.0,0.0,0.0,0.0,0.0,0.0,0.0,0.0,0.0145,0.0,0.0,0.0,0.0,0.0,0.0,0.0,0.0,0.0,0.0,0.0,0.0,0.0,0.0,0.0,0.0,0.0,0.0,0.0,0.0,0.0,0.0,-0.3939,-0.4569,-0.4414,-0.4392,-0.4586,-0.3492,-0.2699,-0.2231,-0.1604,-0.1097,-0.0667,-0.0667,-0.0432,0.0,0.0,0.0,0.0,0.0,0.0,0.0,0.0,-0.0279,-0.0796,-0.1326,-0.2376,-0.3604,-0.3604,-0.3604,-0.3597,0.2761,0.2917,0.3013,0.2909,0.3246,0.3544,0.3648,0.4098,0.4429,0.4429,0.4563,0.4718,0.4921,0.4843,0.0,0.0,0.4843,0.4555,0.0,0.0,0.3887,0.3849,0.3558,0.3357,0.3286,0.264,0.2388,0.2563,0.1934,0.1675,0.1761,0.1692,0.1273,0.0586,0.0659,0.1292,0.2246,0.0,0.217,0.375,0.3307,0.2956,0.2746,0.2545,0.2437,0.2582,0.3595,0.3787,0.3647,0.4427,0.4108,0.0,0.4109,0.0,0.0,0.0,0.0,0.0,0.2725,0.0,0.0,0.0,0.0,0.0,0.0,0.0,0.0,0.0,0.0,0.0,0.0,0.0,0.0,0.0,0.0,0.0,0.0,0.0,0.0,0.0,0.0,0.0,0.0,0.0,0.0,0.0,0.0,0.0,-0.3993,-0.3402,-0.3356,-0.4026,-0.2456,-0.1441,-0.1176,-0.0392,0.0,0.0,0.0,0.0,0.0,0.0,0.0,0.0,0.0,0.0,0.0,0.0,0.0,0.0,0.0,-0.1081,-0.2592,-0.2592,-0.2592,-0.2587,0.2903,0.291,0.2895,0.291,0.3118,0.341,0.3741,0.4028,0.4204,0.4204,0.0,0.0,0.0,0.0,0.0,0.0,0.0,0.5073,0.5063,0.0,0.4267,0.4457,0.3904,0.3658,0.0,0.3313,0.2946,0.2689,0.2532,0.2367,0.218,0.192,0.1537,0.107,0.0807,0.1356,0.2427,0.1626,0.2734,0.4981,0.4379,0.3657,0.303,0.0,0.4609,0.4727,0.5825,0.0,0.0,0.5654,0.538,0.0,0.0,0.0,0.0,0.0,0.0,0.0,0.0,0.0,0.0,0.1553,0.0,0.0,0.0,0.0,0.0,0.0,0.0,0.0,0.0,0.0,0.0,0.0,0.0,0.0,0.0,0.0,0.0,0.0,0.0,0.0,0.0,0.0,0.0,0.0,0.0,0.0,-0.2896,-0.2921,-0.2929,-0.2935,-0.2078,-0.111,-0.0079,0.0,0.0,0.0,0.0,0.0,0.0,0.0,0.0,0.0,0.0,0.0,0.0,0.0,0.0,0.0,0.0,-0.0039,-0.0118,-0.0118,-0.0118,-0.0118,0.3106,0.303,0.303,0.303,0.33,0.3602,0.3897,0.4195,0.4463,0.0,0.0,0.0,0.0,0.5447,0.5521,0.0,0.0,0.5433,0.5433,0.4938,0.0,0.0,0.0,0.4018,0.0,0.3653,0.3276,0.2971,0.2825,0.2679,0.2533,0.2437,0.2194,0.1822,0.1871,0.2392,0.0,0.0,0.0,0.0,0.0,0.5125,0.521,0.0,0.0,0.3865,0.567,0.606,0.0,0.6085,0.5922,0.5582,0.567,0.5324,0.4885,0.4921,0.4921,0.0,0.0,0.0,0.4667,0.35,0.0,0.0,0.0,0.0,0.0,0.0,0.0,0.0,0.0,0.0408,0.0556,0.0079,0.0,0.0,0.0,0.0,0.0,0.0,0.0,0.0,0.0,0.0,0.0,0.0,0.0,0.0,0.0,-0.1303,-0.1235,-0.1827,-0.1003,-0.0383,0.0,0.0,0.0,0.0,0.0,0.0,0.0,0.0,0.0,0.0,0.0,0.0,0.0,0.0,0.0,0.0,0.0,0.0,0.0,0.0,0.0,0.0,0.3657,0.3444,0.3303,0.3202,0.3497,0.3819,0.4038,0.0,0.0,0.0,0.5091,0.0,0.5759,0.0,0.5786,0.0,0.5888,0.5701,0.5596,0.5318,0.0,0.51,0.4736,0.0,0.0,0.0,0.3666,0.3358,0.3145,0.2969,0.2835,0.2788,0.2612,0.2315,0.244,0.2901,0.3603,0.3643,0.4288,0.0,0.0,0.5695,0.0,0.0,0.5198,0.0,0.0,0.6064,0.5786,0.618,0.6196,0.6129,0.6269,0.6163,0.5973,0.5979,0.6,0.5942,0.583,0.5915,0.0,0.0,0.4315,0.0,0.2832,0.0,0.0,0.0,0.0,0.0,0.0,0.0,0.0974,0.0623,0.0256,0.0,0.0,0.0,0.0,0.0,0.0,0.0,0.0,0.0,0.0,0.0,0.0,0.0,0.0,0.0,-0.0399,-0.1272,-0.0468,0.0,0.0,0.0,0.0,0.0,0.0,0.0,0.0,0.0,0.0,0.0,0.0,0.0,0.0,0.0,0.0,0.0,0.0,0.0,0.0,0.0,0.0,0.0,0.4473,0.4089,0.3727,0.0,0.3728,0.0,0.0,0.0,0.4897,0.0,0.5203,0.5528,0.5793,0.5823,0.5942,0.6276,0.6125,0.5922,0.564,0.561,0.0,0.0,0.512,0.5049,0.4914,0.0,0.0,0.0,0.3499,0.3269,0.3179,0.2998,0.2782,0.2542,0.2547,0.2968,0.3629,0.3778,0.4534,0.5627,0.5878,0.5426,0.4726,0.5854,0.0,0.4921,0.5944,0.5628,0.4924,0.5944,0.63,0.63,0.63,0.63,0.6272,0.6084,0.6146,0.6235,0.5905,0.5928,0.5784,0.483,0.0,0.0,0.0,0.0,0.2845,0.0,0.0,0.0,0.0,0.0,0.0,0.1539,0.0689,0.0,0.0,0.0,0.0,0.0,0.0,0.0,0.0,0.0,0.0,0.0,0.0,-0.0358,0.0,0.0,0.0,-0.1202,-0.0449,0.0,0.0,0.0,0.0,0.0,0.0,0.0,0.0,0.0,0.0,0.0,0.0,0.0,0.0,0.0,0.0,0.0,0.0,0.0,0.0,0.0,0.0,0.0,0.4763,0.4334,0.4115,0.0,0.4159,0.4213,0.0,0.0,0.0,0.0,0.5576,0.5806,0.6146,0.618,0.6211,0.6293,0.6262,0.0,0.0,0.0,0.0,0.576,0.5481,0.5317,0.5279,0.4806,0.0,0.5068,0.0,0.3887,0.4278,0.3589,0.3239,0.3184,0.3379,0.3681,0.4062,0.4461,0.5042,0.5766,0.5915,0.5944,0.0,0.0,0.6141,0.5944,0.6183,0.6141,0.5944,0.6222,0.63,0.63,0.63,0.63,0.6293,0.6252,0.6269,0.6282,0.6201,0.6211,0.6118,0.5704,0.5538,0.5367,0.0,0.0,0.0,0.0,0.0,0.0,0.0,0.0,0.0,0.1436,0.054,0.0,0.0,0.0,0.0,0.0,0.0,0.0,0.0,0.0,0.0,0.0,0.0,0.0,0.0,0.0,0.0,-0.0325,-0.0103,0.0,0.0,0.0,0.0,0.0,0.0,0.0,0.0,0.0,0.0,0.0,0.0,0.0,0.0,0.0,0.0,0.0,0.0,0.0,0.0,0.0,0.0,0.0,0.5535,0.0,0.0,0.466,0.0,0.0,0.484,0.0,0.0,0.5573,0.5772,0.0,0.6139,0.6317,0.6368,0.6306,0.6741,0.0,0.6738,0.0,0.0,0.7227,0.6628,0.6306,0.6234,0.564,0.0,0.5058,0.0,0.4221,0.4065,0.3526,0.3269,0.3286,0.3651,0.3924,0.4163,0.484,0.5379,0.5817,0.5932,0.0,0.0,0.63,0.63,0.63,0.63,0.63,0.63,0.63,0.63,0.63,0.63,0.63,0.63,0.63,0.63,0.63,0.63,0.63,0.6279,0.6152,0.6067,0.5945,0.5732,0.5742,0.5645,0.0,0.0,0.0,0.0,0.0,0.0,0.1384,0.0744,0.0361,0.0,0.0,0.0,0.0,0.0,0.0,0.0,0.0,0.0,0.0,0.0,0.0,0.0,0.0,0.0,0.0,0.0,0.0,0.0,0.0,0.0,0.0,0.0,0.0,0.0,0.0,0.0,0.0,0.0,0.0,0.0,0.0,0.0,0.0,0.0,0.0,0.0,0.0,0.0,0.0,0.6564,0.0,0.0,0.0,0.0,0.0,0.0,0.6173,0.0,0.6152,0.0,0.6376,0.6527,0.6656,0.6766,0.6791,0.0,0.8095,0.764,0.871,0.9224,0.8862,0.8134,0.766,0.7535,0.6828,0.0,0.0,0.4964,0.4456,0.3551,0.3251,0.3101,0.3121,0.3592,0.3921,0.0,0.5044,0.5566,0.5817,0.5989,0.6139,0.63,0.63,0.63,0.63,0.63,0.63,0.63,0.63,0.63,0.63,0.63,0.63,0.63,0.63,0.63,0.63,0.63,0.63,0.63,0.63,0.63,0.6228,0.5922,0.5861,0.5861,0.5861,0.5692,0.0,0.0,0.0,0.0,0.1692,0.0,0.0,0.0,0.0,0.0,0.0,0.0,0.0,0.0,0.0,0.0,0.0,0.0,0.0,0.0,0.0,0.0,0.0,0.0,0.0,0.0,0.0,0.0,0.0,0.0109,0.0111,0.0,0.0113,0.0191,0.0195,0.0078,0.0079,0.0196,0.0039,0.0,0.0,0.0,0.0,0.0,0.0,0.0,0.0,0.0,0.0,0.0,0.0,0.0,0.9029,0.8498,0.8613,0.8775,0.882,0.8334,0.8377,0.9343,0.864,0.8463,0.9446,0.9717,0.0,0.0,0.0,0.0,0.9227,0.9065,0.8906,0.8793,0.8173,0.7809,0.0,0.5942,0.5016,0.4934,0.368,0.3101,0.3121,0.3592,0.4151,0.4759,0.5221,0.0,0.5827,0.6146,0.6276,0.63,0.63,0.63,0.63,0.63,0.63,0.63,0.63,0.63,0.63,0.63,0.63,0.63,0.63,0.63,0.63,0.63,0.63,0.63,0.63,0.63,0.6286,0.6231,0.6218,0.6218,0.6218,0.6177,0.605,0.5722,0.0,0.0,0.0,0.0,0.0,0.0,0.0,0.0,0.0,0.0,0.0,0.0,0.0,0.0,0.0,0.0,0.0,0.0,0.0,0.0,0.0,0.0,0.0,0.0,0.0,0.0,0.0,0.0721,0.0693,0.0037,0.0749,0.1174,0.1257,0.0389,0.051,0.1254,0.0353,0.0,0.0,0.0,0.0,0.0,0.0,0.0,0.0,0.0,0.0,0.0,0.0,0.0,0.0,0.0,1.1003,0.0,0.9858,0.9404,0.9413,0.9975,0.9694,0.9659,1.0171,1.0754,1.0965,1.0733,1.1103,1.1245,1.112,1.0451,0.0,0.9877,0.923,0.8557,0.7922,0.6784,0.5813,0.4957,0.4081,0.3495,0.3242,0.4249,0.5229,0.0,0.0,0.0,0.7277,0.7631,0.7807,0.7859,0.7859,0.7859,0.7859,0.7859,0.7859,0.7706,0.6644,0.63,0.63,0.63,0.63,0.63,0.63,0.63,0.63,0.63,0.63,0.63,0.63,0.63,0.63,0.63,0.6238,0.6142,0.6142,0.6078,0.6054,0.6143,0.519,0.0,0.0,0.0,0.0,0.0,0.0,0.0,0.0,0.0,0.0,0.0,0.0,0.0,0.0,0.0,0.0,0.0,0.0,0.0,0.0,0.0,0.0,0.0,0.0,0.0,0.0686,0.1595,0.1791,0.1425,0.1901,0.22,0.2267,0.182,0.1917,0.2347,0.1839,0.1604,0.1604,0.1604,0.1604,0.1604,0.1604,0.1604,0.1448,0.0,0.9348,0.0,0.0,1.0705,0.0,1.1791,1.2906,1.2958,1.0965,1.0513,1.0505,1.0744,1.0794,1.0861,1.1018,1.184,1.2305,1.2131,1.2667,1.2951,1.2884,1.1816,1.1193,1.1071,1.0386,0.9388,0.0,0.0,0.6776,0.5245,0.4754,0.4329,0.4059,0.0,0.0,0.0,0.0,0.8461,0.8715,0.9015,0.9214,0.9296,0.9296,0.9296,0.9296,0.9296,0.9296,0.9069,0.748,0.6945,0.6945,0.6945,0.6945,0.6945,0.6945,0.6945,0.6945,0.6945,0.6795,0.6602,0.6602,0.6451,0.6338,0.6567,0.6439,0.6321,0.6541,0.6455,0.6433,0.6882,0.6204,0.0,0.0,0.0,0.0,0.0,0.0,0.0,0.0,0.0,0.0,0.0,0.0,0.0,0.0,0.0,0.0,0.0,0.0,0.0,0.0,0.0,0.0,0.0226,0.0,0.1507,0.0,0.2444,0.2877,0.2699,0.2988,0.3176,0.322,0.3107,0.307,0.3085,0.3085,0.3085,0.3085,0.3085,0.3085,0.3085,0.3085,0.3085,0.2851,0.0,0.0,0.0,0.0,0.0,0.0,0.0,1.3626,1.3844,1.3308,1.2552,1.2481,1.3571,1.2747,1.2547,1.3659,1.3811,1.3748,1.3457,1.3492,1.34,1.318,1.2827,1.2609,1.2583,1.1976,1.122,0.0,0.0,0.7986,0.7043,0.603,0.5823,0.6318,0.0,0.0,0.0,0.857,0.8877,0.9057,0.9212,0.9281,0.9296,0.9296,0.9296,0.9296,0.9296,0.9296,0.9258,0.9069,0.9031,0.9031,0.9031,0.9031,0.9031,0.9031,0.9031,0.9031,0.9031,0.8351,0.7668,0.7668,0.6984,0.6528,0.7442,0.7405,0.7446,0.8359,0.8227,0.7952,0.7877,0.7797,0.7353,0.0,0.0,0.0,0.0,0.0,0.0,0.0,0.0,0.0,0.0,0.0,0.0,0.0,0.0,0.0,0.0,0.0,0.0,0.0,0.0,0.1125,0.0998,0.2049,0.0,0.1307,0.3045,0.3451,0.2725,0.3526,0.4046,0.4297,0.3328,0.2988,0.3085,0.3085,0.3085,0.3085,0.3085,0.3085,0.3085,0.3085,0.3085,0.3085,0.0,0.0,0.0,0.0,0.0,0.0,0.0,1.3935,1.4041,1.3928,1.3617,1.3555,1.4039,1.3688,1.3561,1.4046,1.4088,1.4035,1.3915,1.37,1.3553,1.3433,1.3045,1.2784,1.2784,1.2208,1.1645,0.0,0.0,0.0,0.0,0.7386,0.0,0.0,0.0,0.9223,0.9915,1.0453,1.0711,1.0797,1.0997,1.1099,1.1099,1.1099,1.1099,1.1099,1.1099,1.1099,1.1099,1.1099,1.0314,0.9296,0.9296,0.9296,0.9296,0.9296,0.9296,0.9296,0.9296,0.8993,0.8542,0.7936,0.7936,0.8046,0.7859,0.7949,0.8179,0.8608,0.8367,0.8237,0.87,0.8265,0.787,0.0,0.0,0.0,0.0,0.0,0.0,0.0,0.0,0.486,0.0,0.0,0.0,0.0,0.0,0.0456,0.0525,0.0,0.0,0.1627,0.0,0.198,0.1942,0.2979,0.3278,0.2945,0.4215,0.4652,0.4323,0.4757,0.5061,0.5261,0.4919,0.4771,0.4858,0.4969,0.504,0.504,0.504,0.504,0.504,0.504,0.504,0.504,1.328,0.0,1.3173,0.0,1.3601,1.3607,1.4021,1.4088,1.4088,1.4088,1.4088,1.4088,1.4088,1.4088,1.4088,1.4088,1.4088,1.4088,1.4088,1.3895,1.3733,1.3733,1.328,0.0,1.3052,1.2469,1.202,1.1648,1.0856,0.0,0.0,0.893,0.0,0.0,1.0068,1.0686,1.1283,1.1784,1.2033,1.2011,1.2218,1.2305,1.2311,1.2398,1.2432,1.2445,1.2538,1.2512,1.2445,1.2538,1.1496,1.0164,1.0164,1.0164,1.0164,1.0164,1.0164,1.0164,1.0164,0.997,0.9556,0.8874,0.8993,0.9183,0.8761,0.8833,0.9007,0.9144,0.8948,0.8967,0.9562,0.9078,0.8697,0.0,0.0,0.0,0.0,0.0,0.0,0.0,0.5694,0.5135,0.5339,0.0,0.0,0.0,0.0,0.156,0.1289,0.0,0.0,0.0,0.0,0.0,0.0,0.0,0.4284,0.4015,0.4957,0.5395,0.5399,0.5552,0.5667,0.581,0.5925,0.602,0.6105,0.6255,0.63,0.63,0.63,0.63,0.63,0.63,0.63,0.63,1.354,1.3593,1.3686,1.4028,1.4082,1.4082,1.4088,1.4088,1.4088,1.4088,1.4088,1.4088,1.4088,1.4088,1.4088,1.4088,1.4088,1.4088,1.4088,1.4082,1.4082,0.0,0.0,1.3593,1.3593,1.3046,1.263,1.2291,0.0,0.0,1.0969,1.0675,1.0695,1.0989,1.1255,1.1583,1.1913,1.2171,1.2298,1.2298,1.2305,1.2305,1.2338,1.2663,1.2777,1.2817,1.3086,1.3006,1.2824,1.3093,1.2799,1.2261,1.2261,1.2261,1.2261,1.2261,1.2261,1.2261,1.2261,1.1539,1.0783,1.0783,1.0045,0.9556,1.0527,1.0312,1.0015,1.0489,1.0561,1.0561,1.0593,1.0555,1.0235,0.9168,0.0,0.0,0.0,0.0,0.0,0.0,0.5075,0.4971,0.7425,0.0,0.0,0.0,0.0,0.0,0.0,0.0,0.0,0.3558,0.3718,0.0,0.3778,0.4849,0.4921,0.4015,0.4957,0.5395,0.5399,0.5552,0.5667,0.581,0.5925,0.6115,0.6296,0.63,0.63,0.63,0.63,0.63,0.63,0.63,0.63,0.63,1.4449,1.4382,1.4233,1.4362,1.4382,1.4315,1.4115,1.4088,1.4088,1.4088,1.4088,1.4088,1.4088,1.4088,1.4088,0.0,1.4088,1.4088,0.0,1.4088,1.4088,1.4088,1.376,1.36,1.36,1.326,1.3013,1.2919,0.0,0.0,0.0,1.1437,1.1538,1.1651,1.2141,1.2301,1.2198,1.2705,1.2799,1.2663,1.2839,1.2919,1.2933,1.3026,1.3066,1.3073,1.3173,1.3146,1.308,1.318,1.3086,1.2919,1.2919,1.2639,1.2305,1.2305,1.2305,1.2305,1.2305,1.207,1.1657,1.0969,1.1056,1.1248,1.0901,1.0862,1.0895,1.0863,1.0727,1.0593,1.0593,1.0593,1.0496,1.0146,0.0,0.0,0.0,0.0,0.0,0.0,0.0,0.6274,0.0,0.675,0.0,0.0,0.0,0.0,0.0,0.0,0.0,0.0,0.4424,0.0,0.4677,0.5153,0.5259,0.4957,0.5259,0.5395,0.5395,0.5446,0.5549,0.5664,0.5813,0.5962,0.6112,0.6255,0.63,0.63,0.63,0.63,0.63,0.63,0.63,0.63,1.4934,1.4816,1.4689,1.4689,1.4689,1.4589,1.4295,1.4349,1.4376,1.4262,1.4249,1.4249,1.4249,1.4155,0.0,1.4088,1.4088,0.0,1.4088,1.4088,1.4088,1.4088,1.3908,1.3808,1.3808,0.0,0.0,1.3333,1.2886,1.2452,1.2061,1.2285,1.2371,1.2385,1.2797,1.2819,1.2665,1.3053,1.31,1.2978,1.3133,1.3213,1.322,1.3293,1.3333,1.3387,1.35,1.3467,1.3353,1.35,1.3394,1.3227,1.33,1.2959,1.2509,1.2509,1.2392,1.2305,1.2305,1.2305,1.215,1.1502,1.1842,1.2117,1.1377,1.1298,1.1309,1.1056,1.0794,1.0593,1.0593,1.0593,1.0553,1.0445,0.0,0.9853,0.0,0.0,0.0,0.0,0.0,0.0,0.0,0.7568,0.0,0.0,0.0,0.0,0.0,0.0,0.0,0.5047,0.5021,0.0,0.5216,0.5347,0.5395,0.5395,0.5395,0.5395,0.5395,0.5395,0.5481,0.5596,0.5739,0.5888,0.6003,0.6235,0.63,0.63,0.63,0.63,0.63,0.63,0.63,0.63,1.5062,1.5093,0.0,0.0,1.508,0.0,1.4596,1.4783,1.4908,1.4589,1.4549,1.4549,1.4549,1.4309,1.4148,1.4148,0.0,0.0,0.0,1.4088,1.4088,1.4088,1.4088,0.0,1.4088,1.3773,1.3626,1.36,1.3333,1.3227,1.3213,1.3213,1.3213,1.3213,1.3233,1.3227,1.3213,1.3253,1.326,1.324,1.326,1.3273,1.33,1.3533,1.3633,1.3666,1.3988,1.3908,1.3673,1.3995,1.3721,1.332,1.3547,1.3273,1.2837,1.2797,1.2569,1.2305,1.2305,1.2305,1.2305,1.2305,1.2305,1.2231,1.1993,1.167,1.1342,1.1109,1.0841,1.062,1.062,1.0606,1.0492,1.0167,0.9873,0.9579,0.9195,0.0,0.0,0.0,0.0,0.0,0.0,0.8335,0.8697,0.0,0.0,0.0,0.0,0.0,0.0,0.607,0.5576,0.5364,0.5587,0.5591,0.5591,0.5591,0.5591,0.5591,0.5591,0.5601,0.5652,0.5804,0.5948,0.603,0.6115,0.6298,0.6328,0.63,0.63,0.63,0.63,0.63,0.63,0.63,0.0,0.0,1.6387,1.5474,1.6084,1.628,1.5075,1.4961,1.4981,1.4914,1.4863,1.4863,1.4863,1.4796,1.48,1.48,1.4392,1.4088,1.4088,1.4088,1.4088,1.4088,1.4088,1.4088,1.4088,1.4015,1.3874,1.36,1.3533,1.3387,1.3213,1.3213,1.3213,1.322,1.34,1.3373,1.324,1.3687,1.3748,1.352,1.3788,1.3881,1.3888,1.3955,1.3981,1.3988,1.4062,1.4041,1.3995,1.4062,1.3995,1.3895,1.3961,1.3728,1.334,1.2918,1.2569,1.2305,1.2305,1.2305,1.2305,1.2305,1.2305,1.2285,1.2218,1.1971,1.1744,1.1712,1.1283,1.0928,1.0928,1.074,1.0492,1.0167,0.9873,0.94,0.8546,0.0,0.0,0.0,0.784,0.8101,0.914,0.9132,0.9062,0.0,0.0,0.0,0.0,0.0,0.7708,0.7027,0.7043,0.7193,0.7377,0.7377,0.7377,0.7377,0.7377,0.7377,0.7381,0.7603,0.7639,0.7603,0.7836,0.7569,0.7015,0.7058,0.6749,0.63,0.63,0.63,0.63,0.63,0.63,0.63,1.7409,1.788,1.8024,1.74,1.7804,1.7953,1.7011,1.7004,1.6996,1.69,1.6877,1.6877,1.6877,1.6743,1.6646,1.6646,1.535,1.4429,1.4295,1.4282,1.4222,1.4095,1.4088,1.4088,1.4088,1.4088,1.4008,1.3848,1.3848,1.3768,1.3614,1.3614,1.3614,1.3621,1.3774,1.3761,1.3627,1.3955,1.3995,1.382,1.4021,1.4088,1.4088,1.4088,1.4088,1.4088,1.4088,1.4088,1.4088,1.4088,1.4088,1.4088,1.4088,1.3881,1.354,1.3253,1.2846,1.2516,1.2338,1.2305,1.2305,1.2305,1.2305,1.2305,1.2305,1.2078,1.1906,1.1906,1.1437,1.0995,1.0995,1.0787,1.0452,0.9987,0.9786,0.9418,0.8599,0.8163,0.0,0.8602,0.8604,0.8855,0.9621,0.978,0.9733,0.9459,0.0,0.0,0.9431,0.956,0.9106,0.802,0.7876,0.7899,0.7994,0.7994,0.7994,0.7994,0.7994,0.7994,0.7994,0.8149,0.8172,0.8126,0.8313,0.816,0.7704,0.7789,0.7653,0.7459,0.7459,0.7551,0.7668,0.7668,0.7668,0.7668,1.9497,1.9633,1.9716,1.9534,1.9633,1.9624,1.9218,1.9344,1.9426,1.9173,1.9176,1.9176,1.9176,1.8893,1.8746,1.8746,1.684,1.5407,1.4797,1.4643,1.4436,1.4102,1.4128,1.4128,1.4088,1.4088,1.4088,1.4088,1.4088,1.4088,1.4088,1.4088,1.4088,1.4088,1.4088,1.4088,1.4088,1.4088,1.4088,1.4088,1.4088,1.4088,1.4088,1.4088,1.4088,1.4088,1.4088,1.4088,1.4088,1.4088,1.4088,1.4088,1.4088,1.3915,1.366,1.3613,1.328,1.2844,1.2465,1.2338,1.2305,1.2305,1.2305,1.2305,1.2305,1.2111,1.1973,1.1973,1.1503,1.1116,1.1062,1.0854,1.0445,0.9816,0.9719,0.9497,0.8731,0.0,0.0,0.9047,0.9149,0.9326,0.9804,1.0258,1.0332,0.9883,1.0271,0.0,0.0,1.0318,1.0121,0.9112,0.8626,0.8382,0.8382,0.8382,0.8382,0.8382,0.8382,0.8382,0.8382,0.842,0.8414,0.8393,0.8566,0.8531,0.8412,0.8527,0.8644,0.8792,0.8792,0.901,0.9296,0.9296,0.9296,0.9296,1.9497,2.0305,2.0711,1.967,2.0322,2.0666,1.9604,1.9455,1.948,1.9414,1.9451,1.9451,1.9451,1.9401,1.9368,1.9368,1.9014,1.8021,1.6156,1.5346,1.47,1.4108,1.4322,1.4342,1.4088,1.4088,1.4088,1.4088,1.4088,1.4088,1.4088,1.4088,1.4088,1.4088,1.4088,1.4088,1.4088,1.4088,1.4088,1.4088,1.4088,1.4088,1.4088,1.4088,1.4088,1.4088,1.4088,1.4088,1.4088,1.4088,1.4088,1.4088,1.4088,1.4055,1.3968,1.3673,1.354,1.3387,1.2864,1.2529,1.2305,1.2305,1.2305,1.2305,1.2305,1.2265,1.2231,1.2231,1.1964,1.1657,1.1403,1.1122,1.0687,0.9849,0.9886,0.9519,0.0,0.0,0.9289,0.8754,0.9424,1.0071,1.0439,1.0281,1.0254,1.0445,1.0274,1.0254,1.0445,1.0539,1.0503,1.0324,1.0243,1.0199,1.0199,1.0199,1.0199,1.0199,1.0199,1.0199,1.0206,1.0445,1.0425,1.0212,1.0464,1.0076,0.9304,0.931,0.9136,0.8792,0.8792,0.901,0.9296,0.9296,0.9296,0.9296,2.1445,2.1898,2.2085,2.1543,2.1908,2.2094,2.1498,2.1445,2.1445,2.1445,2.1445,2.1445,2.1445,2.1445,2.1445,2.1445,2.0854,1.9987,1.8869,1.7782,1.7007,1.6556,1.6635,1.6348,1.5562,1.4733,1.4322,1.4322,1.4162,1.4088,1.4088,1.4088,1.4088,1.4088,1.4088,1.4412,1.4977,1.4977,1.4977,1.4977,1.4977,1.4615,1.4088,1.4088,1.4454,1.4977,1.4977,1.4977,1.4977,1.4977,1.4573,1.4088,1.4088,1.4088,1.4062,1.3921,1.3661,1.3313,1.2904,1.2683,1.2543,1.2345,1.2305,1.2305,1.2305,1.2305,1.2305,1.2305,1.2107,1.1866,1.169,1.1296,1.0862,1.0454,1.0234,0.0,0.0,0.9535,0.9794,0.9453,0.9984,1.0439,1.0579,1.0466,1.0445,1.0579,1.0466,1.0445,1.0586,1.0593,1.0593,1.0593,1.0593,1.0593,1.0593,1.0593,1.0593,1.0593,1.0593,1.0593,1.0593,1.0727,1.072,1.06,1.0734,1.0522,1.0095,1.0095,1.0055,1.0002,1.0137,1.039,1.0723,1.0859,1.0913,1.0913,2.3091,2.3091,2.3091,2.3091,2.3091,2.3091,2.3091,2.3091,2.3091,2.3091,2.3091,2.3091,2.3091,2.3091,2.3091,2.3091,2.2262,2.1627,2.1401,2.0553,1.959,1.8647,1.8587,1.8148,1.7244,1.6053,1.5467,1.5467,1.5234,1.5156,1.5156,1.5156,1.5156,1.5156,1.5043,1.554,1.638,1.6262,1.6269,1.638,1.638,1.5893,1.5156,1.5156,1.5604,1.6223,1.6223,1.6177,1.6067,1.6067,1.5504,1.4817,1.4817,1.4817,1.4817,1.4817,1.4527,1.3989,1.3108,1.2837,1.273,1.2496,1.2351,1.2305,1.2305,1.2305,1.2305,1.2305,1.2124,1.1986,1.1913,1.1538,1.1129,1.0922,0.0,0.0,0.0,1.0134,1.0194,1.0127,1.0412,1.0593,1.0593,1.0593,1.0593,1.0593,1.0593,1.0593,1.0593,1.0593,1.0593,1.0593,1.0593,1.0593,1.0593,1.0593,1.0593,1.0593,1.0593,1.0593,1.0593,1.0593,1.0593,1.0593,1.0593,1.0593,1.0593,1.0593,1.076,1.1022,1.1316,1.1603,1.194,1.2191,1.2305,1.2305,2.3091,2.3091,2.3091,2.3091,2.3091,2.3091,2.3091,2.3091,2.3091,2.3091,2.3091,2.3091,2.3091,2.3091,2.3091,2.3091,2.3003,2.294,2.2955,2.2858,2.1562,1.8698,1.8587,1.8544,1.8458,1.8339,1.8288,1.8288,1.8263,1.8247,1.8247,1.8247,1.8247,1.823,1.786,1.7943,1.8351,1.7986,1.8036,1.8376,1.8376,1.8333,1.8247,1.8247,1.8092,1.7846,1.7846,1.754,1.7172,1.7172,1.7139,1.705,1.705,1.705,1.705,1.705,1.7017,1.6428,1.387,1.3005,1.2777,1.2757,1.2543,1.2305,1.2305,1.2305,1.2305,1.2305,1.2285,1.2184,1.1953,1.1866,1.1571,1.0754,0.0,0.0,0.9826,1.0211,1.0459,1.0147,1.0412,1.0593,1.0593,1.0593,1.0593,1.0593,1.0593,1.0593,1.0593,1.0593,1.0593,1.0593,1.0593,1.0593,1.0593,1.0593,1.0593,1.0593,1.0593,1.0593,1.0593,1.0593,1.0593,1.0593,1.0593,1.0593,1.0593,1.0593,1.076,1.1022,1.1316,1.1603,1.194,1.2191,1.2305,1.2305,2.3091,2.3091,2.3091,2.3091,2.3091,2.3091,2.3091,2.3091,2.3091,2.3091,2.3091,2.3091,2.3091,2.3091,2.3091,2.3091,2.3091,2.3091,2.3091,2.3091,2.2587,2.1454,2.0676,2.0272,2.0272,1.9389,1.8929,1.8929,1.8696,1.8587,1.8587,1.8587,1.8587,1.8579,1.8446,1.8837,1.9595,1.9454,1.943,1.9604,1.9604,1.9178,1.8587,1.8587,1.8922,1.9351,1.9351,1.9254,1.9055,1.8819,1.829,1.7681,1.7408,1.7302,1.7302,1.7302,1.7302,1.7074,1.6051,1.5558,1.5073,1.4033,1.37,1.337,1.2493,1.2305,1.2305,1.2305,1.2305,1.2271,1.2158,1.2027,1.1852,1.1663,0.0,1.1209,1.1095,1.1076,1.0989,1.0695,1.0762,1.0787,1.0613,1.0593,1.0593,1.0593,1.0593,1.0593,1.0593,1.0593,1.0593,1.0593,1.0593,1.0593,1.0593,1.0593,1.0593,1.0593,1.0593,1.0593,1.0593,1.0593,1.0593,1.0593,1.0593,1.0693,1.0847,1.0667,1.076,1.1022,1.1316,1.1496,1.165,1.2124,1.2305,1.2278,2.3091,2.3091,2.3091,2.3091,2.3091,2.3091,2.3091,2.3091,2.3091,2.3091,2.3091,2.3091,2.3091,2.3091,2.3091,2.3091,2.3091,2.3091,2.3091,2.3091,2.3091,2.3091,2.2306,2.1845,2.1845,2.0864,2.0377,2.0377,2.0114,2.0025,2.0025,2.0025,2.0025,2.0016,1.9902,2.0296,2.1098,2.0968,2.0996,2.1107,2.1107,2.0671,2.0025,2.0025,2.0384,2.0922,2.0922,2.0838,2.069,2.042,1.9824,1.9149,1.8845,1.8629,1.8507,1.8376,1.835,1.835,1.835,1.818,1.7618,1.5663,1.5022,1.4506,1.3253,1.3089,1.3127,1.2806,1.2732,1.2732,1.2732,1.2602,1.2498,1.2616,1.2515,1.2378,1.2235,1.2033,1.1689,1.1189,1.1049,1.0915,1.0747,1.0646,1.0593,1.0593,1.0593,1.0593,1.0593,1.0593,1.0593,1.0593,1.0593,1.0593,1.0593,1.0593,1.0593,1.0593,1.0593,1.0593,1.0593,1.0593,1.0593,1.0593,1.0593,1.0707,1.0874,1.0673,1.0713,1.0882,1.1176,1.1349,1.1449,1.1984,1.2164,1.2138,2.3091,2.3091,2.3091,2.3091,2.3091,2.3091,2.3091,2.3091,2.3091,2.3091,2.3091,2.3091,2.3091,2.3091,2.3091,2.3091,2.3091,2.3091,2.3091,2.3091,2.3091,2.3091,2.3091,2.3091,2.3091,2.3091,2.3091,2.3091,2.3091,2.3091,2.3091,2.3091,2.3091,2.3081,2.2662,2.2711,2.3062,2.2652,2.2754,2.3091,2.3091,2.3091,2.3091,2.3091,2.2838,2.2519,2.2519,2.2246,2.1894,2.1894,2.1894,2.1894,2.1885,2.1582,2.1103,2.0742,2.0605,2.0605,2.0605,2.0605,2.0013,1.7531,1.6342,1.5553,1.465,1.4811,1.4914,1.3926,1.3709,1.3709,1.3709,1.3709,1.3641,1.3354,1.4077,1.4299,1.3096,1.2923,1.2545,1.1526,1.1169,1.1028,1.1028,1.076,1.0624,1.0624,1.0624,1.0624,1.0624,1.0593,1.0593,1.0624,1.0593,1.0593,1.0593,1.0593,1.0593,1.0593,1.0593,1.0593,1.0593,1.0593,1.0593,1.0593,1.0593,1.0593,1.06,1.06,1.06,1.0633,1.0889,1.1176,1.1429,1.1792,1.1906,1.1899,2.3091,2.3091,2.3091,2.3091,2.3091,2.3091,2.3091,2.3091,2.3091,2.3091,2.3091,2.3091,2.3091,2.3091,2.3091,2.3091,2.3091,2.3091,2.3091,2.3091,2.3091,2.3091,2.3091,2.3091,2.3091,2.3091,2.3091,2.3091,2.3091,2.3091,2.3091,2.3091,2.3091,2.3091,2.2964,2.2974,2.3091,2.2964,2.2984,2.3091,2.3091,2.3091,2.3091,2.3091,2.3013,2.2906,2.2906,2.2828,2.2715,2.2432,2.2324,2.2275,2.1982,2.1582,2.1171,2.1074,2.081,2.0605,2.0605,2.0605,2.0178,1.8452,1.7867,1.7354,1.6091,1.5716,1.5534,1.5243,1.4941,1.4522,1.3818,1.4279,1.449,1.3726,1.4407,1.493,1.4544,1.4493,1.4335,1.3771,1.2886,1.2591,1.3237,1.2165,1.1783,1.264,1.1907,1.1437,1.1437,1.0895,1.0863,1.1406,1.0895,1.0593,1.0593,1.0593,1.0593,1.0593,1.0593,1.0593,1.0593,1.0593,1.0593,1.06,1.0807,1.0982,1.1169,1.1169,1.1289,1.1524,1.1611,1.1536,1.1429,1.1792,1.1737,1.153,2.3091,2.3091,2.3091,2.3091,2.3091,2.3091,2.3091,2.3091,2.3091,2.3091,2.3091,2.3091,2.3091,2.3091,2.3091,2.3091,2.3091,2.3091,2.3091,2.3091,2.3091,2.3091,2.3091,2.3091,2.3091,2.3091,2.3091,2.3091,2.3091,2.3091,2.3091,2.3091,2.3091,2.3091,2.3091,2.3091,2.3091,2.3091,2.3091,2.3091,2.3091,2.3091,2.3091,2.3091,2.3091,2.3091,2.3091,2.3091,2.3052,2.2808,2.2721,2.2685,2.2266,2.1953,2.1639,2.1298,2.1045,2.0791,2.0654,2.0605,2.0382,1.9523,1.9182,1.8719,1.7497,1.707,1.6793,1.643,1.6021,1.5579,1.4977,1.5332,1.5544,1.4942,1.5658,1.6193,1.5799,1.5755,1.5529,1.4962,1.4145,1.3834,1.4397,1.3437,1.31,1.3831,1.3196,1.279,1.279,1.2136,1.2005,1.2492,1.1878,1.1538,1.1538,1.1538,1.1233,1.0593,1.0593,1.0593,1.0593,1.0593,1.0593,1.06,1.0774,1.0982,1.1256,1.1256,1.1363,1.1558,1.1558,1.141,1.1276,1.1456,1.141,1.1229,2.3091,2.3091,2.3091,2.3091,2.3091,2.3091,2.3091,2.3091,2.3091,2.3091,2.3091,2.3091,2.3091,2.3091,2.3091,2.3091,2.3091,2.3091,2.3091,2.3091,2.3091,2.3091,2.3091,2.3091,2.3091,2.3091,2.3091,2.3091,2.3091,2.3091,2.3091,2.3091,2.3091,2.3091,2.3091,2.3091,2.3091,2.3091,2.3091,2.3091,2.3091,2.3091,2.3091,2.3091,2.3091,2.3091,2.3091,2.3091,2.3091,2.3091,2.3091,2.3033,2.2685,2.2539,2.2363,2.1541,2.1249,2.1103,2.0732,2.0635,2.0605,2.0605,2.0273,1.9734,1.8877,1.8702,1.8456,1.7623,1.7079,1.676,1.6656,1.6698,1.6706,1.6593,1.7389,1.7681,1.6853,1.674,1.6428,1.5552,1.5084,1.4866,1.4967,1.4747,1.4518,1.4419,1.441,1.441,1.441,1.3929,1.3713,1.3777,1.3335,1.3091,1.3058,1.3058,1.2274,1.0713,1.0713,1.0688,1.0593,1.0593,1.0593,1.0593,1.062,1.078,1.0995,1.1022,1.1035,1.1035,1.1035,1.1015,1.0995,1.0995,1.0975,1.0955,2.3091,2.3091,2.3091,2.3091,2.3091,2.3091,2.3091,2.3091,2.3091,2.3091,2.3091,2.3091,2.3091,2.3091,2.3091,2.3091,2.3091,2.3091,2.3091,2.3091,2.3091,2.3091,2.3091,2.3091,2.3091,2.3091,2.3091,2.3091,2.3091,2.3091,2.3091,2.3091,2.3091,2.3091,2.3091,2.3091,2.3091,2.3091,2.3091,2.3091,2.3091,2.3091,2.3091,2.3091,2.3091,2.3091,2.3091,2.3091,2.3091,2.3091,2.3091,2.3081,2.2984,2.274,2.248,2.2295,2.1717,2.1171,2.1073,2.083,2.0605,2.0605,2.0537,2.0381,2.0188,1.9858,1.9564,1.9369,1.8689,1.795,1.7197,1.7406,1.7467,1.6706,1.7389,1.794,1.7725,1.7681,1.7613,1.7407,1.6462,1.6199,1.7194,1.693,1.6314,1.5316,1.5224,1.5224,1.5224,1.4562,1.4454,1.5067,1.4401,1.3838,1.3453,1.3484,1.2805,1.1531,1.1531,1.1202,1.0593,1.0593,1.0593,1.0606,1.0834,1.0935,1.1009,1.1236,1.1295,1.1295,1.1295,1.1189,1.0995,1.0995,1.0881,1.0687,2.3091,2.3091,2.3256,2.3844,2.3464,2.3256,2.3844,2.3464,2.3091,2.3091,2.3091,2.3091,2.3091,2.3091,2.3091,2.3091,2.3091,2.3091,2.3091,2.3091,2.3091,2.3091,2.3091,2.3091,2.3091,2.3091,2.3091,2.3091,2.3091,2.3091,2.3091,2.3091,2.3091,2.3091,2.3091,2.3091,2.3091,2.3091,2.3091,2.3091,2.3091,2.3091,2.3091,2.3091,2.3091,2.3091,2.3091,2.3091,2.3091,2.3091,2.3091,2.3091,2.3091,2.2945,2.273,2.2568,2.2197,2.1717,2.1307,2.1064,2.083,2.0664,2.0605,2.0605,2.0605,2.0225,1.9912,1.9912,1.9358,1.8766,1.8278,1.8232,1.8128,1.7647,1.7816,1.8008,1.8008,1.8008,1.8008,1.8008,1.7412,1.7263,1.7954,1.7812,1.7412,1.6732,1.668,1.668,1.668,1.6098,1.5955,1.6388,1.5771,1.5246,1.4799,1.4799,1.4162,1.2931,1.2565,1.2143,1.1725,1.1725,1.1725,1.1732,1.1903,1.2035,1.2126,1.1893,1.1764,1.1731,1.1343,1.1042,1.0846,1.1251,1.1558,1.1694,2.3387,2.3551,2.3973,2.4925,2.4296,2.4016,2.4957,2.4307,2.3681,2.3681,2.3681,2.3681,2.3681,2.3517,2.3387,2.3387,2.3222,2.3091,2.3091,2.3091,2.3091,2.3091,2.3091,2.3091,2.3091,2.3091,2.3091,2.3091,2.3091,2.3091,2.3091,2.3091,2.3091,2.3091,2.3091,2.3091,2.3091,2.3091,2.3091,2.3091,2.3091,2.3091,2.3091,2.3091,2.3091,2.3091,2.3091,2.3091,2.3091,2.3091,2.3091,2.3091,2.3091,2.3091,2.3023,2.2682,2.2568,2.2344,2.1512,2.1249,2.1083,2.0713,2.0605,2.0605,2.0605,2.0283,2.0029,2.0029,1.9687,1.9394,1.9394,1.9043,1.8685,1.8617,1.8315,1.8086,1.8018,1.8008,1.8008,1.8008,1.8008,1.8008,1.8008,1.8008,1.8008,1.8008,1.8008,1.8008,1.8008,1.7676,1.749,1.749,1.7139,1.6738,1.632,1.6242,1.5645,1.4522,1.3761,1.3282,1.3009,1.3009,1.3009,1.3009,1.3009,1.3112,1.3289,1.2615,1.2328,1.2264,1.1617,1.1212,1.1083,1.1748,1.242,1.2948,2.4585,2.5347,2.6099,2.6224,2.6141,2.6099,2.6265,2.6141,2.6058,2.6058,2.6058,2.6058,2.6058,2.5179,2.4585,2.4585,2.3681,2.3091,2.3091,2.3091,2.3091,2.3091,2.3091,2.3091,2.3091,2.3091,2.3091,2.3091,2.3091,2.3091,2.3091,2.3091,2.3091,2.3091,2.3091,2.3091,2.3091,2.3091,2.3091,2.3091,2.3091,2.3091,2.3091,2.3091,2.3091,2.3091,2.3091,2.3091,2.3091,2.3091,2.3091,2.3091,2.3091,2.3091,2.3081,2.3023,2.275,2.2412,2.1924,2.1523,2.1083,2.0713,2.0605,2.0605,2.0605,2.0556,2.0517,2.0517,2.0127,1.9824,1.9824,1.9482,1.9072,1.8666,1.8559,1.8393,1.8057,1.8008,1.8008,1.8008,1.8008,1.8008,1.8008,1.8008,1.8008,1.8008,1.8008,1.8008,1.8008,1.7959,1.793,1.793,1.7871,1.7627,1.7239,1.6836,1.6354,1.5846,1.532,1.4362,1.3009,1.3009,1.3009,1.3009,1.3009,1.3033,1.3052,1.2922,1.2891,1.2899,1.2776,1.2713,1.2704,1.2795,1.2917,1.2978,2.5766,2.6141,2.6678,2.729,2.6883,2.6678,2.7279,2.6883,2.6524,2.6524,2.6524,2.6524,2.6524,2.6058,2.5504,2.4872,2.4329,2.38,2.3135,2.3091,2.3387,2.4006,2.343,2.3681,2.4978,2.4382,2.4339,2.502,2.3724,2.343,2.4049,2.3387,2.3091,2.3091,2.3091,2.3091,2.3091,2.3091,2.3091,2.3091,2.3091,2.3091,2.3091,2.3091,2.3091,2.3091,2.3091,2.3091,2.3091,2.3091,2.3091,2.3091,2.3091,2.3091,2.3091,2.3091,2.2964,2.2773,2.2344,2.1924,2.1494,2.1045,2.0752,2.0605,2.0605,2.0605,2.0605,2.0605,2.0449,2.0273,2.0273,1.9922,1.958,1.9348,1.915,1.8848,1.8383,1.8325,1.8237,1.8037,1.8008,1.8008,1.8008,1.8008,1.8008,1.8008,1.8008,1.8008,1.8008,1.8008,1.8008,1.8008,1.8008,1.7812,1.7393,1.7197,1.6748,1.6095,1.5899,1.5279,1.4332,1.4332,1.4332,1.4332,1.4332,1.4332,1.4302,1.3846,1.3666,1.3644,1.3191,1.3274,1.3666,1.3666,1.3936,1.4332]}]]